[[{"header":{"parameterUnit":"m.s-1","parameterCategory":1,"la1":31.0,"la2":29.5877,"lo1":-88.7671,"lo2":-86.6584,"dy":0.0162,"dx":0.0185,"nx":115,"ny":88,"refTime":"2023-08-13T06:00:00:Z","depth":0,"parameterNumber":2,"parameterNumberName":"U-component_of_WINDS"},"data":[0.0,0.0,0.0,0.0,0.0,0.0,0.0,0.0,0.0,0.0,0.0,0.0,0.0,0.0,0.0,0.0,0.0,0.0,0.0,0.0,0.0,0.0,0.0,0.0,0.0,0.0,0.0,0.0,0.0,0.0,0.0,0.0,0.0,0.0,0.0,0.0,0.0,0.0,0.0,0.0,0.0,0.0,0.0,0.0,0.0,0.0,0.0,0.0,0.0,0.0,0.0,0.0,0.0,0.0,0.0,0.0,0.0,0.0,0.0,0.0,0.0,0.0,0.0,0.0,0.0,0.0,0.0,0.0,0.0,0.0,0.0,0.0,0.0,0.0,0.0,0.0,0.0,0.0,0.0,0.0,0.0,0.0,0.0,0.0,0.0,0.0,0.0,0.0,0.0,0.0,0.0,0.0,0.0,0.0,0.0,0.0,0.0,0.0,0.0,0.0,0.0,0.0,0.0,0.0,0.0,0.0,0.0,0.0,0.0,0.0,0.0,0.0,0.0,0.0,0.0,0.0,0.0,0.0,0.0,0.0,0.0,0.0,0.0,0.0,0.0,0.0,0.0,0.0,0.0,0.0,0.0,0.0,0.0,0.0,0.0,0.0,0.0,0.0,0.0,0.0,0.0,0.0,0.0,0.0,0.0,0.0,0.0,0.0,0.0,0.0,0.0,0.0,0.0,0.0,0.0,0.0,0.0,0.0,0.0,0.0,0.0,0.0,0.0,0.0,0.0,0.0,0.0,0.0,0.0,0.0,0.0,0.0,0.0,0.0,0.0,0.0,0.0,0.0,0.0,0.0,0.0,0.0,0.0,0.0,0.0,0.0,0.0,0.0,0.0,0.0,0.0,0.0,0.0,0.0,0.0,0.0,0.0,0.0,0.0,0.0,0.0,0.0,0.0,0.0,0.0,0.0,0.0,0.0,0.0,0.0,0.0,0.0,0.0,0.0,0.0,0.0,0.0,0.0,0.0,0.0,0.0,0.0,0.0,0.0,0.0,0.0,0.0,0.0,0.0,0.0,0.0,0.0,0.0,0.0,0.0,0.0,0.0,0.0,0.0,0.0,0.0,0.0,0.0,0.0,0.0,0.0,0.0,0.0,0.0,0.0,0.0,0.0,0.0,0.0,0.0,0.0,0.0,0.0,0.0,0.0,0.0,0.0,0.0,0.0,0.0,0.0,0.0,0.0,0.0,0.0,0.0,0.0,0.0,0.0,0.0,0.0,0.0,0.0,0.0,0.0,0.0,0.0,0.0,0.0,0.0,0.0,0.0,0.0,0.0,0.0,0.0,0.0,0.0,0.0,0.0,0.0,0.0,0.0,0.0,0.0,0.0,0.0,0.0,0.0,0.0,0.0,0.0,0.0,0.0,0.0,0.0,0.0,0.0,0.0,0.0,0.0,0.0,0.0,0.0,0.0,0.0,0.0,0.0,0.0,0.0,0.0,0.0,0.0,0.0,0.0,0.0,0.0,0.0,0.0,0.0,0.0,0.0,0.0,0.0,0.0,0.0,0.0,0.0,0.0,0.0,0.0,0.0,0.0,0.0,0.0,0.0,0.0,0.0,0.0,0.0,0.0,0.0,0.0,0.0,0.0,0.0,0.0,0.0,0.0,0.0,0.0,0.0,0.0,0.0,0.0,0.0,0.0,0.0,0.0,0.0,0.0,0.0,0.0,0.0,0.0,0.0,0.0,0.0,0.0,0.0,0.0,0.0,0.0,0.0,0.0,0.0,0.0,0.0,0.0,0.0,0.0,0.0,0.0,0.0,0.0,0.0,0.0,0.0,0.0,0.0,0.0,0.0,0.0,0.0,0.0,0.0,0.0,0.0,0.0,0.0,0.0,0.0,0.0,0.0,0.0,0.0,0.0,0.0,0.0,0.0,0.0,0.0,0.0,0.0,0.0,0.0,0.0,0.0,0.0,0.0,0.0,0.0,0.0,0.0,0.0,0.0,0.0,0.0,0.0,0.0,0.0,0.0,0.0,0.0,0.0,0.0,0.0,0.0,0.0,0.0,0.0,0.0,0.0,0.0,0.0,0.0,0.0,0.0,0.0,0.0,0.0,0.0,0.0,0.0,0.0,0.0,0.0,0.0,0.0,0.0,0.0,0.0,0.0,0.0,0.0,0.0,0.0,0.0,0.0,0.0,0.0,0.0,0.0,0.0,0.0,0.0,0.0,0.0,0.0,0.0,0.0,0.0,0.0,0.0,0.0,0.0,0.0,0.0,0.0,0.0,0.0,0.0,0.0,0.0,0.0,0.0,0.0,0.0,0.0,0.0,0.0,0.0,0.0,0.0,0.0,0.0,0.0,0.0,0.0,0.0,0.0,0.0,0.0,0.0,0.0,0.0,0.0,0.0,0.0,0.0,0.0,0.0,0.0,0.0,0.0,0.0,0.0,0.0,0.0,0.0,0.0,0.0,0.0,0.0,0.0,0.0,0.0,0.0,0.0,0.0,0.0,0.0,0.0,0.0,0.0,0.0,0.0,0.0,0.0,0.0,0.0,0.0,0.0,0.0,0.0,0.0,0.0,0.0,0.0,0.0,0.0,0.0,0.0,0.0,0.0,0.0,0.0,0.0,0.0,0.0,0.0,0.0,0.0,0.0,0.0,0.0,0.0,0.0,0.0,0.0,0.0,0.0,0.0,0.0,0.0,0.0,0.0,0.0,0.0,0.0,0.0,0.0,0.0,0.0,0.0,0.0,0.0,0.0,0.0,0.0,0.0,0.0,0.0,0.0,0.0,0.0,0.0,0.0,0.0,0.0,0.0,0.0,0.0,0.0,0.0,0.0,0.0,0.0,0.0,0.0,0.0,0.0,0.0,0.0,0.0,0.0,0.0,0.0,0.0,0.0,0.0,0.0,0.0,0.0,0.0,0.0,0.0,0.0,0.0,0.0,0.0,0.0,0.0,0.0,0.0,0.0,0.0,0.0,0.0,0.0,0.0,0.0,0.0,0.0,0.0,0.0,0.0,0.0,0.0,0.0,0.0,0.0,0.0,0.0,0.0,0.0,0.0,0.0,0.0,0.0,0.0,0.0,0.0,0.0,0.0,0.0,0.0,0.0,0.0,0.0,0.0,0.0,0.0,0.0,0.0,0.0,0.0,0.0,0.0,0.0,0.0,0.0,0.0,0.0,0.0,0.0,0.0,0.0,0.0,0.0,0.0,0.0,0.0,0.0,0.0,0.0,0.0,0.0,0.0,0.0,0.0,0.0,0.0,0.0,0.0,0.0,0.0,0.0,0.0,0.0,0.0,0.0,0.0,0.0,0.0,0.0,0.0,0.0,0.0,0.0,0.0,0.0,0.0,0.0,0.0,0.0,0.0,0.0,0.0,0.0,0.0,0.0,0.0,0.0,0.0,0.0,0.0,0.0,0.0,0.0,0.0,0.0,0.0,0.0,0.0,0.0,0.0,0.0,0.0,0.0,0.0,0.0,0.0,0.0,0.0,0.0,0.0,0.0,0.0,0.0,0.0,0.0,0.0,0.0,0.0,0.0,0.0,0.0,0.0,0.0,0.0,0.0,0.0,0.0,0.0,0.0,0.0,0.0,0.0,0.0,0.0,0.0,0.0,0.0,0.0,0.0,0.0,0.0,0.0,0.0,0.0,0.0,0.0,0.0,0.0,0.0,0.0,0.0,0.0,0.0,0.0,0.0,0.0,0.0,0.0,0.0,0.0,0.0,0.0,0.0,0.0,0.0,0.0,0.0,0.0,0.0,0.0,0.0,0.0,0.0,0.0,0.0,0.0,0.0,0.0,0.0,0.0,0.0,0.0,0.0,0.0,0.0,0.0,0.0,0.0,0.0,0.0,0.0,0.0,0.0,0.0,0.0,0.0,0.0,0.0,0.0,0.0,0.0,0.0,0.0,0.0,0.0,0.0,0.0,0.0,0.0,0.0,0.0,0.0,0.0,0.0,0.0,0.0,0.0,0.0,0.0,0.0,0.0,0.0,0.0,0.0,0.0,0.0,0.0,0.0,0.0,0.0,0.0,0.0,0.0,0.0,0.0,0.0,0.0,0.0,0.0,0.0,0.0,0.0,0.0,0.0,0.0,0.0,0.0,0.0,0.0,0.0,0.0,0.0,0.0,0.0,0.0,0.0,0.0,0.0,0.0,0.0,0.0,0.0,0.0,0.0,0.0,0.0,0.0,0.0,0.0,0.0,0.0,0.0,0.0,0.0,0.0,0.0,0.0,0.0,0.0,0.0,0.0,0.0,0.0,0.0,0.0,0.0,0.0,0.0,0.0,0.0,0.0,0.0,0.0,0.0,0.4465,0.0,0.0,0.0,0.0,0.0,0.0,0.0,0.0,0.0,0.0,0.0,0.0,0.0,0.0,0.0,0.0,0.0,0.0,0.0,0.0,0.0,0.0,0.0,0.0,0.0,0.0,0.0,0.0,0.0,0.0,0.0,0.0,0.0,0.0,0.0,0.0,0.0,0.0,0.0,0.0,0.0,0.0,0.0,0.0,0.0,0.0,0.0,0.0,0.0,0.0,0.0,0.0,0.0,0.0,0.0,0.0,0.0,0.0,0.0,0.0,0.0,0.0,0.0,0.0,0.0,0.0,0.0,0.0,0.0,0.0,0.0,0.0,0.0,0.0,0.0,0.0,0.0,0.0,0.0,0.0,0.0,0.0,0.0,0.0,0.0,0.0,0.0,0.0,0.0,0.0,0.0,0.0,0.0,0.0,0.0,0.0,0.0,0.0,0.0,0.0,0.0,0.0,0.0,0.0,0.0,0.0,0.0,0.0,0.0,0.0,0.347,0.1286,0.1737,0.2851,0.4356,0.0,0.0,0.0,0.0,0.0,0.0,0.0,0.0,0.0,0.0,0.0,0.0,0.0,0.0,0.0,0.0,0.0,0.0,0.0,0.0,0.0,0.0,0.0,0.0,0.0,0.0,0.0,0.0,0.0,0.0,0.0,0.0,0.0,0.0,0.0,0.0,0.0,0.0,0.0,0.0,0.0,0.0,0.0,0.0,0.0,0.0,0.0,0.0,0.0,0.0,0.0,0.0,0.0,0.0,0.0,0.0,0.0,0.0,0.0,0.0,0.0,0.0,0.0,0.0,0.0,0.0,0.0,0.0,0.0,0.0,0.0,0.0,0.0,0.0,0.0,0.0,0.0,0.0,0.0,0.0,0.0,0.0,0.0,0.0,0.0,0.0,0.0,0.0,0.0,0.0,0.0,0.0,0.0,0.0,0.0,0.0,0.0,0.0,0.0,0.0,0.0,0.0,0.0,0.0,0.0,0.0,0.0,0.0,0.0,0.0,0.0,0.0,0.1102,0.1747,0.4295,0.0,0.0,0.0,0.0,0.0,0.0,0.0,0.0,0.0,0.0,0.0,0.0,0.0,0.0,0.0,0.0,0.0,0.0,0.0,0.0,0.0,0.0,0.0,0.0,0.0,0.0,0.0,0.0,0.0,0.0,0.0,0.0,0.0,0.0,0.0,0.0,0.0,0.0,0.0,0.0,0.0,0.0,0.0,0.0,0.0,0.0,0.0,0.0,0.0,0.0,0.0,0.0,0.0,0.0,0.0,0.0,0.0,0.0,0.0,0.0,0.0,0.0,0.0,0.0,0.0,0.0,0.0,0.0,0.0,0.0,0.0,0.0,0.0,0.0,0.0,0.0,0.0,0.0,0.0,0.0,0.0,0.0,0.0,0.0,0.0,0.0,0.0,0.0,0.0,0.0,0.0,0.0,0.0,0.0,0.0,0.0,0.0,0.0,0.0,0.0,0.0,0.0,0.0,0.0,0.0,0.0,0.0,0.0,0.0,0.0,0.3755,0.2272,0.2052,0.0,0.4358,0.0,0.0,0.0,0.0,0.0,0.0,0.0,0.0,0.0,0.0,0.0,0.0,0.0,0.0,0.0,0.0,0.0,0.0,0.0,0.0,0.0,0.0,0.0,0.0,0.0,0.0,0.0,0.0,0.0,0.0,0.0,0.0,0.0,0.0,0.0,0.0,0.0,0.0,0.0,0.0,0.0,0.0,0.0,0.0,0.0,0.0,0.0,0.0,0.0,0.0,0.0,0.0,0.0,0.0,0.0,0.0,0.0,0.0,0.0,0.0,0.0,0.0,0.0,0.0,0.0,0.0,0.0,0.0,0.0,0.0,0.0,0.0,0.0,0.0,0.0,0.0,0.0,0.0,0.0,0.0,0.0,0.0,0.0,0.0,0.0,0.0,0.0,0.0,0.0,0.0,0.0,0.0,0.0,0.0,0.0,0.0,0.0,0.0,0.0,0.0,0.0,0.0,0.0,0.0,0.0,0.0,0.0,0.0,0.0,0.0,0.4326,0.3584,0.3538,0.3859,0.0,0.0,0.0,0.0,0.0,0.0,0.0,0.0,0.0,0.0,0.0,0.0,0.0,0.0,0.0,0.0,0.0,0.0,0.0,0.0,0.0,0.0,0.0,0.0,0.0,0.0,0.0,0.0,0.0,0.0,0.0,0.0,0.0,0.0,0.0,0.0,0.0,0.0,0.0,0.0,0.0,0.0,0.0,0.0,0.0,0.0,0.0,0.0,0.0,0.0,0.0,0.0,0.0,0.0,0.0,0.0,0.0,0.0,0.0,0.0,0.0,0.0,0.0,0.0,0.0,0.0,0.0,0.0,0.0,0.0,0.0,0.0,0.0,0.0,0.0,0.0,0.0,0.0,0.0,0.0,0.0,0.0,0.0,0.0,0.0,0.0,0.0,0.0,0.0,0.0,0.0,0.0,0.0,0.0,0.0,0.0,0.0,0.0,0.0,0.0,0.0,0.0,0.0,0.0,0.0,0.0,0.0,0.0,0.0,0.0,0.4664,0.4551,0.4109,0.4329,0.4512,0.4485,0.0,0.0,0.0,0.0,0.0,0.0,0.0,0.0,0.0,0.0,0.0,0.0,0.0,0.0,0.0,0.0,0.0,0.0,0.0,0.0,0.0,0.0,0.0,0.0,0.0,0.0,0.0,0.0,0.0,0.0,0.0,0.0,0.0,0.0,0.0,0.0,0.0,0.0,0.0,0.0,0.0,0.0,0.0,0.0,0.0,0.0,0.0,0.0,0.0,0.0,0.0,0.0,0.0,0.0,0.0,0.0,0.0,0.0,0.0,0.0,0.0,0.0,0.0,0.0,0.0,0.0,0.0,0.0,0.0,0.0,0.0,0.0,0.0,0.0,0.0,0.0,0.0,0.0,0.0,0.0,0.0,0.0,0.0,0.0,0.0,0.0,0.0,0.0,0.0,0.0,0.0,0.0,0.0,0.0,0.0,0.0,0.0,0.0,0.0,0.0,0.0,0.0,0.0,0.0,0.0,0.0,0.0,0.0,0.4667,0.4594,0.4023,0.3154,0.3984,0.4498,0.0,0.0,0.0,0.0,0.0,0.0,0.0,0.0,0.0,0.0,0.0,0.0,0.0,0.0,0.0,0.0,0.0,0.0,0.0,0.0,0.0,0.0,0.0,0.0,0.0,0.0,0.0,0.0,0.0,0.0,0.0,0.0,0.0,0.0,0.0,0.0,0.0,0.0,0.0,0.0,0.0,0.0,0.0,0.0,0.0,0.0,0.0,0.0,0.0,0.0,0.0,0.0,0.0,0.0,0.0,0.0,0.0,0.0,0.0,0.0,0.0,0.0,0.0,0.0,0.0,0.0,0.0,0.0,0.0,0.0,0.0,0.0,0.0,0.0,0.0,0.0,0.0,0.0,0.0,0.0,0.0,0.0,0.0,0.0,0.0,0.0,0.0,0.0,0.0,0.0,0.0,0.0,0.0,0.0,0.0,0.0,0.0,0.0,0.0,0.0,0.0,0.0,0.0,0.0,0.0,0.0,0.0,0.0,0.0,0.4541,0.4532,0.4305,0.3975,0.4311,0.4495,0.0,0.0,0.0,0.0,0.0,0.0,0.0,0.0,0.0,0.0,0.0,0.0,0.0,0.0,0.0,0.0,0.0,0.0,0.0,0.0,0.0,0.0,0.0,0.0,0.0,0.0,0.0,0.0,0.0,0.0,0.0,0.0,0.0,0.0,0.0,0.0,0.0,0.0,0.0,0.0,0.0,0.0,0.0,0.0,0.0,0.0,0.0,0.0,0.0,0.0,0.0,0.0,0.0,0.0,0.0,0.0,0.0,0.0,0.0,0.0,0.0,0.0,0.0,0.0,0.0,0.0,0.0,0.0,0.0,0.0,0.0,0.0,0.0,0.0,0.0,0.0,0.0,0.0,0.0,0.0,0.0,0.0,0.0,0.0,0.0,0.0,0.0,0.0,0.0,0.0,0.0,0.0,0.0,0.0,0.0,0.0,0.0,0.0,0.0,0.0,0.0,0.0,0.0,0.0,0.0,0.0,0.0,0.0,0.0,0.4467,0.0,0.4459,0.4477,0.4465,0.4241,0.0,0.0,0.0,0.0,0.0,0.0,0.0,0.0,0.0,0.0,0.0,0.0,0.0,0.0,0.0,0.0,0.0,0.0,0.0,0.0,0.0,0.0,0.0,0.0,0.0,0.0,0.0,0.0,0.0,0.0,0.0,0.0,0.0,0.0,0.0,0.0,0.0,0.0,0.0,0.0,0.0,0.0,0.0,0.0,0.0,0.0,0.0,0.0,0.0,0.0,0.0,0.0,0.0,0.0,0.0,0.0,0.0,0.0,0.0,0.0,0.0,0.0,0.0,0.0,0.0,0.0,0.0,0.0,0.0,0.0,0.0,0.0,0.0,0.0,0.0,0.0,0.0,0.0,0.0,0.0,0.0,0.0,0.0,0.0,0.0,0.0,0.0,0.0,0.0,0.0,0.0,0.0,0.0,0.0,0.0,0.0,0.0,0.0,0.0,0.0,0.0,0.0,0.0,0.0,0.0,0.0,0.0,0.0,0.4512,0.4463,0.446,0.4467,0.4477,0.448,0.3802,0.0,0.0,0.0,0.0,0.0,0.0,0.0,0.0,0.0,0.0,0.0,0.0,0.0,0.0,0.0,0.0,0.0,0.0,0.0,0.0,0.0,0.0,0.0,0.0,0.0,0.0,0.0,0.0,0.0,0.0,0.0,0.0,0.0,0.0,0.0,0.0,0.0,0.0,0.0,0.0,0.0,0.0,0.0,0.0,0.0,0.0,0.0,0.0,0.0,0.0,0.0,0.0,0.0,0.0,0.0,0.0,0.0,0.0,0.0,0.0,0.0,0.0,0.0,0.0,0.0,0.0,0.0,0.0,0.0,0.0,0.0,0.0,0.0,0.0,0.0,0.0,0.0,0.0,0.0,0.0,0.0,0.0,0.0,0.0,0.0,0.0,0.0,0.0,0.0,0.0,0.0,0.0,0.0,0.0,0.0,0.0,0.0,0.0,0.0,0.0,0.0,0.0,0.0,0.0,0.0,0.0,0.0,0.0,0.0,0.4512,0.4476,0.448,0.447,0.4504,0.4283,0.0,0.0,0.0,0.0,0.0,0.0,0.0,0.0,0.0,0.0,0.0,0.0,0.0,0.0,0.0,0.0,0.0,0.0,0.0,0.0,0.0,0.0,0.0,0.0,0.0,0.0,0.0,0.0,0.0,0.0,0.0,0.0,0.0,0.0,0.0,0.0,0.0,0.0,0.0,0.0,0.0,0.0,0.0,0.0,0.0,0.0,0.0,0.0,0.0,0.0,0.0,0.0,0.0,0.0,0.0,0.0,0.0,0.0,0.0,0.0,0.0,0.0,0.0,0.0,0.0,0.0,0.0,0.0,0.0,0.0,0.0,0.0,0.0,0.0,0.0,0.0,0.0,0.0,0.0,0.0,0.0,0.0,0.0,0.0,0.0,0.0,0.0,0.0,0.0,0.0,0.0,0.0,0.0,0.0,0.0,0.0,0.0,0.0,0.0,0.0,0.0,0.0,0.0,0.0,0.0,0.0,0.0,0.0,0.0,0.4357,0.4383,0.3865,0.2841,0.3935,0.3966,0.2856,0.0,0.0,0.0,0.0,0.0,0.0,0.0,0.0,0.0,0.0,0.0,0.0,0.0,0.0,0.0,0.0,0.0,0.0,0.0,0.0,0.0,0.0,0.0,0.0,0.0,0.0,0.0,0.0,0.0,0.0,0.0,0.0,0.0,0.0,0.0,0.0,0.0,0.0,0.0,0.0,0.0,0.0,0.0,0.0,0.0,0.0,0.0,0.0,0.0,0.0,0.0,0.0,0.0,0.0,0.0,0.0,0.0,0.0,0.0,0.0,0.0,0.0,0.0,0.0,0.0,0.0,0.0,0.0,0.0,0.0,0.0,0.0,0.0,0.0,0.0,0.0,0.0,0.0,0.0,0.0,0.0,0.0,0.0,0.0,0.0,0.0,0.0,0.0,0.0,0.0,0.0,0.0,0.0,0.0,0.0,0.0,0.0,0.0,0.0,0.0,0.0,0.0,0.0,0.0,0.0,0.0,0.0,0.0,0.42,0.4172,0.2961,0.0476,0.269,0.2742,0.0,0.0,0.0,0.0,0.0,0.0,0.0,0.0,0.0,0.0,0.0,0.0,0.0,0.0,0.0,0.0,0.0,0.0,0.0,0.0,0.0,0.0,0.0,0.0,0.0,0.0,0.0,0.0,0.0,0.0,0.0,0.0,0.0,0.0,0.0,0.0,0.0,0.0,0.0,0.0,0.0,0.0,0.0,0.0,0.0,0.0,0.0,0.0,0.0,0.0,0.0,0.0,0.0,0.0,0.0,0.0,0.0,0.0,0.0,0.0,0.0,0.0,0.0,0.0,0.0,0.0,0.0,0.0,0.0,0.0,0.0,0.0,0.0,0.0,0.0,0.0,0.0,0.0,0.0,0.0,0.0,0.0,0.0,0.0,0.0,0.0,0.0,0.0,0.0,0.0,0.0,0.0,0.0,0.0,0.0,0.0,0.0,0.0,0.0,0.0,0.0,0.0,0.0,0.0,0.0,0.0,0.0,0.0,0.0,0.4375,0.3992,0.3595,0.3242,-0.0214,-0.1475,0.0,0.0,0.0,0.0,0.0,0.0,0.0,0.0,0.0,0.0,0.0,0.0,0.0,0.0,0.0,0.0,0.0,0.0,0.0,0.0,0.0,0.0,0.0,0.0,0.0,0.0,0.0,0.0,0.0,0.0,0.0,0.0,0.0,0.0,0.0,0.0,0.0,0.0,0.0,0.0,0.0,0.0,0.0,0.0,0.0,0.0,0.0,0.0,0.0,0.0,0.0,0.0,0.0,0.0,0.0,0.0,0.0,0.0,0.0,0.0,0.0,0.0,0.0,0.0,0.0,0.0,0.0,0.0,0.0,0.0,0.0,0.0,0.0,0.0,0.0,0.0,0.0,0.0,0.0,0.0,0.0,0.0,0.0,0.0,0.0,0.0,0.0,0.0,0.0,0.0,0.0,0.0,0.0,0.0,0.0,0.0,0.0,0.0,0.0,0.0,0.0,0.0,0.0,0.0,0.0,0.0,0.0,0.0,0.3899,0.4134,0.3768,0.331,0.2609,-0.074,-0.2441,0.0,0.0,0.0,0.0,0.0,0.0,0.0,0.0,0.0,0.0,0.0,0.0,0.0,0.0,0.0,0.0,0.0,0.0,0.0,0.0,0.0,0.0,0.0,0.0,0.0,0.0,0.0,0.0,0.0,0.0,0.0,0.0,0.0,0.0,0.0,0.0,0.0,0.0,0.0,0.0,0.0,0.0,0.0,0.0,0.0,0.0,0.0,0.0,0.0,0.0,0.0,0.0,0.0,0.0,0.0,0.0,0.0,0.0,0.0,0.0,0.0,0.0,0.0,0.0,0.0,0.0,0.0,0.0,0.0,0.0,0.0,0.0,0.0,0.0,0.0,0.0,0.0,0.0,0.0,0.0,0.0,0.0,0.0,0.0,0.0,0.0,0.0,0.0,0.0,0.0,0.0,0.0,0.0,0.0,0.0,0.0,0.0,0.0,0.0,0.0,0.0,0.0,0.0,0.0,0.0,0.0,0.0,0.0,0.3447,0.323,0.3486,0.2432,-0.0,-0.0,-0.1245,0.0,0.0,0.0,0.0,0.0,0.0,0.0,0.0,0.0,0.0,0.0,0.0,0.0,0.0,0.0,0.0,0.0,0.0,0.0,0.0,0.0,0.0,0.0,0.0,0.0,0.0,0.0,0.0,0.0,0.0,0.0,0.0,0.0,0.0,0.0,0.0,0.0,0.0,0.0,0.0,0.0,0.0,0.0,0.0,0.0,0.0,0.0,0.0,0.0,0.0,0.0,0.0,0.0,0.0,0.0,0.0,0.0,0.0,0.0,0.0,0.0,0.0,0.0,0.0,0.0,0.0,0.0,0.0,0.0,0.0,0.0,0.0,0.0,0.0,0.0,0.0,0.0,0.0,0.0,0.0,0.0,0.0,0.0,0.0,0.0,0.0,0.0,0.0,0.0,0.0,0.0,0.0,0.0,0.0,0.0,0.0,0.0,0.0,0.0,0.0,0.0,0.0,0.0,0.0,0.0,0.0,0.0,0.0,0.0816,0.0823,0.2655,0.2436,-0.0,-0.0,-0.0271,0.0,0.0,0.0,0.0,0.0,0.0,0.0,0.0,0.0,0.0,0.0,0.0,0.0,0.0,0.0,0.0,0.0,0.0,0.0,0.0,0.0,0.0,0.0,0.0,0.0,0.0,0.0,0.0,0.0,0.0,0.0,0.0,0.0,0.0,0.0,0.0,0.0,0.0,0.0,0.0,0.0,0.0,0.0,0.0,0.0,0.0,0.0,0.0,-0.0,0.0,0.0,0.0,0.0,0.0,0.0,0.0,0.0,0.0,0.0,0.0,0.0,0.0,0.0,0.0,0.0,0.0,0.0,0.0,0.0,0.0,0.0,0.0,0.0,0.0,0.0,0.0,0.0,0.0,0.0,0.0,0.0,0.0,0.0,0.0,0.0,0.0,0.0,0.0,0.0,0.0,0.0,0.0,0.0,0.0,0.0,0.0,0.0,0.0,0.0,0.0,0.0,0.0,0.0,0.0,0.0,0.0,0.0,0.0,0.0704,0.0051,0.1265,0.1273,-0.0,-0.0,-0.0,0.0,0.0,0.0,0.0,0.0,0.0,0.0,0.0,0.0,0.0,0.0,0.0,0.0,0.0,0.0,0.0,0.0,0.0,0.0,0.0,0.0,0.0,0.0,0.0,0.0,0.0,0.0,0.0,0.0,0.0,0.0,0.0,0.0,0.0,0.0,0.0,0.0,0.0,0.0,0.0,0.0,0.0,0.0,0.0,0.0,0.0,0.0,0.0,0.0,0.0,0.0,0.0,0.0,0.0,0.0,0.0,0.0,0.0,0.0,0.0,0.0,0.0,0.0,0.0,0.0,0.0,0.0,0.0,0.0,0.0,0.0,0.0,0.0,0.0,0.0,0.0,0.0,0.0,0.0,0.0,0.0,0.0,0.0,0.0,0.0,0.0,0.0,0.0,0.0,0.0,0.0,0.0,0.0,0.0,0.0,0.0,0.0,0.0,0.0,0.0,0.0,0.0,0.0,0.0,0.0,0.0,0.0,0.2895,0.1749,0.0388,0.0553,0.057,0.0372,0.032,0.0427,0.0692,0.0,0.0,0.0,0.0,0.0,0.0,0.0,0.0,0.0,0.0,0.0,0.0,0.0,0.0,0.0,0.0,0.0,0.0,0.0,0.0,0.0,0.0,0.0,0.0,0.0,0.0,0.0,0.0,0.0,0.0,0.0,0.0,0.0,0.0,0.0,0.0,0.0,0.0,0.4467,-0.0667,0.0,0.0,0.0,0.0,0.0,0.0,0.0,0.0,-0.5156,0.0,0.0,0.0,0.0,0.0,0.0,0.0,0.0,0.0,0.0,0.0,0.0,0.0,0.0,0.0,0.0,0.0,0.0,0.0,0.0,0.0,0.0,0.0,0.0,0.0,0.0,0.0,0.0,0.0,0.0,0.0,0.0,0.0,0.0,0.0,0.0,0.0,0.0,0.0,0.0,0.0,0.0,0.0,0.0,0.0,0.0,0.0,0.0,0.0,0.0,0.0,0.0,0.0,0.0,0.0,0.0,0.3906,0.3533,0.2887,0.1882,0.3086,0.3157,0.1911,0.1853,0.2458,0.3579,0.0,0.0,0.0,0.0,0.0,0.0,0.0,0.0,0.0,0.0,0.0,0.0,0.0,0.0,0.0,0.0,0.0,0.0,0.0,0.0,0.0,0.0,0.0,0.0,0.0,0.0,0.0,0.0,0.0,0.0,0.0,0.0,0.0,0.0,0.0,0.0,0.0,0.0,0.0,-0.0713,-0.4463,0.0,0.0,0.0,0.0,0.0,0.0,0.0,0.0,-0.7127,0.0,0.0,0.0,0.0,0.0,0.0,0.0,0.0,0.0,0.0,0.0,0.0,0.0,0.0,0.0,0.0,0.0,0.0,0.0,0.0,0.0,0.0,0.0,0.0,0.0,0.0,0.0,0.0,0.0,0.0,0.0,0.0,0.0,0.0,0.0,0.0,0.0,0.0,0.0,0.0,0.0,0.0,0.0,0.0,0.0,0.0,0.0,0.0,0.0,0.0,0.0,0.0,0.0,0.0,0.0,0.4029,0.3742,0.3482,0.3242,0.4066,0.4155,0.3441,0.4097,0.4491,0.0,0.0,0.0,0.0,0.0,0.0,0.0,0.0,0.0,0.0,0.0,0.0,0.0,0.0,0.0,0.0,0.0,0.0,0.0,0.0,0.0,0.0,0.0,0.0,0.0,0.0,0.0,0.0,0.0,0.0,0.0,0.0,0.0,0.0,0.0,0.0,0.0,0.0,0.0,0.0,-0.087,-0.3441,-0.4368,0.0,0.0,0.0,0.0,0.0,0.0,-0.9961,-0.9969,0.0,0.0,0.0,0.0,0.0,0.0,0.0,0.0,0.0,0.0,0.0,0.0,0.0,0.0,0.0,0.0,0.0,0.0,0.0,0.0,0.0,0.0,0.0,0.0,0.0,0.0,0.0,0.0,0.0,0.0,0.0,0.0,0.0,0.0,0.0,0.0,0.0,0.0,0.0,0.0,0.0,0.0,0.0,0.0,0.0,0.0,0.0,0.0,0.0,0.0,0.0,0.0,0.0,0.0,0.0,0.418,0.3916,0.3913,0.4197,0.44,0.4581,0.4705,0.5813,0.5922,0.0,0.0,0.0,0.0,0.0,0.0,0.0,0.0,0.0,0.0,0.0,0.0,0.0,0.0,0.0,0.0,0.0,0.0,0.0,0.0,0.0,0.0,0.0,0.0,0.0,0.0,0.0,0.0,0.0,0.0,0.0,0.0,0.0,0.0,0.0,0.0,0.0,0.0,0.0,0.0,0.0,-0.3551,-0.4516,-0.4794,0.0,0.0,0.0,0.0,-0.9274,-1.1451,0.0,0.0,0.0,0.0,0.0,0.0,0.0,0.0,0.0,0.0,0.0,0.0,0.0,0.0,0.0,0.0,0.0,0.0,0.0,0.0,0.0,0.0,0.0,0.0,0.0,0.0,0.0,0.0,0.0,0.0,0.0,0.0,0.0,0.0,0.0,0.0,0.0,0.0,0.0,0.0,0.0,0.0,0.0,0.0,0.0,0.0,0.0,0.0,0.0,0.0,0.0,0.0,0.0,0.0,0.0,0.0,0.4194,0.4323,0.4323,0.42,0.4375,0.4772,0.5386,0.555,0.5878,0.0,0.0,0.0,0.0,0.0,0.0,0.0,0.0,0.0,0.0,0.0,0.0,0.0,0.0,0.0,0.0,0.0,0.0,0.0,0.0,0.0,0.0,0.0,0.0,0.0,0.0,0.0,0.0,0.0,0.0,0.0,0.0,0.0,0.0,0.0,0.0,0.0,0.0,0.0,0.0,0.0,-0.7242,-0.5449,-0.6329,-0.7628,0.0,0.0,-0.9331,-1.1855,-1.2632,0.0,0.0,0.0,0.0,0.0,0.0,0.0,0.0,0.0,0.0,0.0,0.0,0.0,0.0,0.0,0.0,0.0,0.0,0.0,0.0,0.0,0.0,0.0,0.0,0.0,0.0,0.0,0.0,0.0,0.0,0.0,0.0,0.0,0.0,0.0,0.0,0.0,0.0,0.0,0.0,0.0,0.0,0.0,0.0,0.0,0.0,0.0,0.0,0.0,0.0,0.0,0.0,0.0,0.0,0.0,0.4199,0.4355,0.4258,0.4458,0.4946,0.5416,0.5837,0.6091,0.6524,0.6691,0.0,0.0,0.0,0.0,0.0,0.0,0.0,0.0,0.0,0.0,0.0,0.0,0.0,0.0,0.0,0.0,0.0,0.0,0.0,0.0,0.0,0.0,0.0,0.0,0.0,0.0,0.0,0.0,0.0,0.0,0.0,0.0,0.0,0.0,0.0,0.0,0.0,0.0,0.0,0.0,0.0,0.0,-1.1565,-1.0414,0.0,0.0,0.0,-1.0867,-1.425,0.0,0.0,0.0,0.0,0.0,0.0,0.0,0.0,0.0,0.0,0.0,0.0,0.0,0.0,0.0,0.0,0.0,0.0,0.0,0.0,0.0,0.0,0.0,0.0,0.0,0.0,0.0,0.0,0.0,0.0,0.0,0.0,0.0,0.0,0.0,0.0,0.0,0.0,0.0,0.0,0.0,0.0,0.0,0.0,0.0,0.0,0.0,0.0,0.0,0.0,0.0,0.0,0.0,0.0,0.0,0.0,0.0,0.4721,0.4247,0.4547,0.5747,0.6683,0.7074,0.6912,0.7456,0.0,0.0,0.0,0.0,0.0,0.0,0.0,0.0,0.0,0.0,0.0,0.0,0.0,0.0,0.0,0.0,0.0,0.0,0.0,0.0,0.0,0.0,0.0,0.0,0.0,0.0,0.0,0.4463,0.0,0.0,0.0,0.0,0.0,0.0,0.0,0.0,0.0,0.0,0.0,0.0,0.0,0.0,-1.6265,-1.7537,-1.4838,-1.3242,0.0,0.0,-1.2743,-1.6497,-1.6504,-1.552,0.0,0.0,0.0,0.0,0.0,0.0,0.0,0.0,0.0,0.0,0.0,0.0,0.0,0.0,0.0,0.0,0.0,0.0,0.0,0.0,0.0,0.0,0.0,0.0,0.0,0.0,0.0,0.0,0.0,0.0,0.0,0.0,0.0,0.0,0.0,0.0,0.0,0.0,0.0,0.0,0.0,0.0,0.0,0.0,0.0,0.0,0.0,0.0,0.0,0.0,0.0,0.0,0.0,0.0,0.4623,0.5362,0.4478,0.4842,0.6519,0.7943,0.8327,0.767,0.767,0.7996,0.0,0.0,0.0,0.0,0.0,0.0,0.0,0.0,0.0,0.0,0.0,0.0,0.0,0.0,0.0,0.0,0.0,0.0,0.0,0.0,0.0,0.0,0.0,0.0,0.0,0.0,0.0,0.0,0.0,0.0,0.0,0.0,0.0,0.0,0.0,0.0,0.0,0.0,0.0,0.0,0.0,-2.0343,-2.1406,-1.8992,-1.7128,0.0,-1.5443,-1.5254,-1.8669,-1.671,-1.514,-1.6091,0.0,0.0,0.0,0.0,0.0,0.0,0.0,0.0,0.0,0.0,0.0,0.0,0.0,0.0,0.0,0.0,0.0,0.0,0.0,0.0,0.0,0.0,0.0,0.0,0.0,0.0,0.0,0.0,0.0,0.0,0.0,0.0,0.0,0.0,0.0,0.0,0.0,0.0,0.0,0.0,0.0,0.0,0.0,0.0,0.0,0.0,0.0,0.0,0.0,0.0,0.0,0.0,0.0,0.4634,0.5483,0.5422,0.6001,0.7224,0.8296,0.8684,0.8374,0.8374,0.8533,0.0,0.0,0.0,0.0,0.0,0.0,0.0,0.0,0.0,0.0,0.0,0.0,0.0,0.0,0.0,0.0,0.0,0.0,0.0,0.0,0.0,0.0,0.0,0.0,0.0,0.0,0.0,0.0,0.4463,0.4122,0.3166,0.0,0.0,0.0,0.0,0.0,0.0,0.0,0.0,0.0,0.0,-2.2769,-2.3575,-2.1536,0.0,0.0,-1.861,-1.793,-1.9376,-1.7449,-1.5488,-1.4467,-1.3854,0.0,0.0,0.0,0.0,0.0,0.0,0.0,0.0,0.0,0.0,0.0,0.0,0.0,0.0,0.0,0.0,0.0,0.0,0.0,0.0,0.0,0.0,0.0,0.0,0.0,0.0,0.0,0.0,0.0,0.0,0.0,0.0,0.0,0.0,0.0,0.0,0.0,0.0,0.0,0.0,0.0,0.0,0.0,0.0,0.0,0.0,0.0,0.0,0.0,0.0,0.0,0.0,0.4678,0.5483,0.5926,0.6511,0.7348,0.7753,0.7973,0.8156,0.8368,0.848,0.0,0.0,0.0,0.0,0.0,0.0,0.0,0.0,0.0,0.0,0.0,0.0,0.0,0.0,0.0,0.0,0.0,0.0,0.0,0.0,0.0,0.0,0.0,0.0,0.0,0.0,0.0,0.0,0.447,0.4073,0.3003,0.0,0.0,0.0,0.0,0.0,0.0,0.0,0.0,0.0,0.0,-2.4395,-2.473,-2.3378,-2.229,-2.2229,-2.1278,-2.0536,-2.0478,-1.8796,-1.6653,-1.4375,0.0,0.0,0.0,0.0,0.0,0.0,0.0,0.0,0.0,0.0,0.0,0.0,0.0,0.0,0.0,0.0,0.0,0.0,0.0,0.0,0.0,0.0,0.0,0.0,0.0,0.0,0.0,0.6642,0.0,0.0,0.6642,0.0,0.0,0.0,0.0,0.0,0.0,0.0,0.0,0.0,0.0,0.0,0.0,0.0,0.0,0.0,0.0,0.0,0.0,0.0,0.0,0.0,0.0,0.4835,0.5483,0.5764,0.615,0.6588,0.6185,0.6239,0.6696,0.7343,0.7723,0.7723,0.0,0.0,0.0,0.0,0.0,0.0,0.0,0.0,0.0,0.0,0.0,0.0,0.0,0.0,0.0,0.0,0.0,0.0,0.0,0.0,0.0,0.0,0.0,0.0,0.0,0.0,0.4421,0.4487,0.4438,0.0,0.0,0.0,0.0,0.0,0.0,0.0,0.0,0.0,-1.3417,-2.0261,-2.5162,-2.4852,-2.4579,-2.4081,-2.327,-2.3111,-2.2878,-2.2246,-2.0712,-1.8894,0.0,0.0,0.0,0.0,0.0,0.0,0.0,0.0,0.0,0.0,0.0,0.0,0.0,0.0,0.0,0.0,0.0,0.0,0.0,0.0,0.0,0.0,0.0,0.0,0.0,0.0,0.0,0.5763,0.6454,0.0,0.0,0.0,0.0,0.0,0.0,0.0,0.0,0.0,0.0,0.0,0.3944,0.3616,0.0,0.0,0.0,0.0,0.0,0.0,0.0,0.0,0.0,0.0,0.0,0.0,0.4838,0.5433,0.5144,0.5525,0.6534,0.6131,0.6126,0.6588,0.6858,0.7187,0.767,0.0,0.0,0.0,0.0,0.0,0.0,0.0,0.0,0.0,0.0,0.0,0.0,0.0,0.0,0.0,0.0,0.0,0.0,0.0,0.0,0.0,0.0,0.0,0.0,0.0,0.2613,0.0,0.0,0.0,0.0,0.0,0.0,0.0,0.0,0.0,0.0,-1.8166,-1.8583,-1.7002,-2.1708,-2.5183,-2.4832,-2.4745,-2.447,0.0,0.0,0.0,0.0,0.0,0.0,0.0,0.0,0.0,0.0,0.0,0.0,0.0,0.0,-1.5807,-1.4701,-1.4949,-1.531,-1.529,0.0,0.0,0.0,0.0,0.0,0.0,0.0,0.0,0.0,0.0,0.0,0.0,0.0,0.0,0.4219,0.4942,0.4088,0.0,0.0,0.0,0.0,0.0,0.0,0.0,0.0,0.5634,0.4555,0.2961,0.1931,0.249,0.0,0.3132,0.2901,0.0,0.0,0.0,0.0,0.0,0.0,0.0,0.0,0.4685,0.5124,0.4721,0.4941,0.5828,0.5601,0.5542,0.5878,0.6372,0.6804,0.7295,0.7359,0.6977,0.0,0.0,0.0,0.0,0.0,0.0,0.0,0.0,0.0,0.0,0.0,0.0,0.0,0.0,0.0,0.0,0.0,0.0,0.0,0.0,0.0,0.0,0.0,0.0719,0.0,0.0,0.0,0.0,0.0,0.0,0.0,0.0,0.0,-1.9937,-2.1855,-2.2317,-2.056,-2.2996,-2.4904,-2.4813,0.0,0.0,0.0,0.0,0.0,0.0,0.0,-1.8634,-1.8587,-1.8641,-1.86,-1.8553,-1.7061,-1.5892,-1.5916,0.0,0.0,-1.6959,-1.7042,-1.6959,-1.6572,-1.6511,-1.6696,-1.7247,-1.6223,-1.518,0.0,0.0,0.0,0.0,0.0,0.0,0.0,0.0,0.2153,0.2145,0.0,0.2174,0.0,0.0,0.0,0.0,0.6365,0.6413,0.0,0.0,0.5151,0.451,0.4327,0.1588,0.1682,0.426,0.3431,0.2742,0.2465,0.3816,0.0,0.0,0.0,0.0,0.0,0.0,0.4407,0.4396,0.4392,0.4438,0.4477,0.4532,0.4529,0.4574,0.5882,0.6583,0.6642,0.7997,0.811,0.6696,0.5416,0.0,0.0,0.0,0.0,0.0,0.0,0.0,0.0,0.0,0.0,0.0,0.0,0.0,0.0,0.0,0.0,0.0,0.0,0.0,0.0,-0.1589,0.0,0.0,0.0,0.0,0.0,0.0,0.0,0.0,0.0,-2.0727,-2.3309,-2.399,-2.4135,-2.3785,0.0,0.0,0.0,0.0,-2.4155,-2.3351,-2.3746,-2.3725,-2.2518,-2.0791,-1.8947,-1.6982,0.0,0.0,-1.6701,-1.5385,-1.4631,-1.4777,-1.4963,-1.5827,-1.7728,-1.7902,-1.7575,-1.6516,-1.6345,-1.5644,-1.3453,-1.2947,-1.312,0.3257,0.0,0.0,0.0,0.0,0.3075,0.2594,0.0607,0.0605,0.0606,0.0592,0.0617,0.0,0.0,0.0,0.0,0.0,0.0,0.404,0.5076,0.4712,0.4719,0.5097,0.4284,0.3646,0.3184,0.2934,0.3237,0.415,0.4687,0.4869,0.469,0.0,0.0,0.0,0.0,0.2855,0.2838,0.2836,0.3031,0.34,0.4135,0.4473,0.4463,0.5332,0.6036,0.6588,0.8033,0.8375,0.7461,0.7921,0.0,0.0,0.0,0.0,0.0,0.0,0.0,0.0,0.0,0.0,0.0,0.0,0.0,0.0,0.0,0.0,0.0,0.0,0.0,-0.535,-0.4474,-0.3517,0.0,0.0,0.0,0.0,0.0,0.0,0.0,0.0,0.0,-2.3209,-2.4314,-2.4754,0.0,0.0,-2.3511,-2.3652,-2.3735,-2.3632,-2.3241,-2.3397,0.0,-2.3003,-2.046,-1.8629,-1.874,-1.804,-1.7177,-1.6544,-1.4291,-1.258,-1.2607,-1.2864,-1.3841,-1.6031,-1.612,-1.535,-1.4312,-1.5291,-1.4936,-1.1122,-1.0679,-1.1537,0.5086,0.3979,0.4889,0.3707,0.146,0.3179,0.2931,0.1191,0.0381,0.0447,0.1321,0.2155,0.253,0.2504,0.1651,0.0,0.0,0.0,0.2702,0.5237,0.5176,0.498,0.4564,0.523,0.4996,0.3959,0.389,0.4342,0.5251,0.5174,0.5217,0.5102,0.0,0.4733,0.4806,0.2495,0.1688,0.239,0.2838,0.3319,0.3702,0.4219,0.4632,0.4893,0.5546,0.6312,0.702,0.8154,0.8658,0.8317,0.9203,0.8998,0.0,0.0,0.0,0.0,0.0,0.0,0.0,0.0,0.0,0.0,0.0,0.5171,0.5293,0.0,0.0,0.0,-0.4002,-0.5582,-0.7343,-0.6694,0.0,0.0,0.0,0.0,0.0,0.0,0.0,-1.4274,-1.9007,-2.2428,-2.2808,-2.359,-2.4181,-2.441,-2.4525,-2.4039,-2.2534,0.0,-2.2853,-2.2565,-2.2903,-2.3016,-2.2377,-1.9577,-1.7706,-1.8335,-1.6577,-1.5131,-1.4979,-1.3124,-1.1714,-1.157,-1.1672,-1.2327,-1.4101,-1.3998,-1.3549,-1.3052,-1.4037,-1.3425,-0.8856,-0.9041,-1.0156,0.6122,0.605,0.6096,0.5063,0.3375,0.3373,0.3332,0.3193,0.1362,0.1468,0.3205,0.5346,0.5192,0.3256,0.1343,0.0,0.0269,0.0256,0.2355,0.6018,0.6218,0.5235,0.3432,0.5132,0.5986,0.5907,0.5959,0.5952,0.5952,0.567,0.5602,0.5731,0.5256,0.4925,0.4752,0.1967,0.1203,0.2716,0.3923,0.4699,0.4958,0.4745,0.4927,0.5622,0.6282,0.6987,0.7676,0.8312,0.8792,0.919,0.9707,0.9571,0.8727,0.0,0.0,0.0,0.0,0.0,0.0,0.0,0.0,0.0,0.0,0.0,0.0,0.0,0.0,0.0,-0.9567,0.0,-0.7982,-0.8469,0.0,0.0,0.0,-1.3978,-1.7383,-1.7317,-1.7232,-1.7796,0.0,0.0,-2.2114,-2.2211,-2.2875,-2.4392,-2.5613,-2.5066,-2.1626,-2.1754,-2.1942,-2.1672,-2.2388,-2.2491,-2.1062,-1.8444,-1.6586,-1.6391,-1.4424,-1.3134,-1.2972,-1.2237,-1.1583,-1.0987,-1.096,-1.1041,-1.1663,-1.1664,-1.1773,-1.193,-1.2319,-1.1327,-0.7716,-0.7589,-0.8517,0.8463,0.8482,0.8641,0.7446,0.5347,0.5433,0.5554,0.546,0.5,0.4145,0.3216,0.5362,0.5988,0.5479,0.5012,0.3907,0.235,0.2394,0.29,0.3965,0.5545,0.5976,0.5402,0.6766,0.7306,0.7028,0.7716,0.8053,0.8058,0.722,0.6896,0.6863,0.6021,0.5507,0.5241,0.4483,0.3661,0.273,0.4373,0.5562,0.6267,0.6011,0.6075,0.6727,0.6895,0.7207,0.7681,0.73,0.7744,0.9176,1.1133,1.1391,0.9563,0.9486,0.0,0.0,0.0,0.0,0.0,0.0,0.0,0.0,0.0,0.4632,0.4978,0.0,0.0055,0.0,-0.8712,-0.9894,-1.0026,-1.021,0.0,0.0,-1.3006,-1.6452,-1.8904,-1.8448,-1.8544,-2.0039,-2.144,-2.1791,-2.0489,-2.1464,-2.2434,-2.2867,-2.3134,-2.314,-2.2525,-2.2148,-2.1937,-2.1857,-2.1623,-2.1116,-1.9854,-1.7935,-1.621,-1.5279,-1.3891,-1.2908,-1.2932,-1.1769,-1.0404,-0.9153,-0.9026,-0.9141,-0.9045,-0.8438,-0.7597,-0.6929,-0.8205,-0.9166,-0.7048,-0.6087,-0.5917,0.9667,0.9683,0.9879,0.9085,0.788,0.7983,0.8043,0.7961,0.7606,0.6998,0.6285,0.6839,0.6863,0.6356,0.6303,0.567,0.4579,0.4489,0.4496,0.4582,0.6408,0.7078,0.6826,0.8001,0.8436,0.8194,0.8772,0.899,0.899,0.8486,0.8194,0.8194,0.7302,0.6929,0.6986,0.6205,0.5248,0.4071,0.5435,0.6278,0.6634,0.6847,0.7325,0.7918,0.7714,0.7875,0.8577,0.7966,0.8294,0.9911,1.1939,1.2464,1.1249,1.0892,1.0269,0.0,0.0,0.0,0.0,0.0,0.0,0.0,0.0,0.0,0.0,0.0,-0.2078,-0.7605,-0.937,-1.0477,-1.1157,-1.1539,-1.1929,-1.2474,-1.4909,-1.6953,-1.8153,-1.863,-1.9405,-2.0822,-2.1755,-2.1632,-1.9968,-2.0539,-2.1124,-2.1167,-2.2161,-2.2758,-2.2418,-2.2061,-2.155,-2.0763,-2.0495,-1.9855,-1.8371,-1.7237,-1.6279,-1.5598,-1.4676,-1.3572,-1.2142,-1.0415,-0.8895,-0.8017,-0.7623,-0.7629,-0.7677,-0.6716,-0.5541,-0.505,-0.5751,-0.646,-0.5855,-0.5027,-0.4826,1.06,1.0606,1.0643,1.0654,1.0649,1.0686,1.0502,1.0186,0.9409,0.9508,1.0069,0.895,0.7907,0.6904,0.6842,0.6714,0.6718,0.6712,0.6731,0.6725,0.7877,0.8266,0.8119,0.9003,0.9539,0.9565,0.9609,0.9669,0.9674,0.9523,0.9518,0.9448,0.8883,0.8716,0.9076,0.7616,0.658,0.6226,0.6921,0.7158,0.6885,0.7734,0.8511,0.9108,0.8643,0.8752,0.9495,0.9045,0.9368,1.0662,1.2265,1.3059,1.2797,1.1908,1.1145,0.0,0.9905,0.0,0.0,0.0,0.0,0.0,0.0,0.0,0.0,-0.055,-0.5108,-0.9631,-1.055,-1.1107,-1.1758,-1.2463,-1.3303,-1.4339,-1.5302,-1.5985,-1.6296,-1.7894,-1.9416,-2.0503,-2.1432,-2.1303,-1.9516,-1.9291,-1.9276,-1.9455,-2.1327,-2.249,-2.195,-2.1524,-2.087,-1.929,-1.9336,-1.8688,-1.6642,-1.6185,-1.6224,-1.6005,-1.5563,-1.4179,-1.0885,-0.8743,-0.7341,-0.7101,-0.6579,-0.6438,-0.7072,-0.5846,-0.4848,-0.4546,-0.4639,-0.4688,-0.4597,-0.4573,-0.4678,1.2638,1.2664,1.2881,1.2977,1.299,1.322,1.2135,1.0191,1.0046,0.9889,0.98,0.9842,0.9459,0.8856,0.9262,0.9213,0.8784,0.8952,0.8937,0.877,0.8964,0.9204,0.9388,1.0127,1.0598,1.0864,1.1427,1.17,1.17,1.0938,1.049,1.0496,1.0154,0.9685,0.9316,0.0,0.0,0.0,0.8364,0.879,0.9332,0.9342,0.956,0.9877,0.9597,0.0,0.8951,0.8844,0.9004,0.9597,1.2332,0.0,0.0,0.0,0.0,0.0,0.0,0.0,0.0,0.0,0.0,0.0,0.1145,-0.1231,-0.1108,-0.5694,-0.8791,-0.901,-1.0333,-1.1444,-1.1986,-1.2582,-1.3002,-1.3215,-1.2841,-1.3221,-1.4838,-1.5834,-1.6934,-1.8476,-1.9586,-1.9433,-1.7557,-1.7139,-1.7188,-1.7453,-1.9054,-2.0684,-2.1613,-2.0807,-2.026,-2.0274,-1.9279,-1.7206,-1.4038,-1.4744,-1.5053,-1.4113,-1.472,-1.3616,-1.0045,-0.7873,-0.6339,-0.5439,-0.5576,-0.5831,-0.5525,-0.4898,-0.4521,-0.4494,-0.4438,-0.4487,-0.447,-0.447,-0.4532,1.3641,1.3661,1.3794,1.3861,0.0,1.4587,1.3791,1.2123,1.2146,1.1589,1.0825,1.0922,1.0406,0.9381,0.9657,0.9586,0.9306,0.9412,0.9402,0.9301,0.982,1.0106,1.0291,1.116,1.1614,1.1759,1.2149,1.2305,1.2305,1.1774,1.1545,1.1539,1.1353,1.1129,1.0801,1.1129,1.0547,0.9025,0.9529,0.9845,1.0031,1.0312,1.0456,1.0354,0.9907,0.0,0.0,0.0,0.0,0.0,0.0,0.0,0.0,1.213,0.0,1.1518,1.0431,0.9128,0.7757,0.6915,0.6141,0.5113,0.0615,-0.2829,-0.4198,-0.68,-0.8526,-0.8814,-0.9356,-0.9943,-1.0775,-1.1718,-1.229,-1.2272,-1.1387,-1.1264,-1.2563,-1.4163,-1.563,-1.6967,-1.8639,-1.8934,-1.6815,-1.6526,-1.7016,-1.7953,-1.8999,-1.9972,-2.0496,-1.9747,-1.9291,-2.0046,-1.8578,-1.6296,-1.3663,-1.3476,-1.3387,-1.1626,-1.1572,-1.1192,-0.9225,-0.76,-0.6154,-0.4876,-0.4918,-0.5095,-0.4826,-0.4594,-0.4033,-0.2847,-0.3474,-0.3816,-0.2792,-0.285,-0.336,1.4166,1.4328,1.4166,1.4088,1.4166,1.5213,1.5296,1.4657,1.425,0.0,0.0,1.2176,1.1381,1.0142,1.0119,1.0105,1.003,1.0073,1.0067,1.003,1.0854,1.1256,1.1298,1.2045,1.2405,1.2458,1.2351,1.2305,1.2305,1.2305,1.2305,1.2305,1.2305,1.2305,1.2305,1.2305,1.1471,0.9976,1.064,1.0852,1.0387,1.103,1.1149,1.0715,1.0107,0.9846,1.002,0.9336,0.9611,1.0902,1.0314,1.0719,1.255,1.205,1.1712,1.1764,1.1045,0.9913,0.835,0.8086,0.7108,0.5057,0.1003,-0.2772,-0.603,-0.6504,-0.7235,-0.8824,-0.8155,-0.7977,-0.8727,-1.0114,-1.1061,-1.1061,-0.9702,-0.9193,-1.0385,-1.2448,-1.4323,-1.5616,-1.7566,-1.8084,-1.5658,-1.587,-1.7211,-1.9133,-1.9096,-1.9008,-1.8958,-1.8572,-1.8538,-1.9136,-1.7809,-1.5705,-1.3596,-1.2928,-1.1813,-0.9539,-0.8976,-0.8633,-0.8032,-0.722,-0.6126,-0.4747,-0.4494,-0.4539,-0.4497,-0.4504,-0.3418,-0.0613,-0.1902,-0.2805,-0.0168,-0.0112,-0.0835,1.465,1.5379,1.4496,1.4088,1.4166,1.5213,1.6116,1.669,1.4908,1.3791,1.3371,1.3662,1.3326,1.2685,1.3205,1.3147,1.2706,1.2846,1.2833,1.2687,1.2759,1.2969,1.3179,1.2848,1.2826,1.3033,1.2552,1.2305,1.2305,1.2305,1.2305,1.2305,1.2305,1.2305,1.2305,1.2305,1.215,1.1848,1.1996,1.2072,1.1992,1.157,1.1296,1.1016,1.037,0.9947,0.9746,0.9649,0.9669,0.9928,1.0279,1.0782,1.145,1.1294,1.142,1.1742,1.1045,1.0174,0.9134,0.8415,0.6551,0.3372,0.1055,-0.1742,-0.5182,-0.644,-0.7507,-0.8657,-0.7491,-0.6378,-0.5803,-0.7385,-0.8548,-0.8433,-0.6822,-0.6653,-0.9451,-1.0661,-1.2078,-1.4025,-1.529,-1.4954,-1.2565,-1.3859,-1.6411,-1.8573,-1.7634,-1.6052,-1.6234,-1.7186,-1.8066,-1.8202,-1.7267,-1.5486,-1.3508,-1.2868,-1.1566,-0.9245,-0.8698,-0.7864,-0.6172,-0.6161,-0.591,-0.4751,-0.4508,-0.4428,-0.4333,-0.4511,-0.3088,-0.0,-0.0,-0.0,0.2755,0.3144,0.3254,1.6116,1.6519,1.6041,1.5794,1.5876,1.6363,1.7172,1.8069,1.6527,1.5346,1.4486,1.4008,1.3614,1.3253,1.3494,1.3467,1.322,1.3347,1.3333,1.3213,1.3206,1.328,1.3373,1.3126,1.3372,1.4009,1.3058,1.2839,1.3333,1.2668,1.2305,1.2305,1.2305,1.2305,1.2305,1.2305,1.2305,1.2305,1.2305,1.2237,1.2111,1.1814,1.1384,1.0862,1.049,1.0214,0.9927,0.9761,0.9834,1.0147,1.0483,1.0721,1.0882,1.0897,1.096,1.1156,1.08,1.0238,0.9338,0.8484,0.6914,0.4358,0.3427,0.1829,-0.0815,-0.3299,-0.5304,-0.6711,-0.5427,-0.4697,-0.5094,-0.5721,-0.6236,-0.6583,-0.5713,-0.6168,-0.8365,-0.9589,-1.0703,-1.2164,-1.4105,-1.4127,-1.0974,-1.1865,-1.3979,-1.6524,-1.5389,-1.4118,-1.3979,-1.4715,-1.5572,-1.6104,-1.578,-1.4817,-1.3145,-1.1521,-1.0241,-0.8906,-0.7495,-0.677,-0.6313,-0.6421,-0.5253,-0.4656,-0.447,-0.3758,-0.0,-0.2076,-0.1345,-0.0,-0.0,-0.0,0.2695,0.3878,0.4442,1.7415,1.7658,1.7415,1.7415,1.7674,1.775,1.8388,1.9213,1.8167,1.7113,1.6061,1.4932,1.4332,1.412,1.3874,1.3874,1.4106,1.3867,1.3874,1.4106,1.4106,1.4106,1.4092,1.4036,1.4452,1.5095,1.4117,1.404,1.4682,1.371,1.3223,1.3223,1.3007,1.2831,1.2762,1.2466,1.2291,1.2311,1.2305,1.2237,1.1962,1.1942,1.1552,1.0799,1.0725,1.064,1.0465,1.012,1.0268,1.1058,1.1048,1.1034,1.1101,1.1052,1.0967,1.0967,1.0782,1.0302,0.9402,0.8678,0.7624,0.6129,0.5589,0.482,0.3312,0.079,-0.1805,-0.3609,-0.2902,-0.2691,-0.3843,-0.4616,-0.4902,-0.5321,-0.5781,-0.6795,-0.8335,-0.9047,-0.9867,-1.1088,-1.3639,-1.4269,-1.1892,-1.082,-1.1693,-1.352,-1.3135,-1.2228,-1.1866,-1.2066,-1.2753,-1.3007,-1.3529,-1.3194,-1.2112,-1.0316,-0.9044,-0.8778,-0.6478,-0.5855,-0.6593,-0.5714,-0.4721,-0.4512,-0.4487,-0.3314,-0.0,-0.0,-0.0,-0.0,-0.0,-0.0,0.2577,0.3752,0.4428,1.7908,1.8638,1.7819,1.7908,1.8851,1.9255,1.9792,2.0303,1.9277,1.8772,1.8506,1.7454,1.6936,1.6758,1.5837,1.5904,1.6726,1.5934,1.5919,1.6726,1.692,1.692,1.6766,1.6563,1.6645,1.6674,1.6198,1.5943,1.617,1.6045,1.5961,1.5902,1.508,1.4379,1.4066,1.2955,1.2313,1.2305,1.2305,1.2324,1.2287,1.2026,1.1653,1.1055,1.11,1.1268,1.1564,1.092,1.1231,1.2573,1.2282,1.2274,1.2683,1.2302,1.2084,1.202,1.1393,1.0444,0.9438,0.9204,0.8742,0.7802,0.6367,0.5453,0.517,0.4746,0.3151,0.0401,-0.0333,-0.0,-0.0669,-0.3266,-0.4857,-0.4992,-0.6618,-0.8359,-0.9615,-0.8943,-0.9314,-1.2509,-1.4073,-1.4678,-1.2658,-1.1358,-1.0749,-1.1387,-1.0785,-0.9761,-0.8854,-0.9733,-1.0079,-0.9439,-0.994,-1.0573,-0.9621,-0.9072,-0.8389,-0.8344,-0.6396,-0.5175,-0.5093,-0.5054,-0.4385,-0.3688,-0.4107,-0.2921,-0.0,-0.0,-0.0,-0.0,-0.0,0.0839,0.3363,0.4373,0.4484,1.952,1.9923,1.9432,1.9659,2.0349,2.0746,2.1087,2.1267,2.0899,2.0533,2.0292,1.9767,1.8754,1.7334,1.6846,1.6927,1.7253,1.6846,1.6846,1.7261,1.7342,1.7342,1.7317,1.7185,1.7502,1.8031,1.7191,1.7013,1.7371,1.6784,1.6371,1.6295,1.5327,1.4637,1.4328,1.2996,1.23,1.2344,1.3426,1.3992,1.3866,1.2769,1.2209,1.2384,1.2395,1.2269,1.2123,1.2261,1.2775,1.3252,1.2923,1.3019,1.3763,1.3745,1.3362,1.263,1.1773,1.0989,1.0373,1.0288,0.9882,0.8823,0.8576,0.7852,0.6256,0.5679,0.4683,0.3343,0.1254,-0.0,-0.0,-0.0,-0.2176,-0.2664,-0.5568,-0.8624,-1.0309,-0.9863,-1.0421,-1.2583,-1.2704,-1.2411,-1.1665,-1.1009,-1.0622,-1.0385,-0.9581,-0.8214,-0.7242,-0.7913,-0.8012,-0.7475,-0.7852,-0.844,-0.8472,-0.7197,-0.6543,-0.6086,-0.5374,-0.4542,-0.4343,-0.4473,-0.4033,-0.2294,-0.1903,-0.1513,-0.0393,-0.0,-0.0,-0.0,-0.0,0.089,0.3919,0.4477,0.4477,2.0742,2.0791,2.0996,2.1221,2.1445,2.1875,2.1992,2.1875,2.1873,2.1706,2.1396,2.1382,2.041,1.8687,1.801,1.7959,1.8279,1.7853,1.7861,1.8279,1.8282,1.823,1.8221,1.823,1.863,1.9149,1.8406,1.8351,1.8874,1.8073,1.7523,1.7371,1.6456,1.5782,1.5217,1.3582,1.2695,1.3237,1.4937,1.6036,1.5959,1.416,1.3301,1.3638,1.3585,1.3369,1.3138,1.3863,1.4328,1.4467,1.3954,1.4072,1.485,1.4801,1.4063,1.2772,1.1957,1.1383,1.1029,1.0995,1.0536,0.9514,1.0129,0.9485,0.7186,0.5862,0.5415,0.5163,0.2962,-0.0,-0.0,-0.0,-0.0,-0.0,-0.4806,-0.8608,-1.0316,-1.0498,-1.1058,-1.2569,-1.1759,-1.0602,-1.0588,-1.062,-1.0568,-1.0437,-0.8701,-0.7133,-0.652,-0.6653,-0.6769,-0.6119,-0.6023,-0.646,-0.7258,-0.6145,-0.4522,-0.3364,-0.3044,-0.2998,-0.3471,-0.3708,-0.2579,-0.0168,0.0671,-0.0,-0.0,-0.0,-0.0,-0.0,0.1336,0.1832,0.4024,0.4411,0.4636,2.1211,2.1318,2.208,2.2158,2.1894,2.2314,2.2266,2.1982,2.1914,2.1875,2.1826,2.1826,2.1816,2.1332,1.9712,1.9682,2.0604,1.9163,1.9279,2.0684,2.0507,2.0401,2.0479,2.0479,2.0411,2.0411,2.0197,2.0246,2.042,2.0333,2.043,2.0246,1.9067,1.8333,1.7278,1.4698,1.3812,1.4975,1.675,1.8024,1.8299,1.6297,1.492,1.4753,1.4372,1.4538,1.5154,1.5373,1.5734,1.651,1.5753,1.5707,1.6322,1.5225,1.3708,1.2269,1.1921,1.1603,1.1122,1.1029,1.0562,0.9602,0.9968,0.9456,0.699,0.587,0.5425,0.5376,0.4894,0.3347,-0.0,-0.0,-0.0,-0.0,-0.4841,-0.8441,-1.0283,-1.0375,-1.1293,-1.2298,-1.1487,-1.0664,-1.0584,-1.0618,-1.0601,-0.9977,-0.7699,-0.5594,-0.5658,-0.5994,-0.5727,-0.496,-0.4615,-0.4646,-0.4721,-0.4094,-0.2824,-0.1662,-0.0887,-0.0445,-0.1283,-0.1566,0.0279,0.1902,0.2916,-0.0,-0.0,-0.0,-0.0,0.2565,0.3405,0.4249,0.4359,0.4467,0.4798,2.166,2.1709,2.2266,2.2422,2.2344,2.2734,2.2822,2.2695,2.2685,2.2373,2.1982,2.2173,2.184,2.1055,2.0895,2.1159,2.152,2.068,2.0665,2.1182,2.0762,2.0576,2.0576,2.0576,2.0576,2.0576,2.0576,2.0576,2.0576,2.0576,2.0576,2.0411,1.952,1.8756,1.802,1.6405,1.5729,1.6334,1.7484,1.8315,1.8769,1.7628,1.6936,1.6797,1.6118,1.5727,1.5764,1.6374,1.6871,1.7148,1.6775,1.6553,1.6471,1.496,1.3772,1.3071,1.2501,1.1971,1.1603,1.1369,1.0808,0.967,0.9162,0.8371,0.6915,0.592,0.5397,0.5233,0.4228,0.3284,0.2751,-0.0536,-0.3426,-0.3816,-0.5741,-0.7811,-0.8727,-0.9274,-0.9977,-1.1009,-1.0884,-1.0647,-1.0598,-1.0618,-1.0608,-1.0271,-0.7395,-0.5559,-0.5301,-0.5419,-0.4765,-0.3653,-0.3826,-0.4495,-0.449,-0.2674,-0.1001,0.0056,0.0835,0.0947,0.0446,0.0502,0.1955,0.2965,0.433,-0.0,-0.0,-0.0,0.3403,0.363,0.4477,0.4529,0.4467,0.5073,0.5458,2.1973,2.2148,2.2539,2.2715,2.2754,2.3008,2.2969,2.2949,2.2891,2.25,2.2075,2.2197,2.1824,2.1232,2.1621,2.1894,2.1846,2.1656,2.146,2.1201,2.0771,2.0576,2.0576,2.0576,2.0576,2.0576,2.0576,2.0576,2.0576,2.0576,2.0576,2.0566,1.9844,1.9316,1.885,1.8297,1.7974,1.8073,1.8266,1.864,1.8889,1.8348,1.7968,1.7881,1.7354,1.694,1.6594,1.7226,1.7578,1.7521,1.7207,1.656,1.5615,1.445,1.3528,1.3244,1.2659,1.2178,1.1884,1.1597,1.0889,0.9801,0.8657,0.7603,0.678,0.592,0.5474,0.51,0.4436,0.4172,0.3632,-0.1072,-0.5333,-0.5449,-0.6098,-0.6946,-0.7877,-0.8517,-0.9367,-1.036,-1.0651,-1.0561,-1.0561,-1.0588,-1.0597,-1.0581,-0.7413,-0.5276,-0.5026,-0.4491,-0.3501,-0.2104,-0.3336,-0.4216,-0.4023,-0.232,-0.0727,0.0391,0.2289,0.2402,0.2345,0.2625,0.3072,0.4092,0.449,0.4487,0.448,0.4525,0.4467,0.4467,0.4581,0.4632,0.5132,0.5909,0.6232,2.2148,2.2539,2.2949,2.3066,2.3076,2.3076,2.2881,2.2578,2.2497,2.2242,2.1807,2.1925,2.1814,2.1811,2.1787,2.1875,2.1791,2.1798,2.1569,2.1201,2.0771,2.0576,2.0576,2.0576,2.0576,2.0576,2.0576,2.0576,2.0576,2.0576,2.0576,2.0576,2.0566,2.0217,1.9856,1.998,2.0131,1.9739,1.936,1.9228,1.9209,1.8437,1.8023,1.7979,1.793,1.7852,1.7901,1.7901,1.7804,1.7755,1.7033,1.5703,1.4235,1.3665,1.3237,1.2592,1.2291,1.2144,1.1877,1.157,1.0844,0.9734,0.8685,0.7842,0.6662,0.5822,0.5379,0.5326,0.5269,0.5205,0.3632,-0.1003,-0.5049,-0.5389,-0.5672,-0.6441,-0.7692,-0.8468,-0.9238,-1.0174,-1.0428,-1.0555,-1.0575,-1.0564,-1.0431,-0.9421,-0.739,-0.5206,-0.4817,-0.3961,-0.2213,-0.1171,-0.1941,-0.3251,-0.2826,-0.2126,-0.0849,0.056,0.2745,0.3931,0.3749,0.386,0.4076,0.4868,0.457,0.4622,0.5066,0.4999,0.4546,0.4491,0.4611,0.5011,0.5786,0.6564,0.6993,2.2568,2.2891,2.2764,2.2881,2.3076,2.2832,2.2617,2.2471,2.2178,2.1807,2.1523,2.1762,2.1585,2.1221,2.1582,2.1553,2.1025,2.1341,2.145,2.1152,2.0762,2.0576,2.0576,2.0576,2.0576,2.0576,2.0576,2.0576,2.0576,2.0576,2.0576,2.0576,2.0576,2.0508,2.0342,2.0269,2.0144,2.0254,1.9461,1.9093,1.9165,1.8475,1.7992,1.7979,1.8008,1.8008,1.8008,1.7364,1.707,1.707,1.6149,1.5021,1.3882,1.3098,1.2659,1.2352,1.2104,1.1977,1.1837,1.141,1.0489,0.9359,0.9354,0.838,0.623,0.5505,0.5319,0.5336,0.5272,0.377,-0.0871,-0.1404,-0.308,-0.5147,-0.6059,-0.6985,-0.7837,-0.8195,-0.8382,-0.886,-0.9843,-1.0518,-1.0571,-1.056,-0.9731,-0.7598,-0.6141,-0.53,-0.491,-0.4268,-0.2804,-0.0868,-0.1672,-0.0,-0.1395,-0.0472,0.0865,0.1816,0.3444,0.4497,0.4484,0.4532,0.4864,0.5179,0.4878,0.498,0.542,0.5584,0.5245,0.4848,0.4965,0.5584,0.6431,0.7095,0.7687,2.2617,2.3057,2.2519,2.2529,2.2852,2.2451,2.2178,2.2021,2.1768,2.1396,2.1113,2.126,2.1103,2.084,2.1162,2.1084,2.0635,2.0977,2.1085,2.0957,2.0723,2.0576,2.0576,2.0576,2.0576,2.0576,2.0576,2.0576,2.0576,2.0576,2.0576,2.0576,2.0576,2.0566,2.0557,2.0312,2.0264,2.0244,1.9805,1.9375,1.8971,1.8399,1.7992,1.793,1.7647,1.7285,1.6941,1.6,1.586,1.621,1.5376,1.4171,1.3237,1.2592,1.2258,1.2124,1.1984,1.183,1.1677,1.1269,1.0447,0.9348,0.9354,0.8647,0.623,0.4891,0.3756,0.5132,0.2686,-0.0539,-0.4233,-0.3818,-0.3671,-0.6308,-0.7731,-0.8281,-0.8477,-0.8711,-0.9005,-0.9151,-0.8843,-0.9338,-1.0219,-1.0503,-0.9162,-0.6335,-0.5434,-0.4452,-0.4218,-0.4243,-0.2629,-0.0,-0.0,-0.0,-0.0,0.1156,0.2653,0.3415,0.4223,0.4511,0.4473,0.4525,0.4743,0.5386,0.5471,0.5738,0.6126,0.6686,0.6676,0.6161,0.5824,0.681,0.7848,0.8062,0.8527,2.2324,2.293,2.2187,2.209,2.2402,2.2021,2.166,2.1309,2.1211,2.0977,2.0664,2.0684,2.0625,2.0576,2.0693,2.0654,2.0576,2.0683,2.0722,2.0635,2.0576,2.0576,2.0576,2.0576,2.0576,2.0576,2.0576,2.0576,2.0576,2.0576,2.0576,2.0576,2.0576,2.0576,2.0557,2.0557,2.0332,2.0095,2.0216,1.9708,1.8669,1.8193,1.7992,1.7959,1.7285,1.6576,1.5939,1.5021,1.4942,1.586,1.4593,1.3455,1.2519,1.2298,1.2184,1.1971,1.1884,1.169,1.1443,1.0916,1.0324,0.9369,0.8619,0.7717,0.6494,0.3203,0.174,0.384,-0.0335,-0.4572,-0.5583,-0.5676,-0.6487,-0.8629,-0.9604,-0.9655,-0.9064,-0.9729,-1.0083,-0.9602,-0.7723,-0.6517,-0.945,-0.9813,-0.8144,-0.5731,-0.4518,-0.3077,-0.201,-0.2207,-0.2756,-0.0,-0.0,-0.0,-0.0,0.2572,0.3912,0.3873,0.4441,0.4394,0.4482,0.4518,0.4912,0.555,0.6421,0.6632,0.6934,0.754,0.7937,0.7759,0.7961,0.8704,0.8944,0.9106,0.9228,2.1719,2.2129,2.1631,2.165,2.1953,2.1582,2.1348,2.1191,2.0879,2.0703,2.0576,2.0576,2.0576,2.0576,2.0576,2.0576,2.0576,2.0576,2.0576,2.0576,2.0576,2.0576,2.0576,2.0576,2.0576,2.0576,2.0576,2.0576,2.0576,2.0576,2.0576,2.0576,2.0537,2.0557,2.0576,2.0537,2.0332,1.9885,1.9694,1.937,1.8679,1.8245,1.7983,1.7979,1.7716,1.7442,1.7148,1.6358,1.4871,1.3513,1.3738,1.3237,1.2452,1.2305,1.2245,1.2118,1.1777,1.1454,1.122,1.0369,0.9397,0.8581,0.8239,0.7363,0.5852,0.2271,-0.0,-0.0,-0.0741,-0.2795,-0.5174,-0.6066,-0.7694,-1.0509,-1.0378,-0.9553,-0.9063,-0.9795,-1.017,-0.8734,-0.6746,-0.6286,-0.6318,-0.6552,-0.5474,-0.271,-0.0,-0.0,-0.0,-0.0,-0.0,-0.0,-0.0,-0.0,-0.0,-0.0,0.4769,0.4364,0.4396,0.4264,0.4358,0.4464,0.5173,0.6028,0.7492,0.8051,0.8156,0.8475,0.8771,0.9061,0.9295,0.951,0.9688,0.9877,0.9936,2.166,2.1826,2.1221,2.1201,2.1533,2.1143,2.0947,2.0908,2.0684,2.0576,2.0576,2.0576,2.0576,2.0576,2.0576,2.0576,2.0576,2.0576,2.0576,2.0576,2.0576,2.0576,2.0576,2.0576,2.0576,2.0576,2.0576,2.0576,2.0576,2.0576,2.0576,2.0518,2.0381,2.0283,2.0148,2.0078,1.9814,1.9434,1.918,1.886,1.8348,1.8112,1.8006,1.7891,1.7647,1.7285,1.6784,1.6035,1.4672,1.3368,1.3382,1.331,1.2445,1.2305,1.2251,1.2131,1.1784,1.1385,1.0683,0.9844,0.8859,0.7867,0.7756,0.7052,0.5243,-0.0,-0.0,-0.0,-0.0,-0.2354,-0.4252,-0.5894,-0.7594,-0.903,-0.9249,-0.8579,-0.7683,-0.8654,-0.8918,-0.7915,-0.6539,-0.4644,-0.3458,-0.3129,-0.2116,-0.0,-0.0,-0.0,-0.0,-0.0,-0.0,-0.0,-0.0,-0.0,-0.0,-0.0,-0.0,0.3407,0.3068,0.3171,0.3721,0.394,0.5193,0.63,0.8129,0.9295,0.9143,0.9228,0.9717,0.9974,1.0117,1.0545,1.0897,1.0864,1.0873,2.1787,2.167,2.0898,2.0801,2.1074,2.0742,2.0615,2.0586,2.0576,2.0576,2.0576,2.0576,2.0576,2.0576,2.0576,2.0576,2.0576,2.0576,2.0576,2.0576,2.0576,2.0576,2.0576,2.0576,2.0576,2.0576,2.0576,2.0576,2.0576,2.0576,2.0576,2.0508,2.0205,1.9781,1.9553,1.9338,1.9039,1.8818,1.8889,1.8664,1.8184,1.7998,1.7979,1.7891,1.7432,1.6715,1.6062,1.53,1.464,1.4027,1.3875,1.3288,1.2512,1.2305,1.2278,1.1977,1.183,1.1197,1.0091,0.9612,0.8716,0.7329,0.74,0.6933,0.477,-0.0,-0.0,-0.0,-0.0,-0.3502,-0.4089,-0.5954,-0.6904,-0.7254,-0.743,-0.7114,-0.6474,-0.6994,-0.7792,-0.7513,-0.6058,-0.3282,-0.0802,0.0466,-0.0,-0.0,-0.0,-0.0,-0.0,-0.0,-0.0,-0.0,-0.0,-0.0,-0.0,-0.0,-0.0,0.182,0.1236,0.1345,0.2269,0.3024,0.4637,0.6155,0.7795,0.8993,0.9503,0.9821,1.0616,1.1273,1.1644,1.2212,1.271,1.2236,1.2055,2.1162,2.083,2.0722,2.0625,2.0684,2.0605,2.0576,2.0576,2.0566,2.0527,2.0557,2.0557,2.0547,2.0557,2.0547,2.0576,2.0576,2.0576,2.0576,2.0576,2.0576,2.0576,2.0576,2.0576,2.0576,2.0576,2.0576,2.0576,2.0576,2.0576,2.0576,2.0537,2.0371,1.9726,1.862,1.8816,1.8893,1.8689,1.8803,1.8586,1.8105,1.8008,1.8008,1.8008,1.7784,1.7647,1.7442,1.7267,1.6835,1.5904,1.4869,1.3807,1.2792,1.3025,1.2896,1.2163,1.1686,1.1077,1.0184,0.9029,0.7966,0.6987,0.6301,0.5173,0.3418,0.1406,-0.0,-0.0,-0.3332,-0.4795,-0.5216,-0.5967,-0.6412,-0.6382,-0.6303,-0.6212,-0.615,-0.6384,-0.6596,-0.5602,-0.3278,0.0134,0.348,0.3346,-0.0,-0.0,-0.0,-0.0,0.2767,0.4088,0.3271,0.2433,-0.0,-0.0,-0.0,-0.0,-0.0,0.2894,0.2104,0.1573,0.2516,0.3124,0.5047,0.6366,0.7421,0.8438,0.9519,1.1195,1.2142,1.2662,1.316,1.344,1.3566,1.3311,1.3283,2.0977,2.0576,2.0576,2.0576,2.0576,2.0576,2.0576,2.0518,2.0342,2.0264,2.0264,2.0264,2.0254,2.0293,2.0469,2.0576,2.0576,2.0576,2.0576,2.0576,2.0576,2.0576,2.0576,2.0576,2.0576,2.0576,2.0576,2.0576,2.0576,2.0557,2.0576,2.0527,2.0361,1.9591,1.8545,1.8479,1.839,1.8368,1.8438,1.8321,1.8047,1.8008,1.8008,1.8008,1.8008,1.8008,1.794,1.794,1.7432,1.6766,1.6157,1.5018,1.3361,1.3375,1.2954,1.1748,1.1209,1.0249,0.9092,0.8137,0.7185,0.6398,0.5734,0.4998,0.3493,0.1611,-0.0,-0.0,-0.1914,-0.3559,-0.4635,-0.4784,-0.5046,-0.5711,-0.4365,-0.2801,-0.182,-0.3855,-0.6029,-0.4916,-0.2381,0.0985,0.3461,0.4467,-0.0,-0.0,-0.0,0.3445,0.6674,0.75,0.5957,0.4751,0.3215,-0.0,-0.0,-0.0,-0.0,0.5213,0.4992,0.4769,0.512,0.5528,0.5927,0.7026,0.8133,0.8655,0.9799,1.1589,1.3433,1.4482,1.4875,1.4691,1.4617,1.4853,1.4738,2.0977,2.0557,2.0488,2.0459,2.0459,2.0371,2.0322,2.0283,1.9954,1.9856,1.9912,1.9902,2.0,2.0107,2.041,2.0557,2.0576,2.0576,2.0576,2.0576,2.0576,2.0576,2.0557,2.0469,2.0478,2.0547,2.0576,2.0557,2.0449,2.0449,2.0409,2.0389,2.0127,1.9568,1.8937,1.8309,1.8123,1.8212,1.8144,1.8066,1.8018,1.8008,1.8008,1.8008,1.8008,1.8008,1.8008,1.794,1.7647,1.6932,1.7335,1.6201,1.4736,1.3795,1.2869,1.0881,1.0641,0.9575,0.8131,0.7229,0.6687,0.5728,0.5125,0.5202,0.4451,-0.0,-0.0,-0.0,-0.0,-0.1194,-0.2439,-0.2625,-0.3479,-0.3722,-0.1189,0.2693,0.3991,-0.0288,-0.2727,-0.2772,-0.0132,0.2887,0.395,0.4728,0.4735,0.4779,0.477,0.5783,0.8899,1.0207,0.8348,0.6604,0.4967,0.3861,0.4022,0.4378,0.5932,0.7175,0.7236,0.7306,0.755,0.8712,0.8969,0.8254,0.8898,0.9326,1.0122,1.168,1.3632,1.5692,1.6325,1.5706,1.5911,1.6445,1.6083,2.0967,2.0537,2.0176,2.0019,1.9971,1.9668,1.957,1.9531,1.9509,1.9616,1.9873,1.9919,2.0124,2.0352,2.0498,2.0566,2.0576,2.0576,2.0576,2.0576,2.0566,2.0566,2.0449,2.0225,2.0225,2.0488,2.0498,2.0312,2.0156,2.001,2.0017,1.9969,2.0173,1.9856,1.8947,1.8316,1.8195,1.83,1.8144,1.8018,1.8008,1.8008,1.8008,1.8008,1.8008,1.8008,1.8008,1.8008,1.793,1.7696,1.6432,1.5521,1.4727,1.4625,1.3236,1.115,1.006,0.8996,0.746,0.6903,0.6443,0.5518,0.4433,0.4108,0.3974,-0.0,-0.0,-0.0,-0.0,-0.0,-0.0425,-0.0642,-0.0579,0.037,0.408,0.8447,0.847,0.594,0.2739,0.2589,0.376,0.4525,0.5485,0.5821,0.5525,0.5711,0.5791,0.725,1.0127,1.0838,0.9916,0.8234,0.6539,0.5687,0.5168,0.5492,0.6392,0.8312,0.882,0.8843,0.9694,1.1824,1.2312,1.1212,1.0103,0.9858,1.085,1.1969,1.4116,1.6502,1.6657,1.652,1.6764,1.6954,1.6767,2.042,2.0215,2.0,2.0049,2.0146,1.9795,1.9609,1.957,1.9394,1.9404,1.958,1.9801,2.0007,2.0225,2.0498,2.0566,2.0576,2.0576,2.0576,2.0576,2.0566,2.042,2.0273,1.999,1.9883,1.9912,1.9893,2.0078,2.0166,1.9766,1.9683,1.9826,1.994,1.9478,1.8961,1.8734,1.845,1.8369,1.8125,1.8008,1.8008,1.8008,1.8008,1.8008,1.8008,1.8008,1.8008,1.8008,1.7716,1.7101,1.5973,1.4751,1.3948,1.3275,1.2451,1.0217,0.9076,0.8031,0.6784,0.6215,0.5918,0.5707,0.4574,0.3433,0.2624,-0.0,-0.0,-0.0,0.2677,0.3275,0.3299,0.1441,0.1182,0.3693,0.8194,1.1225,1.1604,0.9576,0.8164,0.7223,0.7654,0.7843,0.7933,0.7762,0.6699,0.6557,0.6904,0.901,1.1707,1.1919,1.1768,1.0104,0.8889,0.9612,0.8823,0.857,0.8914,1.041,1.0635,1.0619,1.1407,1.3477,1.4073,1.3607,1.2542,1.1483,1.0952,1.1954,1.4597,1.6905,1.6979,1.6999,1.7238,1.7351,1.7294,2.0039,2.0039,1.9951,2.0117,2.0322,1.9873,1.9629,1.9541,1.9258,1.9219,1.9307,1.9625,1.984,1.9971,2.0244,2.0459,2.0547,2.0576,2.0576,2.0576,2.0566,2.0342,2.001,1.9775,1.9648,1.9434,1.9082,1.9434,1.9736,1.9434,1.9355,1.9258,1.9141,1.9066,1.8932,1.8852,1.8626,1.8537,1.8027,1.8008,1.8008,1.8008,1.8008,1.8008,1.8008,1.8008,1.8008,1.7998,1.7539,1.654,1.527,1.3862,1.231,1.1622,1.0604,0.8939,0.7701,0.6712,0.5949,0.5593,0.5554,0.5603,0.546,0.3442,-0.0,-0.0,-0.0,0.1633,0.3737,0.6224,0.5937,0.3569,0.3323,0.5802,0.9733,1.3129,1.3855,1.2901,1.088,1.0434,1.0947,1.0794,1.0424,0.9816,0.8872,1.0321,1.074,1.1768,1.4051,1.4305,1.3862,1.219,1.1745,1.3399,1.339,1.27,1.3235,1.4337,1.3568,1.2735,1.3611,1.4883,1.5366,1.6179,1.5277,1.425,1.3091,1.2145,1.4191,1.5908,1.683,1.748,1.772,1.8064,1.8221,2.0498,2.0449,2.0078,1.9951,1.9883,1.9209,1.8828,1.8799,1.8844,1.8953,1.9287,1.9429,1.9664,1.9873,1.9961,2.0225,2.0469,2.0576,2.0576,2.0576,2.0508,2.0264,1.9873,1.9512,1.9316,1.9043,1.8516,1.8457,1.8848,1.8818,1.8584,1.8416,1.8492,1.8555,1.9162,1.8994,1.8725,1.9267,1.8506,1.8008,1.8008,1.8008,1.8008,1.8008,1.8008,1.8008,1.8027,1.7978,1.7505,1.6341,1.3938,1.2632,1.1939,1.0184,0.8872,0.7906,0.724,0.6615,0.5738,0.547,0.5376,0.5511,0.5406,0.3431,-0.0,-0.0,0.1366,0.5401,0.6161,0.6915,0.7728,0.6674,0.6204,0.7873,1.1217,1.4697,1.6386,1.5659,1.3669,1.3119,1.3445,1.2818,1.2248,1.1653,1.1278,1.3041,1.4636,1.5661,1.6195,1.6359,1.5874,1.4218,1.3965,1.5498,1.6967,1.6433,1.6497,1.7685,1.693,1.5472,1.6172,1.7302,1.8508,1.8871,1.7823,1.6394,1.4735,1.4141,1.4455,1.5711,1.7653,1.8126,1.81,1.8533,1.899,1.998,2.0176,1.999,1.9912,1.9863,1.9492,1.9219,1.9088,1.9251,1.9333,1.9364,1.9565,1.9728,1.9814,1.9912,2.0156,2.0498,2.0566,2.0576,2.0488,2.0332,1.999,1.9541,1.9121,1.8848,1.8545,1.8252,1.8154,1.8262,1.8311,1.8242,1.829,1.8114,1.8163,1.9076,1.9318,1.9109,1.8831,1.83,1.8018,1.8008,1.8008,1.8008,1.8008,1.8008,1.8008,1.7979,1.7967,1.7176,1.5553,1.259,1.0532,1.0045,0.8836,0.754,0.6433,0.6215,0.5873,0.5552,0.5473,0.5382,0.5379,0.5179,0.3758,-0.0,-0.0,0.1864,0.5849,0.6251,0.7025,0.8212,0.8189,0.8096,0.9432,1.2175,1.4999,1.7255,1.7405,1.6583,1.6243,1.5933,1.5619,1.5644,1.6103,1.5816,1.6226,1.7639,1.869,1.8669,1.8258,1.7487,1.6155,1.6443,1.7344,1.8953,1.9574,1.886,1.9711,2.0676,1.9538,1.9255,2.0083,2.079,2.0692,1.9563,1.8027,1.6376,1.5682,1.5516,1.7076,1.8918,1.8747,1.8645,1.9053,1.931,1.9473,1.9756,1.9766,1.9756,1.9746,1.9648,1.9463,1.9321,1.9596,1.9555,1.9436,1.9574,1.9703,1.9639,1.9785,2.0088,2.0371,2.0498,2.0557,2.0439,2.0205,1.9824,1.9414,1.8945,1.8574,1.8008,1.8066,1.8231,1.8357,1.8377,1.8468,1.8457,1.8095,1.8251,1.8572,1.9005,1.9056,1.8213,1.7968,1.7881,1.7969,1.7978,1.8017,1.7978,1.8008,1.8008,1.8037,1.7975,1.7119,1.4988,1.2335,1.0417,0.9597,0.8886,0.785,0.6823,0.6289,0.6007,0.5836,0.5681,0.5446,0.5376,0.5176,0.4095,-0.0,0.1029,0.2177,0.598,0.6136,0.6584,0.731,0.8314,0.9227,1.0333,1.2409,1.5105,1.7186,1.713,1.7838,1.829,1.8412,1.9572,1.9866,2.0888,2.0834,2.0044,2.0624,2.1661,2.134,2.0674,1.9413,1.8324,1.8108,1.8703,1.9617,2.0779,2.0758,2.1342,2.2307,2.2543,2.1578,2.1599,2.2133,2.1694,2.0931,2.0486,1.9414,1.7891,1.6591,1.7942,1.9006,1.9123,1.9196,1.9559,1.9467,1.9297,1.9326,1.9326,1.9316,1.9307,1.8896,1.8965,1.9238,1.936,1.9365,1.9242,1.933,1.9144,1.9072,1.959,1.9941,2.0,2.0381,2.0469,2.0508,2.0439,1.9873,1.9404,1.9043,1.8721,1.8115,1.8008,1.8462,1.8977,1.8977,1.8617,1.8154,1.8035,1.8546,1.866,1.8506,1.8405,1.7832,1.7666,1.7628,1.7812,1.7947,1.7984,1.8037,1.8008,1.8008,1.8027,1.7884,1.7051,1.5171,1.2715,1.1126,1.0128,0.9493,0.8551,0.7725,0.6924,0.67,0.6564,0.5914,0.5442,0.5376,0.5179,0.4637,0.2815,0.4102,0.5323,0.5735,0.5985,0.6162,0.6826,0.7658,0.9013,1.0852,1.2124,1.3565,1.5453,1.6511,1.7442,1.9372,2.061,2.132,2.2553,2.3223,2.2393,2.1479,2.3608,2.4716,2.4097,2.3295,2.1824,2.0679,1.9838,1.9799,1.9826,2.0481,2.1287,2.197,2.2736,2.2965,2.2737,2.2996,2.2911,2.2714,2.2031,2.2266,2.2185,2.0275,1.8994,1.8884,1.9092,1.9212,1.9223,1.9358,1.9203,1.8506,1.8496,1.8496,1.8652,1.8906,1.8994,1.8984,1.8903,1.9184,1.9136,1.8914,1.886,1.8955,1.917,1.9561,1.9912,1.9932,2.0059,2.0156,1.9941,1.9648,1.9375,1.9053,1.8779,1.8291,1.8057,1.8008,1.8462,1.9177,1.9323,1.9617,1.9215,1.8273,1.8137,1.8247,1.7881,1.7488,1.7559,1.7424,1.7406,1.7254,1.7803,1.8026,1.7978,1.8008,1.8008,1.7901,1.7223,1.6237,1.4848,1.2611,1.1357,1.0569,0.9885,0.9151,0.8576,0.788,0.7647,0.7242,0.6338,0.5428,0.5432,0.5376,0.5043,0.4164,0.5045,0.548,0.5684,0.5783,0.5971,0.6401,0.6915,0.791,1.0237,1.1631,1.2381,1.3561,1.4774,1.6817,1.8708,2.0762,2.2335,2.3735,2.5145,2.3863,2.287,2.5501,2.7299,2.636,2.5575,2.4083,2.3053,2.23,2.2011,2.2061,2.2166,2.2221,2.2578,2.3114,2.3234,2.3267,2.3065,2.3055,2.2965,2.2908,2.2777,2.2459,2.1847,2.1134,2.0385,1.9714,1.9266,1.923,1.9257,1.8945,1.8008,1.8008,1.8008,1.8184,1.8477,1.8779,1.8818,1.8679,1.8967,1.8922,1.8596,1.8635,1.8789,1.917,1.9678,1.9785,1.9775,1.9844,1.9814,1.96,1.9277,1.8984,1.8828,1.8594,1.8262,1.8066,1.8066,1.8462,1.9299,1.9359,1.9898,1.975,1.8781,1.8342,1.8089,1.74,1.6894,1.7109,1.6996,1.7229,1.7149,1.7378,1.7273,1.7271,1.7239,1.7501,1.7282,1.6695,1.5979,1.4633,1.2933,1.1297,1.0629,1.0096,0.949,0.9181,0.8952,0.8726,0.8329,0.7307,0.6141,0.5947,0.5477,0.5422,0.5399,0.5416,0.5463,0.5617,0.5704,0.5906,0.6273,0.6493,0.6873,0.8724,0.9031,0.9772,1.1585,1.2983,1.5583,1.7986,1.9846,2.1428,2.4021,2.5339,2.5824,2.4892,2.6067,2.756,2.7205,2.6564,2.6031,2.5278,2.4788,2.464,2.46,2.4609,2.4379,2.2698,2.318,2.3456,2.3479,2.3339,2.3352,2.3526,2.3425,2.3077,2.276,2.2445,2.1952,2.1394,2.0486,1.9448,1.9449,1.9369,1.8788,1.8008,1.8008,1.8008,1.8027,1.8066,1.8047,1.8271,1.8555,1.8582,1.8592,1.8584,1.8662,1.8701,1.8945,1.96,1.9697,1.9473,1.9658,1.9658,1.9355,1.9053,1.8926,1.876,1.8506,1.8232,1.8066,1.7997,1.8352,1.9225,1.9445,2.0081,2.0294,1.9279,1.8273,1.8438,1.7339,1.6728,1.668,1.6357,1.6894,1.7496,1.7317,1.6665,1.6514,1.6414,1.6674,1.7038,1.682,1.6156,1.5188,1.365,1.2435,1.2145,1.1659,1.1228,1.1042,1.0681,1.0508,1.0355,0.8843,0.7882,0.6833,0.6233,0.5581,0.5481,0.5533,0.5525,0.5662,0.587,0.6051,0.6084,0.6143,0.6589,0.6939,0.7351,0.8351,1.0228,1.226,1.4988,1.6428,1.7697,1.9422,2.2724,2.5313,2.682,2.7205,2.746,2.7614,2.758,2.7338,2.6876,2.6677,2.6208,2.6247,2.6192,2.685,2.6381,2.4404,2.3579,2.4239,2.4086,2.3793,2.3897,2.4008,2.3425,2.2713,2.2893,2.3125,2.2734,2.2192,2.0571,1.9664,1.9692,1.9391,1.8698,1.8008,1.8008,1.8008,1.8008,1.8008,1.8008,1.8105,1.8203,1.8242,1.8369,1.8672,1.8906,1.9062,1.9268,1.9531,1.9687,1.9355,1.8984,1.8975,1.9219,1.8769,1.8633,1.8506,1.8359,1.8154,1.7959,1.786,1.8091,1.8805,1.9219,1.9847,2.0041,1.9492,1.8233,1.6904,1.5978,1.5967,1.6302,1.6343,1.6683,1.7752,1.7313,1.6946,1.6844,1.6242,1.6273,1.7189,1.7021,1.6625,1.5965,1.4514,1.4007,1.3714,1.3355,1.3032,1.2852,1.2561,1.2197,1.212,1.1363,1.0405,0.8717,0.6901,0.6387,0.6837,0.7116,0.6585,0.6135,0.6919,0.7469,0.8093,0.6584,0.6522,0.6884,0.7385,0.8513,1.0177,1.2405,1.4514,1.488,1.5747,1.9165,2.2492,2.5075,2.675,2.7771,2.7901,2.7775,2.7709,2.761,2.7309,2.7375,2.719,2.7345,2.759,2.7593,2.7573,2.6136,2.5564,2.5938,2.5515,2.4478,2.4071,2.4055,2.3134,2.2268,2.2245,2.2401,2.324,2.284,2.0927,1.967,1.9464,1.9037,1.8405,1.8008,1.8008,1.8008,1.8008,1.8008,1.8008,1.8008,1.8008,1.8115,1.8282,1.8516,1.9,1.9273,1.9424,1.9658,1.9678,1.9287,1.9043,1.8584,1.8848,1.833,1.8252,1.8242,1.8154,1.7949,1.7793,1.7752,1.7849,1.7953,1.8664,1.9262,1.9545,1.944,1.8226,1.6779,1.6273,1.5879,1.6049,1.59,1.6105,1.6753,1.6894,1.7154,1.7139,1.6728,1.6043,1.6899,1.7144,1.6982,1.6394,1.586,1.5168,1.4927,1.4562,1.4049,1.376,1.3941,1.3863,1.4109,1.42,1.3331,1.2435,0.908,0.7958,0.8815,0.9448,0.8257,0.7885,0.8538,1.0393,1.1294,0.9339,0.7721,0.818,0.9827,1.1028,1.2216,1.4536,1.3621,1.3938,1.4824,1.8476,2.2299,2.453,2.6707,2.7462,2.8147,2.7916,2.7715,2.7695,2.7595,2.7595,2.7595,2.758,2.759,2.7593,2.7573,2.7565,2.6915,2.6136,2.6004,2.4874,2.446,2.3794,2.2592,2.1593,2.1251,2.1491,2.1914,2.1773,2.0696,1.9771,1.9317,1.8858,1.8366,1.8008,1.8008,1.8008,1.8008,1.8008,1.8008,1.8008,1.8018,1.8378,1.832,1.8135,1.8933,1.9199,1.9326,1.9658,1.9561,1.9199,1.9121,1.875,1.833,1.8105,1.8096,1.8066,1.8018,1.7937,1.7723,1.7556,1.7337,1.7001,1.8012,1.8669,1.8993,1.9143,1.8344,1.7589,1.6866,1.6228,1.576,1.5615,1.5732,1.5945,1.6072,1.6728,1.7048,1.6921,1.6486,1.6638,1.6437,1.6455,1.6228,1.5939,1.5306,1.4805,1.443,1.4007,1.4113,1.4974,1.5547,1.6222,1.6259,1.6712,1.5881,1.3304,1.1598,1.1301,1.2305,1.1609,1.0536,1.0784,1.4006,1.6018,1.3097,1.0341,1.1905,1.3807,1.4935,1.5855,1.5733,1.3814,1.3527,1.4137,1.7116,2.1835,2.4596,2.5889,2.712,2.7634,2.7195,2.7214,2.7834,2.775,2.7595,2.758,2.7615,2.7575,2.7569,2.759,2.7614,2.5532,2.4614,2.4775,2.4861,2.4001,2.3001,2.1805,2.0974,2.063,2.0325,2.0146,1.9881,1.972,1.9181,1.8536,1.8999,1.8664,1.8008,1.8008,1.8008,1.8008,1.8008,1.8008,1.8008,1.8018,1.8115,1.8242,1.8486,1.8699,1.8883,1.8848,1.8955,1.8945,1.8769,1.8564,1.8525,1.8301,1.8105,1.8037,1.7998,1.8017,1.8038,1.7861,1.7536,1.7203,1.7143,1.7821,1.8695,1.9368,1.915,1.8821,1.8232,1.7633,1.6578,1.5793,1.5594,1.5586,1.5544,1.5747,1.6543,1.6918,1.7288,1.7064,1.7163,1.7101,1.7257,1.7295,1.7295,1.7036,1.7058,1.7137,1.7153,1.7036,1.7101,1.7127,1.7827,1.8242,1.878,1.9218,1.7509,1.6068,1.5607,1.552,1.5386,1.4013,1.4076,1.71,1.8926,1.7159,1.5402,1.6218,1.8063,1.9287,1.9849,1.8493,1.6586,1.5577,1.6032,1.823,2.2714,2.3458,2.471,2.6289,2.699,2.652,2.6497,2.7146,2.7947,2.781,2.7575,2.7579,2.7575,2.7585,2.7579,2.7259,2.5194,2.3737,2.3971,2.3909,2.3212,2.2353,2.1339,2.0574,2.0066,1.9823,1.9826,1.9206,1.8923,1.833,1.7995,1.8321,1.8622,1.7852,1.7998,1.8008,1.8008,1.8008,1.8008,1.8008,1.8018,1.8183,1.835,1.8408,1.8752,1.8791,1.8691,1.8838,1.8848,1.8643,1.8595,1.8458,1.8193,1.8135,1.8057,1.7988,1.8071,1.7911,1.7698,1.7345,1.7022,1.685,1.7091,1.7786,1.8661,1.8927,1.8715,1.8135,1.7512,1.7062,1.6372,1.6077,1.6049,1.6117,1.6082,1.6461,1.6875,1.7421,1.7603,1.8026,1.7958,1.7842,1.7969,1.8008,1.8083,1.8131,1.8407,1.8251,1.7955,1.7899,1.8136,1.8884,2.0374,2.0994,2.1368,2.1198,2.0576,1.9819,1.9597,1.81,1.6709,1.8352,1.9943,2.094,2.1675,2.1169,2.0773,2.2291,2.3806,2.2947,2.1784,2.038,1.8914,1.9616,2.1305,2.2723,2.2955,2.3914,2.6062,2.6542,2.5579,2.5593,2.6033,2.7367,2.8183,2.7807,2.7576,2.7603,2.7425,2.7079,2.6452,2.4809,2.3693,2.3549,2.2923,2.2163,2.1602,2.0963,2.0359,1.985,1.9913,1.9846,1.9409,1.902,1.8432,1.788,1.7289,1.7596,1.7598,1.8008,1.8008,1.8008,1.8008,1.8008,1.8008,1.8018,1.8359,1.8368,1.8233,1.8834,1.8842,1.8564,1.875,1.874,1.8564,1.8497,1.8331,1.8018,1.8037,1.7978,1.7974,1.8208,1.7833,1.7352,1.701,1.6789,1.6095,1.6358,1.7079,1.7567,1.7743,1.7797,1.7754,1.7278,1.6999,1.6946,1.6638,1.6564,1.7201,1.7173,1.6747,1.6886,1.7015,1.7154,1.7797,1.7895,1.7691,1.8014,1.8208,1.8405,1.869,1.8507,1.8202,1.834,1.8475,1.903,2.0193,2.1817,2.2991,2.3455,2.3716,2.3622,2.3139,2.2483,2.0885,1.9726,2.0855,2.3695,2.5253,2.5316,2.4932,2.5077,2.6076,2.6931,2.6525,2.4865,2.2804,2.1588,2.1607,2.3018,2.287,2.3119,2.3358,2.5779,2.6431,2.5185,2.482,2.5203,2.6356,2.8005,2.829,2.7946,2.7603,2.7289,2.6452,2.5449,2.4265,2.3667,2.3583,2.249,2.1126,2.0729,2.0397,2.0128,1.9799,1.9874,2.0276,2.0914,2.034,1.9073,1.814,1.7287,1.7223,1.7334,1.7998,1.8008,1.8008,1.8008,1.8008,1.8008,1.8008,1.8095,1.8163,1.8047,1.8242,1.8321,1.8271,1.834,1.8311,1.8252,1.8262,1.8125,1.7998,1.7959,1.7658,1.7644,1.7865,1.7579,1.7195,1.6859,1.6566,1.6168,1.6368,1.681,1.7468,1.7468,1.7357,1.7357,1.6952,1.6843,1.6915,1.6972,1.7049,1.7675,1.7413,1.7002,1.7352,1.7617,1.781,1.8361,1.8657,1.885,1.9211,1.9264,1.9492,1.9817,1.893,1.9053,1.9624,1.94,1.9905,2.1281,2.2962,2.42,2.4778,2.5053,2.5448,2.5368,2.4818,2.4,2.2972,2.3712,2.684,2.8885,2.8654,2.8618,2.908,2.9474,2.9668,2.9824,2.7514,2.5091,2.4378,2.3919,2.3592,2.3328,2.3219,2.347,2.4299,2.5426,2.5257,2.4615,2.4665,2.5448,2.6929,2.8561,2.8482,2.7941,2.7063,2.615,2.555,2.465,2.4109,2.349,2.198,2.0416,2.0156,1.99,1.9799,1.9826,1.9804,2.0377,2.0806,2.0928,1.9381,1.8701,1.795,1.7868,1.7402,1.7978,1.8008,1.8008,1.8008,1.8008,1.8008,1.8076,1.8395,1.8586,1.8472,1.8202,1.8008,1.8008,1.8008,1.8076,1.8076,1.8018,1.7871,1.7783,1.7513,1.7261,1.7282,1.7503,1.7091,1.6708,1.6208,1.5919,1.6056,1.6026,1.6244,1.6641,1.6687,1.6687,1.6641,1.6384,1.626,1.6238,1.6604,1.7193,1.7833,1.7696,1.7744,1.8132,1.8354,1.8612,1.8992,1.9375,1.9684,1.9997,2.0206,2.0041,2.0123,1.9764,1.9915,2.0128,2.0238,2.0421,2.2206,2.3872,2.5218,2.5645,2.6254,2.6657,2.6761,2.6126,2.5532,2.4682,2.563,2.8441,3.0,3.0238,3.0824,3.142,3.1279,3.1218,3.0377,2.8663,2.6752,2.5517,2.505,2.4583,2.4124,2.3132,2.3434,2.3877,2.4793,2.5854,2.5198,2.4501,2.5161,2.5693,2.7257,2.8171,2.7756,2.6841,2.5836,2.5314,2.4624,2.3013,2.1621,2.0706,1.9801,1.9492,1.9505,1.9788,1.9821,1.9549,1.875,1.8554,1.9173,1.9458,1.9003,1.8644,1.8607,1.7422,1.7832,1.8085,1.8076,1.8008,1.8144,1.8202,1.8327,1.8911,1.9375,1.9365,1.8721,1.8327,1.8327,1.8202,1.8269,1.821,1.8138,1.7816,1.7497,1.6815,1.687,1.6996,1.7113,1.6908,1.6446,1.5822,1.5586,1.5536,1.5584,1.5584,1.541,1.542,1.5468,1.542,1.5439,1.5557,1.5781,1.6196,1.686,1.7513,1.8208,1.8449,1.8687,1.8988,1.9369,1.981,2.0154,2.0359,2.0742,2.1065,2.0878,2.0704,2.0594,2.0832,2.0961,2.0603,2.153,2.3188,2.4913,2.5802,2.6491,2.7225,2.7509,2.756,2.721,2.6538,2.6841,2.779,2.8895,3.047,3.1749,3.2413,3.2913,3.265,3.2246,3.091,2.9756,2.8491,2.7059,2.6532,2.6007,2.4994,2.3887,2.377,2.4215,2.4848,2.5726,2.6176,2.5568,2.5538,2.5299,2.5606,2.6379,2.6955,2.6201,2.5052,2.4163,2.3224,2.138,1.9762,1.8848,1.8458,1.8855,1.8923,1.9458,1.9258,1.8906,1.7952,1.6837,1.7511,1.8502,1.9512,1.9251,1.9224,1.6582,1.7031,1.8405,1.8654,1.8212,1.871,1.9044,1.9044,1.9233,1.9694,2.0139,2.0268,2.0074,2.0074,1.9299,1.9233,1.9498,1.8799,1.8387,1.8191,1.6801,1.6681,1.689,1.7183,1.7212,1.6574,1.579,1.5508,1.542,1.542,1.542,1.542,1.5439,1.543,1.542,1.5449,1.5459,1.5615,1.6019,1.6708,1.723,1.7967,1.8819,1.9119,1.9406,2.0123,2.0708,2.1009,2.1379,2.1773,2.1938,2.1663,2.1512,2.1436,2.1652,2.2072,2.1686,2.2589,2.4244,2.5905,2.6794,2.6692,2.7255,2.756,2.756,2.756,2.7225,2.7378,2.8253,2.9083,3.0438,3.1643,3.2469,3.2877,3.2888,3.2175,3.1174,3.0909,3.0351,2.9416,2.8724,2.7882,2.6733,2.5925,2.5478,2.5936,2.635,2.713,2.7013,2.6477,2.5884,2.5254,2.4656,2.4972,2.5667,2.5025,2.4005,2.303,2.1698,1.9711,1.8083,1.6935,1.6819,1.7662,1.8561,1.9184,1.883,1.7775,1.6979,1.6043,1.6453,1.7297,1.8671,1.9691,1.9564]},{"header":{"parameterUnit":"m.s-1","parameterCategory":1,"la1":31.0,"la2":29.5877,"lo1":-88.7671,"lo2":-86.6584,"dy":0.0162,"dx":0.0185,"nx":115,"ny":88,"refTime":"2023-08-13T06:00:00:Z","depth":0,"parameterNumber":3,"parameterNumberName":"V-component_of_WINDS"},"data":[0.0,0.0,0.0,0.0,0.0,0.0,0.0,0.0,0.0,0.0,0.0,0.0,0.0,0.0,0.0,0.0,0.0,0.0,0.0,0.0,0.0,0.0,0.0,0.0,0.0,0.0,0.0,0.0,0.0,0.0,0.0,0.0,0.0,0.0,0.0,0.0,0.0,0.0,0.0,0.0,0.0,0.0,0.0,0.0,0.0,0.0,0.0,0.0,0.0,0.0,0.0,0.0,0.0,0.0,0.0,0.0,0.0,0.0,0.0,0.0,0.0,0.0,0.0,0.0,0.0,0.0,0.0,0.0,0.0,0.0,0.0,0.0,0.0,0.0,0.0,0.0,0.0,0.0,0.0,0.0,0.0,0.0,0.0,0.0,0.0,0.0,0.0,0.0,0.0,0.0,0.0,0.0,0.0,0.0,0.0,0.0,0.0,0.0,0.0,0.0,0.0,0.0,0.0,0.0,0.0,0.0,0.0,0.0,0.0,0.0,0.0,0.0,0.0,0.0,0.0,0.0,0.0,0.0,0.0,0.0,0.0,0.0,0.0,0.0,0.0,0.0,0.0,0.0,0.0,0.0,0.0,0.0,0.0,0.0,0.0,0.0,0.0,0.0,0.0,0.0,0.0,0.0,0.0,0.0,0.0,0.0,0.0,0.0,0.0,0.0,0.0,0.0,0.0,0.0,0.0,0.0,0.0,0.0,0.0,0.0,0.0,0.0,0.0,0.0,0.0,0.0,0.0,0.0,0.0,0.0,0.0,0.0,0.0,0.0,0.0,0.0,0.0,0.0,0.0,0.0,0.0,0.0,0.0,0.0,0.0,0.0,0.0,0.0,0.0,0.0,0.0,0.0,0.0,0.0,0.0,0.0,0.0,0.0,0.0,0.0,0.0,0.0,0.0,0.0,0.0,0.0,0.0,0.0,0.0,0.0,0.0,0.0,0.0,0.0,0.0,0.0,0.0,0.0,0.0,0.0,0.0,0.0,0.0,0.0,0.0,0.0,0.0,0.0,0.0,0.0,0.0,0.0,0.0,0.0,0.0,0.0,0.0,0.0,0.0,0.0,0.0,0.0,0.0,0.0,0.0,0.0,0.0,0.0,0.0,0.0,0.0,0.0,0.0,0.0,0.0,0.0,0.0,0.0,0.0,0.0,0.0,0.0,0.0,0.0,0.0,0.0,0.0,0.0,0.0,0.0,0.0,0.0,0.0,0.0,0.0,0.0,0.0,0.0,0.0,0.0,0.0,0.0,0.0,0.0,0.0,0.0,0.0,0.0,0.0,0.0,0.0,0.0,0.0,0.0,0.0,0.0,0.0,0.0,0.0,0.0,0.0,0.0,0.0,0.0,0.0,0.0,0.0,0.0,0.0,0.0,0.0,0.0,0.0,0.0,0.0,0.0,0.0,0.0,0.0,0.0,0.0,0.0,0.0,0.0,0.0,0.0,0.0,0.0,0.0,0.0,0.0,0.0,0.0,0.0,0.0,0.0,0.0,0.0,0.0,0.0,0.0,0.0,0.0,0.0,0.0,0.0,0.0,0.0,0.0,0.0,0.0,0.0,0.0,0.0,0.0,0.0,0.0,0.0,0.0,0.0,0.0,0.0,0.0,0.0,0.0,0.0,0.0,0.0,0.0,0.0,0.0,0.0,0.0,0.0,0.0,0.0,0.0,0.0,0.0,0.0,0.0,0.0,0.0,0.0,0.0,0.0,0.0,0.0,0.0,0.0,0.0,0.0,0.0,0.0,0.0,0.0,0.0,0.0,0.0,0.0,0.0,0.0,0.0,0.0,0.0,0.0,0.0,0.0,0.0,0.0,0.0,0.0,0.0,0.0,0.0,0.0,0.0,0.0,0.0,0.0,0.0,0.0,0.0,0.0,0.0,0.0,0.0,0.0,0.0,0.0,0.0,0.0,0.0,0.0,0.0,0.0,0.0,0.0,0.0,0.0,0.0,0.0,0.0,0.0,0.0,0.0,0.0,0.0,0.0,0.0,0.0,0.0,0.0,0.0,0.0,0.0,0.0,0.0,0.0,0.0,0.0,0.0,0.0,0.0,0.0,0.0,0.0,0.0,0.0,0.0,0.0,0.0,0.0,0.0,0.0,0.0,0.0,0.0,0.0,0.0,0.0,0.0,0.0,0.0,0.0,0.0,0.0,0.0,0.0,0.0,0.0,0.0,0.0,0.0,0.0,0.0,0.0,0.0,0.0,0.0,0.0,0.0,0.0,0.0,0.0,0.0,0.0,0.0,0.0,0.0,0.0,0.0,0.0,0.0,0.0,0.0,0.0,0.0,0.0,0.0,0.0,0.0,0.0,0.0,0.0,0.0,0.0,0.0,0.0,0.0,0.0,0.0,0.0,0.0,0.0,0.0,0.0,0.0,0.0,0.0,0.0,0.0,0.0,0.0,0.0,0.0,0.0,0.0,0.0,0.0,0.0,0.0,0.0,0.0,0.0,0.0,0.0,0.0,0.0,0.0,0.0,0.0,0.0,0.0,0.0,0.0,0.0,0.0,0.0,0.0,0.0,0.0,0.0,0.0,0.0,0.0,0.0,0.0,0.0,0.0,0.0,0.0,0.0,0.0,0.0,0.0,0.0,0.0,0.0,0.0,0.0,0.0,0.0,0.0,0.0,0.0,0.0,0.0,0.0,0.0,0.0,0.0,0.0,0.0,0.0,0.0,0.0,0.0,0.0,0.0,0.0,0.0,0.0,0.0,0.0,0.0,0.0,0.0,0.0,0.0,0.0,0.0,0.0,0.0,0.0,0.0,0.0,0.0,0.0,0.0,0.0,0.0,0.0,0.0,0.0,0.0,0.0,0.0,0.0,0.0,0.0,0.0,0.0,0.0,0.0,0.0,0.0,0.0,0.0,0.0,0.0,0.0,0.0,0.0,0.0,0.0,0.0,0.0,0.0,0.0,0.0,0.0,0.0,0.0,0.0,0.0,0.0,0.0,0.0,0.0,0.0,0.0,0.0,0.0,0.0,0.0,0.0,0.0,0.0,0.0,0.0,0.0,0.0,0.0,0.0,0.0,0.0,0.0,0.0,0.0,0.0,0.0,0.0,0.0,0.0,0.0,0.0,0.0,0.0,0.0,0.0,0.0,0.0,0.0,0.0,0.0,0.0,0.0,0.0,0.0,0.0,0.0,0.0,0.0,0.0,0.0,0.0,0.0,0.0,0.0,0.0,0.0,0.0,0.0,0.0,0.0,0.0,0.0,0.0,0.0,0.0,0.0,0.0,0.0,0.0,0.0,0.0,0.0,0.0,0.0,0.0,0.0,0.0,0.0,0.0,0.0,0.0,0.0,0.0,0.0,0.0,0.0,0.0,0.0,0.0,0.0,0.0,0.0,0.0,0.0,0.0,0.0,0.0,0.0,0.0,0.0,0.0,0.0,0.0,0.0,0.0,0.0,0.0,0.0,0.0,0.0,0.0,0.0,0.0,0.0,0.0,0.0,0.0,0.0,0.0,0.0,0.0,0.0,0.0,0.0,0.0,0.0,0.0,0.0,0.0,0.0,0.0,0.0,0.0,0.0,0.0,0.0,0.0,0.0,0.0,0.0,0.0,0.0,0.0,0.0,0.0,0.0,0.0,0.0,0.0,0.0,0.0,0.0,0.0,0.0,0.0,0.0,0.0,0.0,0.0,0.0,0.0,0.0,0.0,0.0,0.0,0.0,0.0,0.0,0.0,0.0,0.0,0.0,0.0,0.0,0.0,0.0,0.0,0.0,0.0,0.0,0.0,0.0,0.0,0.0,0.0,0.0,0.0,0.0,0.0,0.0,0.0,0.0,0.0,0.0,0.0,0.0,0.0,0.0,0.0,0.0,0.0,0.0,0.0,0.0,0.0,0.0,0.0,0.0,0.0,0.0,0.0,0.0,0.0,0.0,0.0,0.0,0.0,0.0,0.0,0.0,0.0,0.0,0.0,0.0,0.0,0.0,0.0,0.0,0.0,0.0,0.0,0.0,0.0,0.0,0.0,0.0,0.0,0.0,0.0,0.0,0.0,0.0,0.0,0.0,0.0,0.0,0.0,0.0,0.0,0.0,0.0,0.0,0.0,0.0,0.0,0.0,0.0,0.0,0.0,0.0,0.0,0.0,0.0,0.0,0.0,0.0,0.0,0.0,0.0,0.0,0.0,0.0,0.0,0.0,0.0,0.0,0.0,0.0,0.0,0.0,0.0,0.0,0.0,0.0,0.0,0.0,0.0,0.0,0.0,0.0,0.0,0.0,0.0,0.0,0.0,0.0,0.0,0.0,0.0,0.0,-2.5649,0.0,0.0,0.0,0.0,0.0,0.0,0.0,0.0,0.0,0.0,0.0,0.0,0.0,0.0,0.0,0.0,0.0,0.0,0.0,0.0,0.0,0.0,0.0,0.0,0.0,0.0,0.0,0.0,0.0,0.0,0.0,0.0,0.0,0.0,0.0,0.0,0.0,0.0,0.0,0.0,0.0,0.0,0.0,0.0,0.0,0.0,0.0,0.0,0.0,0.0,0.0,0.0,0.0,0.0,0.0,0.0,0.0,0.0,0.0,0.0,0.0,0.0,0.0,0.0,0.0,0.0,0.0,0.0,0.0,0.0,0.0,0.0,0.0,0.0,0.0,0.0,0.0,0.0,0.0,0.0,0.0,0.0,0.0,0.0,0.0,0.0,0.0,0.0,0.0,0.0,0.0,0.0,0.0,0.0,0.0,0.0,0.0,0.0,0.0,0.0,0.0,0.0,0.0,0.0,0.0,0.0,0.0,0.0,0.0,0.0,-2.6808,-2.5612,-2.6506,-2.6566,-2.5688,0.0,0.0,0.0,0.0,0.0,0.0,0.0,0.0,0.0,0.0,0.0,0.0,0.0,0.0,0.0,0.0,0.0,0.0,0.0,0.0,0.0,0.0,0.0,0.0,0.0,0.0,0.0,0.0,0.0,0.0,0.0,0.0,0.0,0.0,0.0,0.0,0.0,0.0,0.0,0.0,0.0,0.0,0.0,0.0,0.0,0.0,0.0,0.0,0.0,0.0,0.0,0.0,0.0,0.0,0.0,0.0,0.0,0.0,0.0,0.0,0.0,0.0,0.0,0.0,0.0,0.0,0.0,0.0,0.0,0.0,0.0,0.0,0.0,0.0,0.0,0.0,0.0,0.0,0.0,0.0,0.0,0.0,0.0,0.0,0.0,0.0,0.0,0.0,0.0,0.0,0.0,0.0,0.0,0.0,0.0,0.0,0.0,0.0,0.0,0.0,0.0,0.0,0.0,0.0,0.0,0.0,0.0,0.0,0.0,0.0,0.0,0.0,-2.6559,-2.6661,-2.6015,0.0,0.0,0.0,0.0,0.0,0.0,0.0,0.0,0.0,0.0,0.0,0.0,0.0,0.0,0.0,0.0,0.0,0.0,0.0,0.0,0.0,0.0,0.0,0.0,0.0,0.0,0.0,0.0,0.0,0.0,0.0,0.0,0.0,0.0,0.0,0.0,0.0,0.0,0.0,0.0,0.0,0.0,0.0,0.0,0.0,0.0,0.0,0.0,0.0,0.0,0.0,0.0,0.0,0.0,0.0,0.0,0.0,0.0,0.0,0.0,0.0,0.0,0.0,0.0,0.0,0.0,0.0,0.0,0.0,0.0,0.0,0.0,0.0,0.0,0.0,0.0,0.0,0.0,0.0,0.0,0.0,0.0,0.0,0.0,0.0,0.0,0.0,0.0,0.0,0.0,0.0,0.0,0.0,0.0,0.0,0.0,0.0,0.0,0.0,0.0,0.0,0.0,0.0,0.0,0.0,0.0,0.0,0.0,0.0,0.0,-2.5901,-2.6641,-2.6816,0.0,-2.6757,0.0,0.0,0.0,0.0,0.0,0.0,0.0,0.0,0.0,0.0,0.0,0.0,0.0,0.0,0.0,0.0,0.0,0.0,0.0,0.0,0.0,0.0,0.0,0.0,0.0,0.0,0.0,0.0,0.0,0.0,0.0,0.0,0.0,0.0,0.0,0.0,0.0,0.0,0.0,0.0,0.0,0.0,0.0,0.0,0.0,0.0,0.0,0.0,0.0,0.0,0.0,0.0,0.0,0.0,0.0,0.0,0.0,0.0,0.0,0.0,0.0,0.0,0.0,0.0,0.0,0.0,0.0,0.0,0.0,0.0,0.0,0.0,0.0,0.0,0.0,0.0,0.0,0.0,0.0,0.0,0.0,0.0,0.0,0.0,0.0,0.0,0.0,0.0,0.0,0.0,0.0,0.0,0.0,0.0,0.0,0.0,0.0,0.0,0.0,0.0,0.0,0.0,0.0,0.0,0.0,0.0,0.0,0.0,0.0,0.0,-2.5851,-2.6773,-2.6877,-2.6616,0.0,0.0,0.0,0.0,0.0,0.0,0.0,0.0,0.0,0.0,0.0,0.0,0.0,0.0,0.0,0.0,0.0,0.0,0.0,0.0,0.0,0.0,0.0,0.0,0.0,0.0,0.0,0.0,0.0,0.0,0.0,0.0,0.0,0.0,0.0,0.0,0.0,0.0,0.0,0.0,0.0,0.0,0.0,0.0,0.0,0.0,0.0,0.0,0.0,0.0,0.0,0.0,0.0,0.0,0.0,0.0,0.0,0.0,0.0,0.0,0.0,0.0,0.0,0.0,0.0,0.0,0.0,0.0,0.0,0.0,0.0,0.0,0.0,0.0,0.0,0.0,0.0,0.0,0.0,0.0,0.0,0.0,0.0,0.0,0.0,0.0,0.0,0.0,0.0,0.0,0.0,0.0,0.0,0.0,0.0,0.0,0.0,0.0,0.0,0.0,0.0,0.0,0.0,0.0,0.0,0.0,0.0,0.0,0.0,0.0,-2.5475,-2.5813,-2.6697,-2.6583,-2.6256,-2.5765,0.0,0.0,0.0,0.0,0.0,0.0,0.0,0.0,0.0,0.0,0.0,0.0,0.0,0.0,0.0,0.0,0.0,0.0,0.0,0.0,0.0,0.0,0.0,0.0,0.0,0.0,0.0,0.0,0.0,0.0,0.0,0.0,0.0,0.0,0.0,0.0,0.0,0.0,0.0,0.0,0.0,0.0,0.0,0.0,0.0,0.0,0.0,0.0,0.0,0.0,0.0,0.0,0.0,0.0,0.0,0.0,0.0,0.0,0.0,0.0,0.0,0.0,0.0,0.0,0.0,0.0,0.0,0.0,0.0,0.0,0.0,0.0,0.0,0.0,0.0,0.0,0.0,0.0,0.0,0.0,0.0,0.0,0.0,0.0,0.0,0.0,0.0,0.0,0.0,0.0,0.0,0.0,0.0,0.0,0.0,0.0,0.0,0.0,0.0,0.0,0.0,0.0,0.0,0.0,0.0,0.0,0.0,0.0,-2.6467,-2.5726,-2.5762,-2.665,-2.5887,-2.5842,0.0,0.0,0.0,0.0,0.0,0.0,0.0,0.0,0.0,0.0,0.0,0.0,0.0,0.0,0.0,0.0,0.0,0.0,0.0,0.0,0.0,0.0,0.0,0.0,0.0,0.0,0.0,0.0,0.0,0.0,0.0,0.0,0.0,0.0,0.0,0.0,0.0,0.0,0.0,0.0,0.0,0.0,0.0,0.0,0.0,0.0,0.0,0.0,0.0,0.0,0.0,0.0,0.0,0.0,0.0,0.0,0.0,0.0,0.0,0.0,0.0,0.0,0.0,0.0,0.0,0.0,0.0,0.0,0.0,0.0,0.0,0.0,0.0,0.0,0.0,0.0,0.0,0.0,0.0,0.0,0.0,0.0,0.0,0.0,0.0,0.0,0.0,0.0,0.0,0.0,0.0,0.0,0.0,0.0,0.0,0.0,0.0,0.0,0.0,0.0,0.0,0.0,0.0,0.0,0.0,0.0,0.0,0.0,0.0,-2.5755,-2.6034,-2.6073,-2.5829,-2.6111,-2.616,0.0,0.0,0.0,0.0,0.0,0.0,0.0,0.0,0.0,0.0,0.0,0.0,0.0,0.0,0.0,0.0,0.0,0.0,0.0,0.0,0.0,0.0,0.0,0.0,0.0,0.0,0.0,0.0,0.0,0.0,0.0,0.0,0.0,0.0,0.0,0.0,0.0,0.0,0.0,0.0,0.0,0.0,0.0,0.0,0.0,0.0,0.0,0.0,0.0,0.0,0.0,0.0,0.0,0.0,0.0,0.0,0.0,0.0,0.0,0.0,0.0,0.0,0.0,0.0,0.0,0.0,0.0,0.0,0.0,0.0,0.0,0.0,0.0,0.0,0.0,0.0,0.0,0.0,0.0,0.0,0.0,0.0,0.0,0.0,0.0,0.0,0.0,0.0,0.0,0.0,0.0,0.0,0.0,0.0,0.0,0.0,0.0,0.0,0.0,0.0,0.0,0.0,0.0,0.0,0.0,0.0,0.0,0.0,0.0,-2.5332,0.0,-2.5948,-2.539,-2.5986,-2.6044,0.0,0.0,0.0,0.0,0.0,0.0,0.0,0.0,0.0,0.0,0.0,0.0,0.0,0.0,0.0,0.0,0.0,0.0,0.0,0.0,0.0,0.0,0.0,0.0,0.0,0.0,0.0,0.0,0.0,0.0,0.0,0.0,0.0,0.0,0.0,0.0,0.0,0.0,0.0,0.0,0.0,0.0,0.0,0.0,0.0,0.0,0.0,0.0,0.0,0.0,0.0,0.0,0.0,0.0,0.0,0.0,0.0,0.0,0.0,0.0,0.0,0.0,0.0,0.0,0.0,0.0,0.0,0.0,0.0,0.0,0.0,0.0,0.0,0.0,0.0,0.0,0.0,0.0,0.0,0.0,0.0,0.0,0.0,0.0,0.0,0.0,0.0,0.0,0.0,0.0,0.0,0.0,0.0,0.0,0.0,0.0,0.0,0.0,0.0,0.0,0.0,0.0,0.0,0.0,0.0,0.0,0.0,0.0,-2.5264,-2.5313,-2.5293,-2.5332,-2.539,-2.5409,-2.544,0.0,0.0,0.0,0.0,0.0,0.0,0.0,0.0,0.0,0.0,0.0,0.0,0.0,0.0,0.0,0.0,0.0,0.0,0.0,0.0,0.0,0.0,0.0,0.0,0.0,0.0,0.0,0.0,0.0,0.0,0.0,0.0,0.0,0.0,0.0,0.0,0.0,0.0,0.0,0.0,0.0,0.0,0.0,0.0,0.0,0.0,0.0,0.0,0.0,0.0,0.0,0.0,0.0,0.0,0.0,0.0,0.0,0.0,0.0,0.0,0.0,0.0,0.0,0.0,0.0,0.0,0.0,0.0,0.0,0.0,0.0,0.0,0.0,0.0,0.0,0.0,0.0,0.0,0.0,0.0,0.0,0.0,0.0,0.0,0.0,0.0,0.0,0.0,0.0,0.0,0.0,0.0,0.0,0.0,0.0,0.0,0.0,0.0,0.0,0.0,0.0,0.0,0.0,0.0,0.0,0.0,0.0,0.0,0.0,-2.5264,-2.4755,-2.4774,-2.5351,-2.4908,-2.4928,0.0,0.0,0.0,0.0,0.0,0.0,0.0,0.0,0.0,0.0,0.0,0.0,0.0,0.0,0.0,0.0,0.0,0.0,0.0,0.0,0.0,0.0,0.0,0.0,0.0,0.0,0.0,0.0,0.0,0.0,0.0,0.0,0.0,0.0,0.0,0.0,0.0,0.0,0.0,0.0,0.0,0.0,0.0,0.0,0.0,0.0,0.0,0.0,0.0,0.0,0.0,0.0,0.0,0.0,0.0,0.0,0.0,0.0,0.0,0.0,0.0,0.0,0.0,0.0,0.0,0.0,0.0,0.0,0.0,0.0,0.0,0.0,0.0,0.0,0.0,0.0,0.0,0.0,0.0,0.0,0.0,0.0,0.0,0.0,0.0,0.0,0.0,0.0,0.0,0.0,0.0,0.0,0.0,0.0,0.0,0.0,0.0,0.0,0.0,0.0,0.0,0.0,0.0,0.0,0.0,0.0,0.0,0.0,0.0,-2.4399,-2.4236,-2.4403,-2.4936,-2.4846,-2.5039,-2.5564,0.0,0.0,0.0,0.0,0.0,0.0,0.0,0.0,0.0,0.0,0.0,0.0,0.0,0.0,0.0,0.0,0.0,0.0,0.0,0.0,0.0,0.0,0.0,0.0,0.0,0.0,0.0,0.0,0.0,0.0,0.0,0.0,0.0,0.0,0.0,0.0,0.0,0.0,0.0,0.0,0.0,0.0,0.0,0.0,0.0,0.0,0.0,0.0,0.0,0.0,0.0,0.0,0.0,0.0,0.0,0.0,0.0,0.0,0.0,0.0,0.0,0.0,0.0,0.0,0.0,0.0,0.0,0.0,0.0,0.0,0.0,0.0,0.0,0.0,0.0,0.0,0.0,0.0,0.0,0.0,0.0,0.0,0.0,0.0,0.0,0.0,0.0,0.0,0.0,0.0,0.0,0.0,0.0,0.0,0.0,0.0,0.0,0.0,0.0,0.0,0.0,0.0,0.0,0.0,0.0,0.0,0.0,0.0,-2.2939,-2.3658,-2.4116,-2.4234,-2.5071,-2.5556,0.0,0.0,0.0,0.0,0.0,0.0,0.0,0.0,0.0,0.0,0.0,0.0,0.0,0.0,0.0,0.0,0.0,0.0,0.0,0.0,0.0,0.0,0.0,0.0,0.0,0.0,0.0,0.0,0.0,0.0,0.0,0.0,0.0,0.0,0.0,0.0,0.0,0.0,0.0,0.0,0.0,0.0,0.0,0.0,0.0,0.0,0.0,0.0,0.0,0.0,0.0,0.0,0.0,0.0,0.0,0.0,0.0,0.0,0.0,0.0,0.0,0.0,0.0,0.0,0.0,0.0,0.0,0.0,0.0,0.0,0.0,0.0,0.0,0.0,0.0,0.0,0.0,0.0,0.0,0.0,0.0,0.0,0.0,0.0,0.0,0.0,0.0,0.0,0.0,0.0,0.0,0.0,0.0,0.0,0.0,0.0,0.0,0.0,0.0,0.0,0.0,0.0,0.0,0.0,0.0,0.0,0.0,0.0,0.0,-2.3045,-2.2639,-2.3022,-2.4217,-2.4569,-2.5015,0.0,0.0,0.0,0.0,0.0,0.0,0.0,0.0,0.0,0.0,0.0,0.0,0.0,0.0,0.0,0.0,0.0,0.0,0.0,0.0,0.0,0.0,0.0,0.0,0.0,0.0,0.0,0.0,0.0,0.0,0.0,0.0,0.0,0.0,0.0,0.0,0.0,0.0,0.0,0.0,0.0,0.0,0.0,0.0,0.0,0.0,0.0,0.0,0.0,0.0,0.0,0.0,0.0,0.0,0.0,0.0,0.0,0.0,0.0,0.0,0.0,0.0,0.0,0.0,0.0,0.0,0.0,0.0,0.0,0.0,0.0,0.0,0.0,0.0,0.0,0.0,0.0,0.0,0.0,0.0,0.0,0.0,0.0,0.0,0.0,0.0,0.0,0.0,0.0,0.0,0.0,0.0,0.0,0.0,0.0,0.0,0.0,0.0,0.0,0.0,0.0,0.0,0.0,0.0,0.0,0.0,0.0,0.0,-2.2992,-2.2037,-2.2222,-2.2828,-2.3822,-2.4207,-2.4782,0.0,0.0,0.0,0.0,0.0,0.0,0.0,0.0,0.0,0.0,0.0,0.0,0.0,0.0,0.0,0.0,0.0,0.0,0.0,0.0,0.0,0.0,0.0,0.0,0.0,0.0,0.0,0.0,0.0,0.0,0.0,0.0,0.0,0.0,0.0,0.0,0.0,0.0,0.0,0.0,0.0,0.0,0.0,0.0,0.0,0.0,0.0,0.0,0.0,0.0,0.0,0.0,0.0,0.0,0.0,0.0,0.0,0.0,0.0,0.0,0.0,0.0,0.0,0.0,0.0,0.0,0.0,0.0,0.0,0.0,0.0,0.0,0.0,0.0,0.0,0.0,0.0,0.0,0.0,0.0,0.0,0.0,0.0,0.0,0.0,0.0,0.0,0.0,0.0,0.0,0.0,0.0,0.0,0.0,0.0,0.0,0.0,0.0,0.0,0.0,0.0,0.0,0.0,0.0,0.0,0.0,0.0,0.0,-2.3064,-2.0983,-2.2327,-2.3134,-2.3223,-2.3965,-2.4793,0.0,0.0,0.0,0.0,0.0,0.0,0.0,0.0,0.0,0.0,0.0,0.0,0.0,0.0,0.0,0.0,0.0,0.0,0.0,0.0,0.0,0.0,0.0,0.0,0.0,0.0,0.0,0.0,0.0,0.0,0.0,0.0,0.0,0.0,0.0,0.0,0.0,0.0,0.0,0.0,0.0,0.0,0.0,0.0,0.0,0.0,0.0,0.0,0.0,0.0,0.0,0.0,0.0,0.0,0.0,0.0,0.0,0.0,0.0,0.0,0.0,0.0,0.0,0.0,0.0,0.0,0.0,0.0,0.0,0.0,0.0,0.0,0.0,0.0,0.0,0.0,0.0,0.0,0.0,0.0,0.0,0.0,0.0,0.0,0.0,0.0,0.0,0.0,0.0,0.0,0.0,0.0,0.0,0.0,0.0,0.0,0.0,0.0,0.0,0.0,0.0,0.0,0.0,0.0,0.0,0.0,0.0,0.0,-2.3365,-2.356,-2.3306,-2.3173,-2.3125,-2.3965,-2.4803,0.0,0.0,0.0,0.0,0.0,0.0,0.0,0.0,0.0,0.0,0.0,0.0,0.0,0.0,0.0,0.0,0.0,0.0,0.0,0.0,0.0,0.0,0.0,0.0,0.0,0.0,0.0,0.0,0.0,0.0,0.0,0.0,0.0,0.0,0.0,0.0,0.0,0.0,0.0,0.0,0.0,0.0,0.0,0.0,0.0,0.0,0.0,0.0,-2.5625,0.0,0.0,0.0,0.0,0.0,0.0,0.0,0.0,0.0,0.0,0.0,0.0,0.0,0.0,0.0,0.0,0.0,0.0,0.0,0.0,0.0,0.0,0.0,0.0,0.0,0.0,0.0,0.0,0.0,0.0,0.0,0.0,0.0,0.0,0.0,0.0,0.0,0.0,0.0,0.0,0.0,0.0,0.0,0.0,0.0,0.0,0.0,0.0,0.0,0.0,0.0,0.0,0.0,0.0,0.0,0.0,0.0,0.0,0.0,-2.3056,-2.3183,-2.3169,-2.3325,-2.3711,-2.4121,-2.457,0.0,0.0,0.0,0.0,0.0,0.0,0.0,0.0,0.0,0.0,0.0,0.0,0.0,0.0,0.0,0.0,0.0,0.0,0.0,0.0,0.0,0.0,0.0,0.0,0.0,0.0,0.0,0.0,0.0,0.0,0.0,0.0,0.0,0.0,0.0,0.0,0.0,0.0,0.0,0.0,0.0,0.0,0.0,0.0,0.0,0.0,0.0,0.0,0.0,0.0,0.0,0.0,0.0,0.0,0.0,0.0,0.0,0.0,0.0,0.0,0.0,0.0,0.0,0.0,0.0,0.0,0.0,0.0,0.0,0.0,0.0,0.0,0.0,0.0,0.0,0.0,0.0,0.0,0.0,0.0,0.0,0.0,0.0,0.0,0.0,0.0,0.0,0.0,0.0,0.0,0.0,0.0,0.0,0.0,0.0,0.0,0.0,0.0,0.0,0.0,0.0,0.0,0.0,0.0,0.0,0.0,0.0,-2.316,-2.2863,-2.2243,-2.3021,-2.3763,-2.4353,-2.4451,-2.4449,-2.4385,0.0,0.0,0.0,0.0,0.0,0.0,0.0,0.0,0.0,0.0,0.0,0.0,0.0,0.0,0.0,0.0,0.0,0.0,0.0,0.0,0.0,0.0,0.0,0.0,0.0,0.0,0.0,0.0,0.0,0.0,0.0,0.0,0.0,0.0,0.0,0.0,0.0,0.0,-2.5332,-2.5479,0.0,0.0,0.0,0.0,0.0,0.0,0.0,0.0,-2.5061,0.0,0.0,0.0,0.0,0.0,0.0,0.0,0.0,0.0,0.0,0.0,0.0,0.0,0.0,0.0,0.0,0.0,0.0,0.0,0.0,0.0,0.0,0.0,0.0,0.0,0.0,0.0,0.0,0.0,0.0,0.0,0.0,0.0,0.0,0.0,0.0,0.0,0.0,0.0,0.0,0.0,0.0,0.0,0.0,0.0,0.0,0.0,0.0,0.0,0.0,0.0,0.0,0.0,0.0,0.0,0.0,-2.3981,-2.3999,-2.3948,-2.391,-2.4691,-2.4819,-2.428,-2.4931,-2.4957,-2.4308,0.0,0.0,0.0,0.0,0.0,0.0,0.0,0.0,0.0,0.0,0.0,0.0,0.0,0.0,0.0,0.0,0.0,0.0,0.0,0.0,0.0,0.0,0.0,0.0,0.0,0.0,0.0,0.0,0.0,0.0,0.0,0.0,0.0,0.0,0.0,0.0,0.0,0.0,0.0,-2.5146,-2.5313,0.0,0.0,0.0,0.0,0.0,0.0,0.0,0.0,-2.4451,0.0,0.0,0.0,0.0,0.0,0.0,0.0,0.0,0.0,0.0,0.0,0.0,0.0,0.0,0.0,0.0,0.0,0.0,0.0,0.0,0.0,0.0,0.0,0.0,0.0,0.0,0.0,0.0,0.0,0.0,0.0,0.0,0.0,0.0,0.0,0.0,0.0,0.0,0.0,0.0,0.0,0.0,0.0,0.0,0.0,0.0,0.0,0.0,0.0,0.0,0.0,0.0,0.0,0.0,0.0,-2.4079,-2.3295,-2.3296,-2.4217,-2.4627,-2.483,-2.488,-2.5157,-2.5149,0.0,0.0,0.0,0.0,0.0,0.0,0.0,0.0,0.0,0.0,0.0,0.0,0.0,0.0,0.0,0.0,0.0,0.0,0.0,0.0,0.0,0.0,0.0,0.0,0.0,0.0,0.0,0.0,0.0,0.0,0.0,0.0,0.0,0.0,0.0,0.0,0.0,0.0,0.0,0.0,-2.4926,-2.488,-2.4774,0.0,0.0,0.0,0.0,0.0,0.0,-2.361,-2.3628,0.0,0.0,0.0,0.0,0.0,0.0,0.0,0.0,0.0,0.0,0.0,0.0,0.0,0.0,0.0,0.0,0.0,0.0,0.0,0.0,0.0,0.0,0.0,0.0,0.0,0.0,0.0,0.0,0.0,0.0,0.0,0.0,0.0,0.0,0.0,0.0,0.0,0.0,0.0,0.0,0.0,0.0,0.0,0.0,0.0,0.0,0.0,0.0,0.0,0.0,0.0,0.0,0.0,0.0,0.0,-2.4014,-2.2791,-2.2772,-2.411,-2.4332,-2.4716,-2.5388,-2.5178,-2.5152,0.0,0.0,0.0,0.0,0.0,0.0,0.0,0.0,0.0,0.0,0.0,0.0,0.0,0.0,0.0,0.0,0.0,0.0,0.0,0.0,0.0,0.0,0.0,0.0,0.0,0.0,0.0,0.0,0.0,0.0,0.0,0.0,0.0,0.0,0.0,0.0,0.0,0.0,0.0,0.0,0.0,-2.449,-2.4668,-2.4377,0.0,0.0,0.0,0.0,-2.2668,-2.2596,0.0,0.0,0.0,0.0,0.0,0.0,0.0,0.0,0.0,0.0,0.0,0.0,0.0,0.0,0.0,0.0,0.0,0.0,0.0,0.0,0.0,0.0,0.0,0.0,0.0,0.0,0.0,0.0,0.0,0.0,0.0,0.0,0.0,0.0,0.0,0.0,0.0,0.0,0.0,0.0,0.0,0.0,0.0,0.0,0.0,0.0,0.0,0.0,0.0,0.0,0.0,0.0,0.0,0.0,0.0,0.0,-2.4091,-2.3909,-2.3909,-2.4129,-2.4812,-2.5137,-2.5072,-2.5037,-2.4962,0.0,0.0,0.0,0.0,0.0,0.0,0.0,0.0,0.0,0.0,0.0,0.0,0.0,0.0,0.0,0.0,0.0,0.0,0.0,0.0,0.0,0.0,0.0,0.0,0.0,0.0,0.0,0.0,0.0,0.0,0.0,0.0,0.0,0.0,0.0,0.0,0.0,0.0,0.0,0.0,0.0,-2.4254,-2.2916,-2.362,-2.3828,0.0,0.0,-2.2116,-2.1721,-2.1551,0.0,0.0,0.0,0.0,0.0,0.0,0.0,0.0,0.0,0.0,0.0,0.0,0.0,0.0,0.0,0.0,0.0,0.0,0.0,0.0,0.0,0.0,0.0,0.0,0.0,0.0,0.0,0.0,0.0,0.0,0.0,0.0,0.0,0.0,0.0,0.0,0.0,0.0,0.0,0.0,0.0,0.0,0.0,0.0,0.0,0.0,0.0,0.0,0.0,0.0,0.0,0.0,0.0,0.0,0.0,-2.3812,-2.4697,-2.3842,-2.3765,-2.4585,-2.4946,-2.5032,-2.4891,-2.478,-2.4756,0.0,0.0,0.0,0.0,0.0,0.0,0.0,0.0,0.0,0.0,0.0,0.0,0.0,0.0,0.0,0.0,0.0,0.0,0.0,0.0,0.0,0.0,0.0,0.0,0.0,0.0,0.0,0.0,0.0,0.0,0.0,0.0,0.0,0.0,0.0,0.0,0.0,0.0,0.0,0.0,0.0,0.0,-2.2098,-2.2081,0.0,0.0,0.0,-2.0545,-2.0446,0.0,0.0,0.0,0.0,0.0,0.0,0.0,0.0,0.0,0.0,0.0,0.0,0.0,0.0,0.0,0.0,0.0,0.0,0.0,0.0,0.0,0.0,0.0,0.0,0.0,0.0,0.0,0.0,0.0,0.0,0.0,0.0,0.0,0.0,0.0,0.0,0.0,0.0,0.0,0.0,0.0,0.0,0.0,0.0,0.0,0.0,0.0,0.0,0.0,0.0,0.0,0.0,0.0,0.0,0.0,0.0,0.0,-2.5166,-2.3784,-2.3669,-2.4892,-2.494,-2.4873,-2.4716,-2.4578,0.0,0.0,0.0,0.0,0.0,0.0,0.0,0.0,0.0,0.0,0.0,0.0,0.0,0.0,0.0,0.0,0.0,0.0,0.0,0.0,0.0,0.0,0.0,0.0,0.0,0.0,0.0,-2.5313,0.0,0.0,0.0,0.0,0.0,0.0,0.0,0.0,0.0,0.0,0.0,0.0,0.0,0.0,-2.1197,-2.0442,-1.978,-1.9267,0.0,0.0,-1.8804,-1.9146,-1.8986,-1.9424,0.0,0.0,0.0,0.0,0.0,0.0,0.0,0.0,0.0,0.0,0.0,0.0,0.0,0.0,0.0,0.0,0.0,0.0,0.0,0.0,0.0,0.0,0.0,0.0,0.0,0.0,0.0,0.0,0.0,0.0,0.0,0.0,0.0,0.0,0.0,0.0,0.0,0.0,0.0,0.0,0.0,0.0,0.0,0.0,0.0,0.0,0.0,0.0,0.0,0.0,0.0,0.0,0.0,0.0,-2.435,-2.4958,-2.4159,-2.4068,-2.4762,-2.4814,-2.4709,-2.4512,-2.4512,-2.4428,0.0,0.0,0.0,0.0,0.0,0.0,0.0,0.0,0.0,0.0,0.0,0.0,0.0,0.0,0.0,0.0,0.0,0.0,0.0,0.0,0.0,0.0,0.0,0.0,0.0,0.0,0.0,0.0,0.0,0.0,0.0,0.0,0.0,0.0,0.0,0.0,0.0,0.0,0.0,0.0,0.0,-1.9137,-1.6951,-1.6437,-1.6112,0.0,-1.6202,-1.7015,-1.795,-1.8804,-1.982,-2.1257,0.0,0.0,0.0,0.0,0.0,0.0,0.0,0.0,0.0,0.0,0.0,0.0,0.0,0.0,0.0,0.0,0.0,0.0,0.0,0.0,0.0,0.0,0.0,0.0,0.0,0.0,0.0,0.0,0.0,0.0,0.0,0.0,0.0,0.0,0.0,0.0,0.0,0.0,0.0,0.0,0.0,0.0,0.0,0.0,0.0,0.0,0.0,0.0,0.0,0.0,0.0,0.0,0.0,-2.4408,-2.4991,-2.4205,-2.4068,-2.4586,-2.4616,-2.4523,-2.4321,-2.4321,-2.4266,0.0,0.0,0.0,0.0,0.0,0.0,0.0,0.0,0.0,0.0,0.0,0.0,0.0,0.0,0.0,0.0,0.0,0.0,0.0,0.0,0.0,0.0,0.0,0.0,0.0,0.0,0.0,0.0,-2.5313,-2.5311,-2.533,0.0,0.0,0.0,0.0,0.0,0.0,0.0,0.0,0.0,0.0,-1.5869,-1.3542,-1.3523,0.0,0.0,-1.4215,-1.5246,-1.6769,-1.7298,-1.8134,-2.0004,-2.1231,0.0,0.0,0.0,0.0,0.0,0.0,0.0,0.0,0.0,0.0,0.0,0.0,0.0,0.0,0.0,0.0,0.0,0.0,0.0,0.0,0.0,0.0,0.0,0.0,0.0,0.0,0.0,0.0,0.0,0.0,0.0,0.0,0.0,0.0,0.0,0.0,0.0,0.0,0.0,0.0,0.0,0.0,0.0,0.0,0.0,0.0,0.0,0.0,0.0,0.0,0.0,0.0,-2.4638,-2.4991,-2.4448,-2.4299,-2.461,-2.4588,-2.4538,-2.4375,-2.4303,-2.4284,0.0,0.0,0.0,0.0,0.0,0.0,0.0,0.0,0.0,0.0,0.0,0.0,0.0,0.0,0.0,0.0,0.0,0.0,0.0,0.0,0.0,0.0,0.0,0.0,0.0,0.0,0.0,0.0,-2.5351,-2.5359,-2.537,0.0,0.0,0.0,0.0,0.0,0.0,0.0,0.0,0.0,0.0,-1.2903,-1.0817,-1.0777,-1.1235,-1.1944,-1.2785,-1.3982,-1.5855,-1.6484,-1.7396,-1.9077,0.0,0.0,0.0,0.0,0.0,0.0,0.0,0.0,0.0,0.0,0.0,0.0,0.0,0.0,0.0,0.0,0.0,0.0,0.0,0.0,0.0,0.0,0.0,0.0,0.0,0.0,0.0,-2.479,0.0,0.0,-2.479,0.0,0.0,0.0,0.0,0.0,0.0,0.0,0.0,0.0,0.0,0.0,0.0,0.0,0.0,0.0,0.0,0.0,0.0,0.0,0.0,0.0,0.0,-2.5165,-2.4991,-2.4968,-2.4896,-2.4804,-2.4807,-2.4793,-2.4775,-2.4591,-2.4495,-2.4495,0.0,0.0,0.0,0.0,0.0,0.0,0.0,0.0,0.0,0.0,0.0,0.0,0.0,0.0,0.0,0.0,0.0,0.0,0.0,0.0,0.0,0.0,0.0,0.0,0.0,0.0,-2.5399,-2.5447,-2.5495,0.0,0.0,0.0,0.0,0.0,0.0,0.0,0.0,0.0,-1.4514,-1.2355,-1.0551,-0.8984,-0.8224,-0.8587,-1.0543,-1.1903,-1.3342,-1.5218,-1.6848,-1.8166,0.0,0.0,0.0,0.0,0.0,0.0,0.0,0.0,0.0,0.0,0.0,0.0,0.0,0.0,0.0,0.0,0.0,0.0,0.0,0.0,0.0,0.0,0.0,0.0,0.0,0.0,0.0,-2.5469,-2.5887,0.0,0.0,0.0,0.0,0.0,0.0,0.0,0.0,0.0,0.0,0.0,-2.526,-2.5329,0.0,0.0,0.0,0.0,0.0,0.0,0.0,0.0,0.0,0.0,0.0,0.0,-2.5184,-2.5022,-2.5004,-2.4922,-2.4818,-2.482,-2.4801,-2.4804,-2.4731,-2.4657,-2.4512,0.0,0.0,0.0,0.0,0.0,0.0,0.0,0.0,0.0,0.0,0.0,0.0,0.0,0.0,0.0,0.0,0.0,0.0,0.0,0.0,0.0,0.0,0.0,0.0,0.0,-2.5393,0.0,0.0,0.0,0.0,0.0,0.0,0.0,0.0,0.0,0.0,-1.7851,-1.4915,-1.2353,-0.9779,-0.788,-0.7356,-0.7095,-0.754,0.0,0.0,0.0,0.0,0.0,0.0,0.0,0.0,0.0,0.0,0.0,0.0,0.0,0.0,-2.2575,-2.1795,-2.1649,-2.1563,-2.1337,0.0,0.0,0.0,0.0,0.0,0.0,0.0,0.0,0.0,0.0,0.0,0.0,0.0,0.0,-2.6641,-2.6993,-2.6562,0.0,0.0,0.0,0.0,0.0,0.0,0.0,0.0,-2.5678,-2.5832,-2.5984,-2.5983,-2.5857,0.0,-2.5511,-2.546,0.0,0.0,0.0,0.0,0.0,0.0,0.0,0.0,-2.559,-2.5187,-2.5166,-2.5124,-2.4994,-2.5005,-2.4998,-2.4962,-2.4861,-2.4746,-2.4626,-2.4647,-2.4738,0.0,0.0,0.0,0.0,0.0,0.0,0.0,0.0,0.0,0.0,0.0,0.0,0.0,0.0,0.0,0.0,0.0,0.0,0.0,0.0,0.0,0.0,0.0,-2.5341,0.0,0.0,0.0,0.0,0.0,0.0,0.0,0.0,0.0,-1.8109,-1.5303,-1.2434,-1.0195,-0.82,-0.6965,-0.6998,0.0,0.0,0.0,0.0,0.0,0.0,0.0,-1.6342,-1.7182,-1.8398,-1.9345,-1.9551,-2.0333,-2.1089,-2.1509,0.0,0.0,-2.1225,-2.1234,-2.1225,-2.0834,-2.0757,-2.071,-2.0738,-2.0487,-2.0329,0.0,0.0,0.0,0.0,0.0,0.0,0.0,0.0,-2.7357,-2.8043,0.0,-2.8413,0.0,0.0,0.0,0.0,-2.5064,-2.5253,0.0,0.0,-2.6814,-2.6949,-2.694,-2.6926,-2.6548,-2.5803,-2.5631,-2.5556,-2.5604,-2.5537,0.0,0.0,0.0,0.0,0.0,0.0,-2.6333,-2.5582,-2.5563,-2.5495,-2.539,-2.538,-2.536,-2.5293,-2.4981,-2.4785,-2.479,-2.4612,-2.4596,-2.4775,-2.4946,0.0,0.0,0.0,0.0,0.0,0.0,0.0,0.0,0.0,0.0,0.0,0.0,0.0,0.0,0.0,0.0,0.0,0.0,0.0,0.0,-2.5086,0.0,0.0,0.0,0.0,0.0,0.0,0.0,0.0,0.0,-1.569,-1.4849,-1.3161,-1.0999,-0.8132,0.0,0.0,0.0,0.0,-0.8495,-1.0458,-1.1326,-1.2416,-1.4345,-1.5245,-1.6039,-1.713,0.0,0.0,-1.9383,-2.0051,-2.0799,-2.1908,-2.2183,-2.1985,-2.1506,-2.1717,-2.1606,-2.0579,-2.0365,-2.0296,-2.0326,-2.0421,-2.0496,-2.9744,0.0,0.0,0.0,0.0,-2.9253,-2.9652,-3.0912,-2.7728,-2.7786,-3.017,-3.14,0.0,0.0,0.0,0.0,0.0,0.0,-2.7439,-2.7723,-2.7787,-2.7825,-2.7838,-2.7836,-2.7691,-2.7413,-2.7343,-2.7348,-2.7363,-2.7276,-2.6927,-2.6264,0.0,0.0,0.0,0.0,-2.6605,-2.645,-2.643,-2.6094,-2.5398,-2.5388,-2.537,-2.5313,-2.5084,-2.4904,-2.4804,-2.4724,-2.4672,-2.4596,-2.5313,0.0,0.0,0.0,0.0,0.0,0.0,0.0,0.0,0.0,0.0,0.0,0.0,0.0,0.0,0.0,0.0,0.0,0.0,0.0,-2.4901,-2.5053,-2.5027,0.0,0.0,0.0,0.0,0.0,0.0,0.0,0.0,0.0,-1.2799,-1.0889,-0.9688,0.0,0.0,-0.8326,-1.0162,-0.971,-0.9548,-1.0653,-1.1729,0.0,-1.3821,-1.5558,-1.6847,-1.7247,-1.8198,-1.933,-2.043,-2.1388,-2.2122,-2.2511,-2.2971,-2.3264,-2.3109,-2.2496,-2.1821,-2.102,-2.0951,-2.1134,-2.1139,-2.1301,-2.1472,-3.1664,-3.074,-3.0865,-3.1324,-3.1841,-3.0892,-3.1151,-3.2107,-2.9079,-2.9293,-3.1848,-3.2879,-3.2147,-3.013,-2.9074,0.0,0.0,0.0,-2.8721,-2.9698,-2.9352,-2.9366,-2.9651,-2.966,-2.9462,-2.9087,-2.9057,-2.9052,-2.9041,-2.8975,-2.8848,-2.8571,0.0,-2.7189,-2.7969,-2.7818,-2.7605,-2.7317,-2.7,-2.6551,-2.5928,-2.5552,-2.5302,-2.5173,-2.5018,-2.4855,-2.4685,-2.491,-2.4967,-2.4856,-2.5811,-2.6131,0.0,0.0,0.0,0.0,0.0,0.0,0.0,0.0,0.0,0.0,0.0,-2.5138,-2.5172,0.0,0.0,0.0,-2.4915,-2.4669,-2.4591,-2.4553,0.0,0.0,0.0,0.0,0.0,0.0,0.0,-1.7012,-1.5323,-1.3677,-1.1936,-1.0875,-1.0264,-1.0173,-0.9414,-0.953,-1.1358,0.0,-1.0839,-1.1809,-1.2826,-1.3761,-1.4671,-1.6138,-1.7399,-1.8097,-1.9669,-2.1018,-2.1794,-2.2846,-2.3753,-2.4257,-2.4749,-2.4997,-2.4672,-2.4123,-2.3232,-2.1938,-2.1927,-2.2124,-2.2058,-2.2236,-2.2416,-3.3031,-3.3044,-3.3294,-3.2894,-3.2108,-3.2089,-3.17,-3.1028,-3.1201,-3.2017,-3.3283,-3.3284,-3.3249,-3.3063,-3.0752,0.0,-3.0819,-2.9354,-2.9927,-3.2077,-3.1262,-3.1284,-3.1984,-3.1954,-3.1527,-3.0746,-3.0657,-3.0618,-3.0618,-3.0592,-3.0982,-3.1693,-3.019,-2.9038,-2.8394,-2.9035,-2.8998,-2.8209,-2.7475,-2.6996,-2.6751,-2.5917,-2.5346,-2.5101,-2.4964,-2.4776,-2.453,-2.5023,-2.5355,-2.5421,-2.6313,-2.6841,-2.686,0.0,0.0,0.0,0.0,0.0,0.0,0.0,0.0,0.0,0.0,0.0,0.0,0.0,0.0,0.0,-2.4444,0.0,-2.4206,-2.375,0.0,0.0,0.0,-2.1524,-2.0085,-1.8489,-1.6934,-1.5402,0.0,0.0,-1.2195,-1.2503,-1.2227,-1.0417,-1.074,-1.1357,-1.1988,-1.212,-1.2541,-1.3674,-1.4331,-1.5099,-1.6089,-1.705,-1.818,-1.9621,-2.1486,-2.2863,-2.3403,-2.4409,-2.5565,-2.6525,-2.6959,-2.682,-2.6043,-2.5893,-2.5392,-2.3163,-2.3047,-2.3225,-2.306,-2.3184,-2.34,-3.4263,-3.4339,-3.4984,-3.4658,-3.3759,-3.3824,-3.4101,-3.4473,-3.4483,-3.438,-3.4185,-3.3855,-3.3532,-3.3184,-3.2566,-3.2402,-3.2591,-3.2216,-3.2331,-3.2887,-3.2697,-3.2641,-3.2721,-3.2526,-3.2289,-3.2031,-3.1832,-3.1708,-3.1727,-3.1908,-3.21,-3.2286,-3.2096,-3.1634,-3.0906,-3.0453,-2.9815,-2.9012,-2.883,-2.8286,-2.7418,-2.7115,-2.658,-2.5777,-2.5733,-2.5343,-2.4549,-2.4645,-2.4939,-2.5384,-2.5913,-2.6355,-2.6636,-2.6974,0.0,0.0,0.0,0.0,0.0,0.0,0.0,0.0,0.0,-2.5302,-2.5316,0.0,-2.5176,0.0,-2.4099,-2.3595,-2.3476,-2.3205,0.0,0.0,-2.2079,-2.1152,-1.9321,-1.8288,-1.7142,-1.5656,-1.4873,-1.4355,-1.4016,-1.414,-1.4223,-1.4082,-1.3831,-1.3973,-1.4979,-1.5222,-1.5218,-1.5163,-1.5927,-1.6498,-1.666,-1.8411,-2.0198,-2.1321,-2.2892,-2.4149,-2.4579,-2.5824,-2.6927,-2.7357,-2.7173,-2.6928,-2.6837,-2.5968,-2.5045,-2.4366,-2.4173,-2.4034,-2.3986,-2.4187,-2.441,-3.5767,-3.5824,-3.6236,-3.6101,-3.5543,-3.564,-3.5907,-3.6285,-3.5783,-3.5588,-3.5641,-3.5181,-3.4898,-3.4716,-3.4011,-3.3884,-3.4206,-3.3529,-3.3587,-3.4226,-3.3752,-3.3658,-3.3929,-3.3652,-3.3525,-3.3485,-3.3318,-3.326,-3.326,-3.3412,-3.3485,-3.3485,-3.363,-3.331,-3.252,-3.1922,-3.1361,-3.0924,-3.0436,-2.9535,-2.8175,-2.7983,-2.7579,-2.6947,-2.6253,-2.5757,-2.5449,-2.5074,-2.5152,-2.5652,-2.6197,-2.6729,-2.7157,-2.7302,-2.7104,0.0,0.0,0.0,0.0,0.0,0.0,0.0,0.0,0.0,0.0,0.0,-2.5011,-2.4491,-2.3787,-2.3257,-2.3003,-2.277,-2.2436,-2.1936,-2.1391,-2.0474,-1.888,-1.7991,-1.7093,-1.6049,-1.5879,-1.5716,-1.5461,-1.5903,-1.6136,-1.595,-1.6249,-1.6459,-1.6362,-1.6776,-1.6989,-1.6442,-1.7505,-1.8515,-1.8613,-2.0004,-2.1506,-2.2696,-2.3717,-2.4611,-2.5174,-2.6272,-2.7175,-2.7284,-2.7255,-2.705,-2.6773,-2.6204,-2.5519,-2.5102,-2.4911,-2.4757,-2.4626,-2.4709,-2.4828,-3.6967,-3.6986,-3.7117,-3.7155,-3.7136,-3.7268,-3.7239,-3.7043,-3.6058,-3.6113,-3.6933,-3.6577,-3.6417,-3.6362,-3.52,-3.4947,-3.5383,-3.4131,-3.4227,-3.5422,-3.4463,-3.4432,-3.5169,-3.4812,-3.4689,-3.4783,-3.4649,-3.4572,-3.4591,-3.4632,-3.4614,-3.4653,-3.4661,-3.4321,-3.358,-3.332,-3.3082,-3.2793,-3.1874,-3.07,-2.9239,-2.8865,-2.8503,-2.803,-2.66,-2.5967,-2.6266,-2.5721,-2.5564,-2.5899,-2.6606,-2.7225,-2.7759,-2.7386,-2.7242,0.0,-2.7031,0.0,0.0,0.0,0.0,0.0,0.0,0.0,0.0,-2.5189,-2.4831,-2.4293,-2.3695,-2.3287,-2.3076,-2.2836,-2.2471,-2.2081,-2.1256,-2.0277,-1.9165,-1.8369,-1.7636,-1.6826,-1.7201,-1.7328,-1.6816,-1.76,-1.7818,-1.7213,-1.8215,-1.8622,-1.746,-1.7981,-1.8384,-1.7832,-1.9001,-2.0041,-2.0828,-2.1479,-2.2228,-2.3506,-2.4312,-2.4808,-2.5488,-2.632,-2.6927,-2.6971,-2.7144,-2.7077,-2.6393,-2.6371,-2.6156,-2.5457,-2.534,-2.5292,-2.511,-2.4975,-2.4936,-3.6445,-3.6519,-3.7146,-3.7423,-3.746,-3.8124,-3.791,-3.7062,-3.6534,-3.6274,-3.6257,-3.6732,-3.6247,-3.5192,-3.6137,-3.5947,-3.4908,-3.5248,-3.5191,-3.4851,-3.466,-3.4961,-3.566,-3.4745,-3.4666,-3.5259,-3.4402,-3.3979,-3.3979,-3.4171,-3.4311,-3.433,-3.4555,-3.4628,-3.4466,0.0,0.0,0.0,-3.2052,-3.1694,-3.1254,-3.0557,-2.9423,-2.7893,-2.6914,0.0,-2.476,-2.515,-2.5425,-2.55,-2.5711,0.0,0.0,0.0,0.0,0.0,0.0,0.0,0.0,0.0,0.0,0.0,-2.7613,-2.6847,-2.5386,-2.4664,-2.4485,-2.4925,-2.4491,-2.4403,-2.4989,-2.4694,-2.4453,-2.4339,-2.3898,-2.3016,-2.1488,-2.1594,-2.1194,-1.9301,-1.9248,-1.9181,-1.8745,-1.8786,-1.9006,-1.9214,-1.9991,-2.0415,-2.0066,-2.0093,-2.026,-2.0274,-2.0316,-2.0415,-2.0521,-2.1859,-2.2851,-2.3488,-2.4741,-2.5609,-2.583,-2.6369,-2.692,-2.7036,-2.6809,-2.6575,-2.656,-2.6107,-2.564,-2.5486,-2.5495,-2.5447,-2.5351,-2.5351,-2.538,-3.7477,-3.7533,-3.79,-3.8083,0.0,-3.825,-3.815,-3.7873,-3.766,-3.7324,-3.6841,-3.6873,-3.6291,-3.5318,-3.573,-3.5466,-3.4732,-3.5128,-3.509,-3.4713,-3.4529,-3.467,-3.5023,-3.4346,-3.4215,-3.4641,-3.4071,-3.3807,-3.3807,-3.3954,-3.4012,-3.3993,-3.4179,-3.4253,-3.4255,-3.4253,-3.3967,-3.3392,-3.3231,-3.2711,-3.1815,-3.1273,-3.0153,-2.8448,-2.7218,0.0,0.0,0.0,0.0,0.0,0.0,0.0,0.0,-2.7567,0.0,-2.7807,-2.8274,-2.8516,-2.8454,-2.8529,-2.8586,-2.8629,-2.8196,-2.7491,-2.6505,-2.6061,-2.5857,-2.5967,-2.536,-2.5241,-2.5852,-2.5417,-2.5059,-2.5024,-2.4559,-2.3883,-2.3138,-2.2886,-2.2531,-2.1914,-2.1632,-2.1401,-2.114,-2.087,-2.0827,-2.1114,-2.1474,-2.17,-2.1693,-2.1456,-2.1238,-2.1124,-2.0907,-2.0952,-2.1447,-2.2208,-2.3304,-2.397,-2.4537,-2.4991,-2.5346,-2.5656,-2.588,-2.5992,-2.5904,-2.591,-2.6041,-2.5726,-2.5464,-2.5486,-2.5526,-2.5537,-2.5492,-2.5505,-2.5522,-3.8658,-3.8578,-3.8658,-3.8707,-3.8658,-3.8132,-3.8099,-3.8433,-3.8627,0.0,0.0,-3.7198,-3.6653,-3.596,-3.5581,-3.524,-3.4977,-3.5127,-3.5108,-3.4977,-3.4689,-3.4643,-3.4773,-3.4252,-3.4082,-3.4229,-3.3935,-3.3807,-3.3807,-3.3807,-3.3807,-3.3807,-3.3807,-3.3807,-3.3807,-3.3807,-3.4037,-3.4505,-3.4265,-3.3398,-3.1968,-3.1586,-3.0632,-2.9044,-2.7581,-2.7053,-2.753,-2.5825,-2.5536,-2.6982,-2.6522,-2.6698,-2.7699,-2.8048,-2.8276,-2.8402,-2.8773,-2.9203,-2.9607,-2.966,-2.9608,-2.9432,-2.8713,-2.8145,-2.7771,-2.7623,-2.7481,-2.7157,-2.6467,-2.6297,-2.686,-2.6348,-2.5901,-2.5901,-2.5439,-2.5087,-2.4766,-2.417,-2.3955,-2.4046,-2.3739,-2.3568,-2.3434,-2.2983,-2.2736,-2.2802,-2.296,-2.2957,-2.2896,-2.243,-2.1898,-2.1535,-2.1413,-2.1616,-2.2295,-2.2734,-2.331,-2.4372,-2.4168,-2.4044,-2.4539,-2.477,-2.4801,-2.5003,-2.5168,-2.5418,-2.5505,-2.5543,-2.5534,-2.552,-2.5593,-2.5609,-2.5605,-2.5566,-2.5514,-3.8415,-3.8065,-3.8515,-3.8707,-3.8658,-3.8132,-3.7738,-3.7487,-3.8336,-3.815,-3.7243,-3.8051,-3.7632,-3.6325,-3.755,-3.7385,-3.6132,-3.6786,-3.6749,-3.6076,-3.603,-3.637,-3.6959,-3.5542,-3.5238,-3.5807,-3.4486,-3.3807,-3.3807,-3.3807,-3.3807,-3.3807,-3.3807,-3.3807,-3.3807,-3.3807,-3.3842,-3.3928,-3.3876,-3.3393,-3.2507,-3.1788,-3.0619,-2.9077,-2.8109,-2.7328,-2.6778,-2.7061,-2.7117,-2.6731,-2.6954,-2.7198,-2.7306,-2.7434,-2.7741,-2.8348,-2.8773,-2.9134,-2.9415,-2.9588,-2.9856,-3.0183,-3.0216,-2.9538,-2.7961,-2.7618,-2.7773,-2.8316,-2.8202,-2.8474,-2.9174,-2.9077,-2.8858,-2.8933,-2.8973,-2.8531,-2.7255,-2.7414,-2.697,-2.5432,-2.5196,-2.5011,-2.4659,-2.4248,-2.4103,-2.4424,-2.4608,-2.4718,-2.4411,-2.3654,-2.2815,-2.2179,-2.22,-2.2322,-2.2371,-2.2745,-2.3325,-2.3773,-2.4062,-2.4204,-2.4528,-2.4712,-2.4854,-2.5022,-2.5245,-2.5438,-2.5553,-2.5582,-2.5615,-2.5644,-2.5684,-2.5684,-2.5673,-2.5608,-2.5575,-3.7738,-3.7542,-3.7791,-3.7895,-3.7861,-3.7632,-3.7248,-3.6843,-3.756,-3.751,-3.7012,-3.7717,-3.7404,-3.6413,-3.7074,-3.7,-3.6321,-3.667,-3.6633,-3.6303,-3.6285,-3.6486,-3.6743,-3.6064,-3.5765,-3.5793,-3.4924,-3.4338,-3.4066,-3.3881,-3.3807,-3.3807,-3.3807,-3.3807,-3.3807,-3.3807,-3.3807,-3.3807,-3.3807,-3.3395,-3.2609,-3.2239,-3.1066,-2.9051,-2.8627,-2.8062,-2.7273,-2.7187,-2.739,-2.7879,-2.767,-2.7747,-2.8166,-2.8202,-2.8366,-2.8688,-2.8887,-2.9112,-2.9392,-2.9589,-2.9654,-2.9603,-3.0079,-2.9905,-2.8719,-2.8953,-2.9329,-2.966,-2.8929,-2.8839,-3.004,-2.943,-2.9025,-2.9389,-2.9391,-2.902,-2.824,-2.7848,-2.7523,-2.6846,-2.6389,-2.6155,-2.6171,-2.5737,-2.5747,-2.6316,-2.6387,-2.6138,-2.588,-2.4858,-2.3865,-2.3106,-2.2641,-2.2492,-2.2654,-2.3107,-2.3553,-2.3819,-2.4137,-2.4411,-2.4633,-2.4828,-2.4981,-2.5119,-2.5351,-2.5526,-2.5625,-2.5658,-2.5668,-2.5684,-2.5703,-2.5684,-2.564,-2.5567,-2.5515,-3.7135,-3.702,-3.7135,-3.7135,-3.7055,-3.7214,-3.6881,-3.6326,-3.6838,-3.6909,-3.6719,-3.7192,-3.7093,-3.6547,-3.662,-3.662,-3.651,-3.6602,-3.662,-3.651,-3.651,-3.651,-3.6474,-3.6328,-3.5996,-3.5562,-3.5162,-3.4751,-3.4379,-3.4147,-3.4004,-3.4004,-3.4108,-3.4091,-3.3908,-3.4018,-3.3999,-3.3825,-3.3807,-3.3395,-3.2643,-3.2588,-3.1524,-2.947,-2.9269,-2.8842,-2.799,-2.7431,-2.7647,-2.8621,-2.8227,-2.8191,-2.8731,-2.898,-2.9137,-2.9137,-2.9227,-2.9296,-2.9372,-2.9533,-2.9479,-2.9148,-2.9793,-3.0006,-2.964,-3.0165,-3.0611,-3.049,-2.9467,-2.9291,-3.0206,-2.9564,-2.8904,-2.9425,-2.9398,-2.914,-2.8595,-2.7844,-2.7482,-2.7792,-2.7355,-2.712,-2.7351,-2.712,-2.7054,-2.7566,-2.7384,-2.6988,-2.6808,-2.5729,-2.4629,-2.4207,-2.3199,-2.2738,-2.3267,-2.3585,-2.3871,-2.4116,-2.4389,-2.4626,-2.4823,-2.5,-2.5166,-2.5264,-2.5447,-2.5607,-2.5684,-2.5703,-2.5703,-2.5703,-2.5703,-2.5664,-2.5593,-2.5487,-2.5438,-3.6921,-3.658,-3.6943,-3.6921,-3.6602,-3.7186,-3.6836,-3.5885,-3.6446,-3.6643,-3.6516,-3.7008,-3.7163,-3.7201,-3.7538,-3.7467,-3.7129,-3.7539,-3.7503,-3.7129,-3.7127,-3.7127,-3.7004,-3.6345,-3.5899,-3.5757,-3.5137,-3.4782,-3.4677,-3.4606,-3.4623,-3.4693,-3.5101,-3.4929,-3.4382,-3.4649,-3.4531,-3.3807,-3.3807,-3.3405,-3.2647,-3.2598,-3.1799,-3.0167,-3.0088,-2.9545,-2.8442,-2.8633,-2.8512,-2.8075,-2.8246,-2.8228,-2.8154,-2.8981,-2.9538,-2.9564,-2.9874,-2.9908,-2.9483,-2.9414,-2.9514,-2.9635,-2.9956,-3.0155,-3.0086,-3.0393,-3.062,-3.0603,-3.0525,-3.0391,-3.0676,-3.0431,-3.0237,-3.0235,-3.0161,-2.9888,-2.9159,-2.88,-2.8456,-2.7932,-2.777,-2.7898,-2.8101,-2.7936,-2.782,-2.8008,-2.7554,-2.7187,-2.725,-2.6033,-2.5103,-2.5246,-2.4295,-2.3471,-2.3813,-2.3945,-2.4192,-2.4579,-2.4733,-2.4878,-2.5034,-2.5122,-2.5188,-2.5437,-2.5571,-2.5635,-2.5684,-2.5703,-2.5703,-2.5684,-2.5664,-2.5631,-2.5541,-2.5447,-2.5428,-3.6139,-3.5941,-3.6165,-3.6397,-3.671,-3.7427,-3.7461,-3.7022,-3.6939,-3.6853,-3.6608,-3.6406,-3.6609,-3.7173,-3.7396,-3.736,-3.721,-3.7396,-3.7396,-3.7228,-3.719,-3.719,-3.7137,-3.6854,-3.6488,-3.6164,-3.5641,-3.5271,-3.5031,-3.4796,-3.4712,-3.4748,-3.5249,-3.5119,-3.438,-3.4759,-3.4494,-3.346,-3.3441,-3.3165,-3.2667,-3.3049,-3.2655,-3.1438,-3.1266,-3.0559,-2.9268,-2.9062,-2.8862,-2.8581,-2.8688,-2.8902,-2.9183,-2.9644,-3.0011,-3.0305,-3.067,-3.0607,-2.9913,-2.988,-2.9749,-2.9551,-2.9664,-2.9823,-3.0079,-3.0273,-3.0423,-3.0521,-3.0228,-3.0156,-3.0566,-3.0332,-3.0175,-3.045,-3.0412,-3.0077,-2.9521,-2.9055,-2.8631,-2.8263,-2.8037,-2.804,-2.8337,-2.8494,-2.8599,-2.8727,-2.8429,-2.8183,-2.8004,-2.6928,-2.6205,-2.5855,-2.4905,-2.434,-2.4432,-2.4492,-2.4634,-2.4872,-2.5015,-2.512,-2.5274,-2.537,-2.5464,-2.5581,-2.5613,-2.5658,-2.57,-2.5703,-2.5703,-2.5664,-2.5566,-2.5492,-2.5462,-2.539,-2.539,-3.5926,-3.6011,-3.6366,-3.6755,-3.7144,-3.7889,-3.8091,-3.7889,-3.7506,-3.7219,-3.706,-3.6481,-3.6631,-3.7277,-3.7132,-3.7027,-3.7066,-3.7013,-3.7031,-3.7066,-3.6869,-3.6764,-3.6746,-3.6764,-3.6563,-3.6205,-3.5931,-3.563,-3.5311,-3.5092,-3.4955,-3.5031,-3.5492,-3.5241,-3.438,-3.4702,-3.4412,-3.339,-3.3158,-3.288,-3.2722,-3.3158,-3.2922,-3.1936,-3.181,-3.1117,-2.9683,-2.9395,-2.9215,-2.9015,-2.9092,-2.9339,-2.9784,-3.0179,-3.0681,-3.1219,-3.1561,-3.1274,-3.0301,-3.021,-2.9959,-2.95,-2.9418,-2.9632,-2.9931,-3.0158,-3.0321,-3.0444,-3.0069,-3.0137,-3.0508,-3.0215,-3.0156,-3.0527,-3.0344,-3.0021,-2.954,-2.904,-2.8621,-2.8397,-2.8214,-2.8169,-2.8507,-2.8787,-2.9035,-2.9269,-2.9139,-2.8878,-2.8241,-2.7447,-2.6654,-2.5988,-2.5329,-2.4979,-2.4901,-2.4877,-2.5005,-2.5127,-2.5247,-2.5331,-2.5507,-2.5572,-2.5613,-2.5605,-2.5636,-2.5644,-2.5625,-2.5625,-2.5644,-2.5566,-2.5492,-2.5403,-2.5406,-2.5341,-2.5321,-3.6738,-3.6924,-3.8244,-3.8379,-3.7922,-3.865,-3.8565,-3.8075,-3.7956,-3.7889,-3.7804,-3.7804,-3.7787,-3.7704,-3.6879,-3.6629,-3.6791,-3.6617,-3.6644,-3.6746,-3.6061,-3.5694,-3.565,-3.565,-3.5711,-3.5711,-3.5698,-3.5603,-3.5548,-3.5576,-3.5565,-3.5603,-3.6049,-3.5595,-3.4466,-3.4627,-3.4401,-3.3633,-3.2873,-3.2684,-3.2844,-3.2686,-3.2178,-3.1458,-3.1355,-3.0826,-2.9741,-2.9848,-2.9748,-2.9033,-2.9317,-2.9386,-2.9295,-3.0536,-3.1715,-3.2383,-3.2533,-3.188,-3.0558,-3.0301,-3.0033,-2.9553,-2.9576,-2.9764,-2.9977,-3.0196,-3.0379,-3.0487,-3.0469,-3.0559,-3.0664,-3.0605,-3.0527,-3.0547,-3.0141,-2.9682,-2.9241,-2.8897,-2.8488,-2.8452,-2.8431,-2.8521,-2.8883,-2.8975,-2.9127,-2.9181,-2.8732,-2.8121,-2.7809,-2.7039,-2.6378,-2.5817,-2.5523,-2.5379,-2.5166,-2.5138,-2.5272,-2.5356,-2.5414,-2.5484,-2.5554,-2.5597,-2.5604,-2.5593,-2.5596,-2.5586,-2.5527,-2.5508,-2.5508,-2.5477,-2.5437,-2.5389,-2.537,-2.5332,-2.5271,-3.7516,-3.7601,-3.8565,-3.8836,-3.87,-3.9377,-3.9529,-3.9309,-3.9292,-3.8751,-3.8075,-3.8212,-3.7638,-3.6468,-3.7121,-3.7398,-3.7462,-3.6928,-3.6712,-3.6688,-3.596,-3.5639,-3.5639,-3.5639,-3.5639,-3.5639,-3.5639,-3.5639,-3.5639,-3.5639,-3.5639,-3.5711,-3.6139,-3.5838,-3.4988,-3.4783,-3.4514,-3.3864,-3.271,-3.2207,-3.251,-3.1965,-3.1519,-3.1261,-3.1463,-3.1202,-3.0283,-3.0158,-2.9972,-2.9702,-2.9802,-3.0172,-3.0815,-3.1901,-3.2643,-3.2972,-3.3214,-3.2889,-3.188,-3.1237,-3.0733,-3.0209,-2.9734,-2.9682,-2.9954,-3.0107,-3.0225,-3.0452,-3.0568,-3.0605,-3.0678,-3.0698,-3.0668,-3.0524,-3.0241,-2.9935,-2.9701,-2.9412,-2.9181,-2.9059,-2.8918,-2.886,-2.892,-2.8975,-2.9145,-2.9411,-2.8853,-2.8267,-2.7919,-2.7558,-2.7024,-2.5994,-2.5989,-2.616,-2.5466,-2.5446,-2.5488,-2.5488,-2.5514,-2.551,-2.5562,-2.5561,-2.555,-2.5531,-2.5534,-2.5527,-2.5488,-2.541,-2.5418,-2.5426,-2.539,-2.536,-2.5332,-2.5217,-2.5137,-3.8058,-3.8362,-3.9039,-3.9343,-3.9411,-3.9851,-3.9985,-3.9749,-3.9648,-3.8971,-3.8043,-3.8063,-3.7422,-3.6591,-3.7449,-3.7922,-3.7838,-3.7135,-3.6797,-3.6721,-3.5977,-3.5639,-3.5639,-3.5639,-3.5639,-3.5639,-3.5639,-3.5639,-3.5639,-3.5639,-3.5639,-3.5622,-3.5985,-3.5761,-3.5081,-3.4777,-3.4528,-3.399,-3.2952,-3.2449,-3.2553,-3.1941,-3.1438,-3.1286,-3.147,-3.1362,-3.0883,-3.0602,-3.0446,-3.0501,-3.0568,-3.1145,-3.2194,-3.284,-3.3273,-3.3408,-3.3634,-3.3458,-3.2651,-3.1861,-3.1181,-3.0618,-2.9945,-2.9666,-2.9965,-3.0107,-3.0271,-3.0475,-3.0598,-3.0655,-3.0684,-3.0684,-3.0633,-3.0513,-3.0311,-3.0087,-2.9918,-2.9701,-2.9485,-2.9255,-2.9067,-2.9017,-2.9017,-2.909,-2.9315,-2.9674,-2.919,-2.8818,-2.8506,-2.8357,-2.8005,-2.6734,-2.6687,-2.6621,-2.6137,-2.5873,-2.5634,-2.5583,-2.5522,-2.5532,-2.5517,-2.551,-2.5479,-2.5474,-2.5466,-2.5447,-2.5409,-2.5341,-2.5332,-2.5332,-2.5331,-2.5302,-2.5225,-2.5095,-2.4996,-3.8362,-3.9039,-3.9749,-3.9952,-3.9969,-3.9969,-3.9631,-3.9106,-3.877,-3.8331,-3.777,-3.7408,-3.7405,-3.7587,-3.7736,-3.7889,-3.7554,-3.7006,-3.6801,-3.6721,-3.5977,-3.5639,-3.5639,-3.5639,-3.5639,-3.5639,-3.5639,-3.5639,-3.5639,-3.5639,-3.5639,-3.5639,-3.5622,-3.5372,-3.4566,-3.4607,-3.452,-3.4363,-3.3702,-3.3305,-3.3271,-3.2587,-3.1856,-3.1297,-3.1213,-3.1235,-3.1162,-3.1162,-3.115,-3.1223,-3.1534,-3.2195,-3.2934,-3.3196,-3.339,-3.368,-3.377,-3.3366,-3.2632,-3.1788,-3.1052,-3.0639,-3.0039,-2.9786,-3.0052,-3.0305,-3.0506,-3.0595,-3.0664,-3.0694,-3.0684,-3.0628,-3.0582,-3.0564,-3.0234,-2.998,-2.9744,-2.9532,-2.9301,-2.9134,-2.9044,-2.8998,-2.9053,-2.9223,-2.9457,-2.9653,-2.9639,-2.9525,-2.9175,-2.9107,-2.8919,-2.8237,-2.7764,-2.7464,-2.6883,-2.6281,-2.5924,-2.5658,-2.5576,-2.5539,-2.5468,-2.5451,-2.5378,-2.5337,-2.5274,-2.5244,-2.5179,-2.5133,-2.5139,-2.5149,-2.5187,-2.519,-2.5063,-2.4932,-2.4794,-3.9089,-3.9648,-3.9428,-3.9631,-3.9969,-3.9546,-3.9174,-3.892,-3.8413,-3.777,-3.728,-3.7503,-3.7199,-3.6755,-3.7381,-3.733,-3.6417,-3.6595,-3.678,-3.6637,-3.596,-3.5639,-3.5639,-3.5639,-3.5639,-3.5639,-3.5639,-3.5639,-3.5639,-3.5639,-3.5639,-3.5639,-3.5639,-3.552,-3.5233,-3.4756,-3.4715,-3.5081,-3.405,-3.3405,-3.3363,-3.2655,-3.1964,-3.1297,-3.119,-3.119,-3.119,-3.1487,-3.1603,-3.1603,-3.2039,-3.2583,-3.3105,-3.3465,-3.3634,-3.3707,-3.3256,-3.2908,-3.2522,-3.1347,-3.0678,-3.0613,-3.0124,-2.9963,-3.0284,-3.0444,-3.0556,-3.0652,-3.0683,-3.0707,-3.0691,-3.0632,-3.0587,-3.0348,-3.0119,-2.9958,-2.9767,-2.9549,-2.9476,-2.9438,-2.9206,-2.9095,-2.9242,-2.9412,-2.9511,-2.9647,-2.9524,-2.931,-2.9338,-2.9438,-2.9123,-2.8424,-2.8349,-2.834,-2.7777,-2.7047,-2.6412,-2.5972,-2.5727,-2.5505,-2.5428,-2.538,-2.5318,-2.5176,-2.5097,-2.5037,-2.4965,-2.4929,-2.4943,-2.4943,-2.496,-2.4929,-2.4865,-2.4745,-2.4568,-3.9174,-3.9935,-3.9005,-3.9022,-3.958,-3.8886,-3.8413,-3.8142,-3.7702,-3.706,-3.6569,-3.6823,-3.6552,-3.5915,-3.6654,-3.6518,-3.574,-3.6151,-3.6337,-3.6299,-3.5893,-3.5639,-3.5639,-3.5639,-3.5639,-3.5639,-3.5639,-3.5639,-3.5639,-3.5639,-3.5639,-3.5639,-3.5639,-3.5622,-3.5605,-3.5182,-3.5098,-3.5064,-3.4303,-3.3558,-3.3025,-3.2519,-3.1964,-3.137,-3.1351,-3.1507,-3.1694,-3.2092,-3.2161,-3.1986,-3.2417,-3.2983,-3.339,-3.368,-3.3678,-3.3311,-3.2926,-3.2504,-3.2082,-3.0962,-3.0341,-3.0576,-3.0124,-2.9908,-3.0284,-3.0449,-3.0591,-3.0667,-3.0703,-3.0855,-3.11,-3.1095,-3.1014,-3.1005,-3.0722,-3.0376,-3.0058,-2.9645,-2.9455,-2.9471,-2.9382,-2.9392,-2.947,-2.966,-2.9734,-2.9803,-2.9682,-2.9352,-2.9544,-2.9718,-2.9316,-2.9062,-2.9101,-2.8965,-2.8652,-2.7867,-2.694,-2.6381,-2.5928,-2.5582,-2.537,-2.5341,-2.5282,-2.5072,-2.4934,-2.4854,-2.4801,-2.4737,-2.47,-2.4712,-2.4734,-2.4764,-2.4701,-2.4447,-2.4247,-3.8667,-3.9715,-3.843,-3.8261,-3.8802,-3.8142,-3.7516,-3.6907,-3.6738,-3.6332,-3.5791,-3.5825,-3.5723,-3.5639,-3.5842,-3.5774,-3.5639,-3.5645,-3.5712,-3.574,-3.5639,-3.5639,-3.5639,-3.5639,-3.5639,-3.5639,-3.5639,-3.5639,-3.5639,-3.5639,-3.5639,-3.5639,-3.5639,-3.5639,-3.5605,-3.5605,-3.5216,-3.4631,-3.4492,-3.3794,-3.25,-3.2321,-3.1964,-3.1263,-3.1507,-3.1842,-3.2144,-3.2583,-3.2598,-3.2161,-3.2777,-3.3302,-3.3707,-3.3788,-3.3476,-3.2889,-3.2651,-3.2118,-3.1439,-3.0612,-3.0198,-3.0406,-3.0058,-2.9839,-3.0228,-3.0477,-3.0634,-3.0718,-3.0721,-3.1052,-3.166,-3.1782,-3.1886,-3.2204,-3.1661,-3.1094,-3.06,-2.9943,-2.9702,-2.9553,-2.9595,-2.9704,-2.9746,-2.9978,-3.013,-3.0183,-3.0231,-2.9901,-2.9678,-2.9703,-2.9991,-2.9785,-2.9355,-2.9394,-2.9043,-2.8674,-2.7832,-2.7561,-2.6901,-2.6256,-2.5746,-2.562,-2.5269,-2.5037,-2.4828,-2.4752,-2.4588,-2.447,-2.4426,-2.4422,-2.4501,-2.4579,-2.4409,-2.4036,-2.3885,-3.7618,-3.8328,-3.7466,-3.7499,-3.8024,-3.7381,-3.6975,-3.6705,-3.6163,-3.5859,-3.5639,-3.5639,-3.5639,-3.5639,-3.5639,-3.5639,-3.5639,-3.5639,-3.5639,-3.5639,-3.5639,-3.5639,-3.5639,-3.5639,-3.5639,-3.5639,-3.5639,-3.5639,-3.5639,-3.5639,-3.5639,-3.5639,-3.5571,-3.5605,-3.5639,-3.5571,-3.5216,-3.4617,-3.4457,-3.3719,-3.2517,-3.2247,-3.1947,-3.1297,-3.1312,-3.1466,-3.1582,-3.1933,-3.2631,-3.3237,-3.3166,-3.339,-3.3753,-3.3807,-3.3642,-3.3293,-3.2357,-3.1685,-3.125,-3.0327,-2.9804,-2.9927,-2.9962,-3.0089,-3.0459,-3.056,-3.0684,-3.0801,-3.087,-3.1164,-3.1769,-3.1949,-3.2359,-3.3078,-3.2422,-3.1493,-3.0844,-3.0599,-3.0394,-2.9964,-2.9813,-2.9893,-3.0046,-3.0176,-3.0271,-3.0211,-3.0019,-2.9648,-2.9336,-2.9101,-2.9141,-2.916,-2.9004,-2.9355,-2.9414,-2.916,-2.8886,-2.8772,-2.8155,-2.7306,-2.6757,-2.6323,-2.5715,-2.5107,-2.4893,-2.4779,-2.4375,-2.41,-2.4098,-2.4074,-2.3901,-2.3837,-2.3681,-2.3412,-2.3408,-3.7516,-3.7804,-3.6755,-3.6721,-3.7297,-3.662,-3.6282,-3.6214,-3.5825,-3.5639,-3.5639,-3.5639,-3.5639,-3.5639,-3.5639,-3.5639,-3.5639,-3.5639,-3.5639,-3.5639,-3.5639,-3.5639,-3.5639,-3.5639,-3.5639,-3.5639,-3.5639,-3.5639,-3.5639,-3.5639,-3.5639,-3.5537,-3.5301,-3.5131,-3.5074,-3.4776,-3.432,-3.366,-3.3558,-3.2998,-3.1941,-3.1851,-3.1664,-3.1303,-3.1351,-3.1507,-3.1733,-3.1987,-3.257,-3.3296,-3.3332,-3.3361,-3.3734,-3.3807,-3.366,-3.333,-3.2375,-3.1709,-3.1025,-3.0296,-2.9907,-2.988,-2.999,-3.0243,-3.051,-3.0625,-3.0723,-3.0859,-3.1133,-3.167,-3.2299,-3.2596,-3.3225,-3.3997,-3.3351,-3.2298,-3.1398,-3.1205,-3.0846,-3.0332,-3.0118,-3.0172,-3.035,-3.0406,-3.0258,-3.0019,-2.9746,-2.9141,-2.8535,-2.834,-2.8262,-2.8398,-2.8926,-2.9453,-2.9687,-2.9531,-2.9394,-2.9334,-2.9195,-2.8378,-2.7799,-2.7177,-2.6408,-2.5744,-2.5206,-2.4695,-2.4293,-2.3885,-2.3605,-2.3498,-2.3267,-2.314,-2.3106,-2.2906,-2.2923,-3.7736,-3.7533,-3.6197,-3.6028,-3.6502,-3.5926,-3.5707,-3.5656,-3.5639,-3.5639,-3.5639,-3.5639,-3.5639,-3.5639,-3.5639,-3.5639,-3.5639,-3.5639,-3.5639,-3.5639,-3.5639,-3.5639,-3.5639,-3.5639,-3.5639,-3.5639,-3.5639,-3.5639,-3.5639,-3.5639,-3.5639,-3.552,-3.4996,-3.4609,-3.4559,-3.4007,-3.3143,-3.2594,-3.2553,-3.2165,-3.1495,-3.1331,-3.1297,-3.1303,-3.1449,-3.177,-3.2039,-3.2258,-3.2499,-3.3045,-3.3087,-3.3306,-3.3689,-3.3807,-3.3505,-3.2908,-3.2504,-3.1839,-3.1058,-3.0719,-3.0396,-3.0238,-3.0241,-3.0331,-3.0548,-3.0644,-3.0762,-3.0879,-3.1445,-3.1977,-3.2714,-3.334,-3.3934,-3.4499,-3.4222,-3.3471,-3.2546,-3.1878,-3.125,-3.0414,-3.0458,-3.0586,-3.0614,-3.0524,-3.0312,-2.9648,-2.9238,-2.8457,-2.7988,-2.7851,-2.7832,-2.791,-2.8672,-2.9648,-2.9824,-2.9902,-2.9824,-2.9749,-2.9799,-2.9344,-2.8837,-2.8178,-2.7344,-2.6662,-2.6107,-2.5222,-2.4281,-2.3858,-2.343,-2.286,-2.2607,-2.2728,-2.2811,-2.2537,-2.2435,-3.6654,-3.6079,-3.5712,-3.5723,-3.5825,-3.569,-3.5639,-3.5639,-3.5622,-3.5554,-3.5605,-3.5605,-3.5588,-3.5605,-3.5588,-3.5639,-3.5639,-3.5639,-3.5639,-3.5639,-3.5639,-3.5639,-3.5639,-3.5639,-3.5639,-3.5639,-3.5639,-3.5639,-3.5639,-3.5639,-3.5639,-3.5571,-3.5284,-3.5044,-3.4472,-3.412,-3.3564,-3.2534,-3.2242,-3.1871,-3.136,-3.119,-3.119,-3.119,-3.1274,-3.1351,-3.1466,-3.1473,-3.1662,-3.2074,-3.2438,-3.2925,-3.3542,-3.3494,-3.3377,-3.3193,-3.2327,-3.1942,-3.2054,-3.0977,-3.0258,-3.0879,-3.0628,-3.0502,-3.0591,-3.0671,-3.0762,-3.0879,-3.1052,-3.1611,-3.2474,-3.3,-3.3772,-3.4433,-3.4428,-3.3928,-3.3185,-3.2842,-3.2063,-3.0982,-3.0547,-3.0644,-3.0545,-2.995,-2.9629,-2.9258,-2.8594,-2.7754,-2.7478,-2.7352,-2.7639,-2.7804,-2.8301,-2.9238,-2.9785,-2.998,-3.0137,-3.0056,-3.0083,-3.0017,-2.9502,-2.911,-2.8264,-2.7575,-2.6987,-2.5968,-2.4798,-2.3872,-2.3449,-2.2726,-2.201,-2.1932,-2.1923,-2.1828,-2.189,-3.6332,-3.5639,-3.5639,-3.5639,-3.5639,-3.5639,-3.5639,-3.5537,-3.5233,-3.5098,-3.5098,-3.5098,-3.5081,-3.5148,-3.5453,-3.5639,-3.5639,-3.5639,-3.5639,-3.5639,-3.5639,-3.5639,-3.5639,-3.5639,-3.5639,-3.5639,-3.5639,-3.5639,-3.5639,-3.5605,-3.5639,-3.5554,-3.5267,-3.4627,-3.3979,-3.3682,-3.2838,-3.1975,-3.1776,-3.1573,-3.1258,-3.119,-3.119,-3.119,-3.119,-3.119,-3.123,-3.123,-3.1449,-3.1699,-3.1882,-3.2391,-3.3277,-3.3314,-3.3312,-3.3176,-3.2785,-3.2259,-3.2238,-3.1465,-3.0814,-3.1446,-3.0938,-3.0689,-3.0661,-3.0739,-3.082,-3.0957,-3.1289,-3.1853,-3.2977,-3.2995,-3.3766,-3.459,-3.4313,-3.3712,-3.3329,-3.3195,-3.2532,-3.1039,-3.0258,-3.0101,-2.98,-2.9448,-2.8594,-2.8086,-2.832,-2.7559,-2.702,-2.7046,-2.7727,-2.8018,-2.8216,-2.875,-2.9531,-3.0,-3.0391,-3.0337,-3.0235,-3.0113,-2.9798,-2.9466,-2.913,-2.8442,-2.7677,-2.6637,-2.5528,-2.4572,-2.3502,-2.2732,-2.2054,-2.1376,-2.1071,-2.1311,-2.1344,-3.6332,-3.5605,-3.5487,-3.5436,-3.5436,-3.5284,-3.5199,-3.5131,-3.4735,-3.4566,-3.4489,-3.4472,-3.4641,-3.4827,-3.5351,-3.5605,-3.5639,-3.5639,-3.5639,-3.5639,-3.5639,-3.5639,-3.5605,-3.5453,-3.547,-3.5588,-3.5639,-3.5605,-3.5419,-3.5419,-3.5172,-3.5138,-3.4861,-3.4236,-3.3471,-3.2861,-3.2361,-3.1704,-3.1427,-3.1292,-3.1207,-3.119,-3.119,-3.119,-3.119,-3.119,-3.119,-3.123,-3.1351,-3.1677,-3.1435,-3.1969,-3.2713,-3.31,-3.3093,-3.2998,-3.2748,-3.2587,-3.2313,-3.1626,-3.1126,-3.1674,-3.1045,-3.0675,-3.0695,-3.0801,-3.0879,-3.1055,-3.1387,-3.2185,-3.3818,-3.3354,-3.3806,-3.4684,-3.4042,-3.329,-3.31,-3.3026,-3.1974,-3.0911,-3.0214,-2.9978,-2.9502,-2.9032,-2.7922,-2.7101,-2.74,-2.7504,-2.6988,-2.694,-2.7736,-2.8322,-2.8536,-2.8844,-2.9552,-2.9738,-3.0164,-3.0174,-3.014,-3.0143,-3.0002,-2.9889,-2.9568,-2.9025,-2.822,-2.7278,-2.6198,-2.5047,-2.3973,-2.2939,-2.1862,-2.1033,-2.0829,-2.086,-2.0771,-3.6315,-3.5571,-3.4945,-3.4675,-3.459,-3.4066,-3.3897,-3.3829,-3.4134,-3.4321,-3.4421,-3.4327,-3.4682,-3.525,-3.5504,-3.5622,-3.5639,-3.5639,-3.5639,-3.5639,-3.5622,-3.5622,-3.5419,-3.503,-3.503,-3.5487,-3.5504,-3.5182,-3.4912,-3.4658,-3.4496,-3.4071,-3.4246,-3.4047,-3.3488,-3.3214,-3.2656,-3.1856,-3.1427,-3.1207,-3.119,-3.119,-3.119,-3.119,-3.119,-3.119,-3.119,-3.119,-3.1213,-3.1278,-3.1565,-3.2001,-3.2503,-3.2656,-3.2759,-3.2847,-3.24,-3.2164,-3.2314,-3.1138,-3.0978,-3.1295,-3.1052,-3.0683,-3.0701,-3.0801,-3.0898,-3.0957,-3.1113,-3.1601,-3.2458,-3.2708,-3.3198,-3.3943,-3.3837,-3.2958,-3.2751,-3.2052,-3.1306,-3.0358,-3.0078,-2.9834,-2.9236,-2.8613,-2.7776,-2.716,-2.7243,-2.7538,-2.7449,-2.7513,-2.8003,-2.8482,-2.8898,-2.9257,-2.969,-2.9632,-2.9751,-2.9719,-2.9776,-3.0095,-3.0057,-3.021,-2.9909,-2.9399,-2.8931,-2.823,-2.7024,-2.5667,-2.4326,-2.3135,-2.1906,-2.0676,-2.0427,-2.0295,-2.007,-3.5368,-3.5013,-3.4641,-3.4726,-3.4895,-3.4286,-3.3964,-3.3897,-3.3592,-3.3609,-3.3914,-3.4124,-3.4479,-3.503,-3.5504,-3.5622,-3.5639,-3.5639,-3.5639,-3.5639,-3.5622,-3.5368,-3.5115,-3.4624,-3.4438,-3.4489,-3.4455,-3.4776,-3.4928,-3.4235,-3.3921,-3.3997,-3.4021,-3.3567,-3.3008,-3.2778,-3.2445,-3.1816,-3.1393,-3.119,-3.119,-3.119,-3.119,-3.119,-3.119,-3.119,-3.119,-3.119,-3.1312,-3.1497,-3.169,-3.1998,-3.2271,-3.2448,-3.2648,-3.2903,-3.2182,-3.1915,-3.2263,-3.1243,-3.0804,-3.1558,-3.1071,-3.0727,-3.0767,-3.0859,-3.0918,-3.0996,-3.139,-3.1824,-3.2764,-3.2996,-3.3846,-3.4412,-3.3806,-3.3068,-3.2544,-3.1323,-3.0468,-2.9801,-2.933,-2.9017,-2.8851,-2.8229,-2.7637,-2.731,-2.7184,-2.7322,-2.7579,-2.7743,-2.7893,-2.8143,-2.8407,-2.8521,-2.8857,-2.8933,-2.9156,-2.9195,-2.9219,-2.9577,-2.991,-2.9917,-3.0008,-2.9858,-2.9368,-2.8601,-2.7803,-2.6383,-2.4905,-2.3375,-2.2127,-2.0992,-2.0183,-1.9698,-1.9461,-3.4709,-3.4709,-3.4556,-3.4844,-3.5199,-3.4421,-3.3998,-3.3846,-3.2858,-3.2791,-3.344,-3.382,-3.4192,-3.459,-3.5064,-3.5436,-3.5588,-3.5639,-3.5639,-3.5639,-3.5622,-3.5233,-3.4658,-3.4252,-3.4032,-3.366,-3.3051,-3.366,-3.4184,-3.366,-3.3525,-3.3355,-3.3152,-3.2857,-3.2302,-3.2326,-3.178,-3.147,-3.1224,-3.119,-3.119,-3.119,-3.119,-3.119,-3.119,-3.119,-3.119,-3.1331,-3.1479,-3.1773,-3.2013,-3.2265,-3.2492,-3.2371,-3.2637,-3.3071,-3.2077,-3.1919,-3.1712,-3.1321,-3.0713,-3.1379,-3.0968,-3.0804,-3.084,-3.0918,-3.0976,-3.1168,-3.1576,-3.2396,-3.3244,-3.3954,-3.4508,-3.4674,-3.3944,-3.2907,-3.2247,-3.1145,-2.969,-2.9062,-2.8518,-2.8304,-2.8256,-2.7914,-2.7306,-2.7064,-2.6921,-2.6744,-2.6991,-2.7189,-2.7352,-2.754,-2.7669,-2.7625,-2.776,-2.7868,-2.8222,-2.86,-2.8606,-2.8772,-2.9189,-2.9528,-2.9676,-2.9797,-2.8884,-2.8119,-2.76,-2.6961,-2.534,-2.3807,-2.2436,-2.1205,-2.0206,-1.9287,-1.8787,-3.5504,-3.5419,-3.4776,-3.4556,-3.4438,-3.3271,-3.2611,-3.256,-3.1832,-3.2176,-3.3406,-3.3482,-3.3888,-3.4421,-3.4573,-3.503,-3.5453,-3.5639,-3.5639,-3.5639,-3.552,-3.5098,-3.4421,-3.3795,-3.3457,-3.2983,-3.207,-3.1968,-3.2645,-3.2594,-3.2188,-3.2059,-3.2354,-3.2138,-3.1734,-3.1926,-3.1948,-3.1441,-3.1261,-3.119,-3.119,-3.119,-3.119,-3.119,-3.119,-3.119,-3.1224,-3.1455,-3.1743,-3.1898,-3.2637,-3.3122,-3.3254,-3.2545,-3.2826,-3.2931,-3.2324,-3.1121,-3.0957,-3.0629,-3.0487,-3.0859,-3.066,-3.0707,-3.084,-3.1055,-3.1279,-3.185,-3.207,-3.2535,-3.3475,-3.394,-3.4307,-3.4103,-3.3525,-3.2816,-3.216,-3.0733,-2.9313,-2.8621,-2.8188,-2.7964,-2.7835,-2.7453,-2.706,-2.6887,-2.6678,-2.6454,-2.6428,-2.6695,-2.6418,-2.6461,-2.6684,-2.6708,-2.6891,-2.6947,-2.732,-2.7894,-2.8176,-2.8202,-2.873,-2.9227,-2.9476,-2.9338,-2.8522,-2.7971,-2.7713,-2.6878,-2.555,-2.4078,-2.2494,-2.1223,-2.0103,-1.9192,-1.8179,-3.4607,-3.4945,-3.4624,-3.4489,-3.4404,-3.3761,-3.3288,-3.2731,-3.1725,-3.2018,-3.3204,-3.338,-3.3828,-3.432,-3.4489,-3.4912,-3.5504,-3.5622,-3.5639,-3.5487,-3.5216,-3.4624,-3.3846,-3.3119,-3.2645,-3.2121,-3.1613,-3.1444,-3.163,-3.1715,-3.1596,-3.1839,-3.1693,-3.1619,-3.1283,-3.1524,-3.1491,-3.134,-3.1223,-3.1207,-3.119,-3.119,-3.119,-3.119,-3.119,-3.119,-3.1297,-3.1596,-3.1967,-3.2246,-3.3013,-3.3152,-3.2854,-3.2411,-3.2336,-3.1618,-3.1243,-3.0932,-3.109,-3.0648,-3.0525,-3.0506,-3.054,-3.061,-3.0859,-3.1269,-3.1605,-3.1949,-3.2927,-3.341,-3.3561,-3.4109,-3.4051,-3.3725,-3.3002,-3.2722,-3.1946,-3.0298,-2.9013,-2.842,-2.7877,-2.7607,-2.7233,-2.6668,-2.6453,-2.6478,-2.615,-2.5724,-2.5932,-2.6318,-2.5805,-2.5116,-2.5442,-2.5713,-2.5967,-2.6213,-2.6564,-2.713,-2.807,-2.8164,-2.8547,-2.895,-2.9146,-2.9143,-2.8597,-2.8162,-2.7801,-2.6623,-2.5196,-2.383,-2.2446,-2.1097,-1.9733,-1.848,-1.7695,-3.3728,-3.4218,-3.4235,-3.4218,-3.4201,-3.4032,-3.3711,-3.3296,-3.2453,-3.2545,-3.3161,-3.3397,-3.3616,-3.4015,-3.4269,-3.4793,-3.5284,-3.5504,-3.5605,-3.5402,-3.4996,-3.4336,-3.3626,-3.2814,-3.2171,-3.119,-3.1292,-3.1106,-3.1009,-3.1043,-3.1352,-3.1968,-3.1501,-3.1139,-3.1063,-3.1166,-3.125,-3.123,-3.0965,-3.097,-3.1123,-3.0982,-3.105,-3.114,-3.119,-3.119,-3.1241,-3.1771,-3.2196,-3.2512,-3.3213,-3.3291,-3.2662,-3.2316,-3.1779,-3.1096,-3.0571,-3.0548,-3.074,-3.065,-3.0494,-3.0487,-3.0521,-3.0586,-3.0723,-3.1428,-3.2133,-3.2263,-3.3108,-3.348,-3.3669,-3.43,-3.3843,-3.3276,-3.2538,-3.2393,-3.1984,-3.0432,-2.911,-2.8434,-2.7818,-2.7063,-2.6604,-2.591,-2.5728,-2.6004,-2.5697,-2.5139,-2.5207,-2.553,-2.496,-2.4098,-2.4139,-2.4595,-2.5222,-2.5546,-2.5864,-2.6473,-2.7425,-2.7963,-2.8248,-2.8404,-2.8585,-2.8529,-2.8416,-2.7433,-2.6477,-2.567,-2.483,-2.3382,-2.196,-2.0597,-1.928,-1.8001,-1.7375,-3.3423,-3.3474,-3.3474,-3.3457,-3.344,-3.273,-3.2848,-3.3322,-3.3702,-3.3541,-3.3161,-3.3313,-3.2992,-3.3034,-3.3931,-3.4539,-3.4641,-3.5301,-3.5453,-3.552,-3.5402,-3.4421,-3.3609,-3.2983,-3.2425,-3.1376,-3.119,-3.0878,-3.0518,-3.0518,-3.0831,-3.1128,-3.0926,-3.0714,-3.0599,-3.0647,-3.0935,-3.0886,-3.0598,-3.0688,-3.0852,-3.0774,-3.0684,-3.1083,-3.119,-3.119,-3.1224,-3.1935,-3.2409,-3.2535,-3.3341,-3.3493,-3.287,-3.2306,-3.1638,-3.0985,-3.0293,-3.0223,-3.0233,-3.0427,-3.0475,-3.0487,-3.054,-3.0568,-3.0633,-3.0645,-3.1388,-3.2526,-3.3096,-3.3659,-3.3929,-3.4192,-3.3638,-3.3152,-3.2645,-3.2349,-3.186,-3.0728,-2.9463,-2.8585,-2.7852,-2.7288,-2.6406,-2.5792,-2.5199,-2.5371,-2.4986,-2.4394,-2.3992,-2.4123,-2.3712,-2.3169,-2.3023,-2.3492,-2.4483,-2.4957,-2.5482,-2.6183,-2.7096,-2.749,-2.7705,-2.7896,-2.8167,-2.7925,-2.7697,-2.6419,-2.5408,-2.515,-2.4421,-2.2908,-2.1391,-1.9894,-1.8726,-1.7584,-1.729,-3.2053,-3.2036,-3.2036,-3.2307,-3.2747,-3.2899,-3.2882,-3.2906,-3.3735,-3.3313,-3.2109,-3.2502,-3.2831,-3.3203,-3.388,-3.4489,-3.4523,-3.4742,-3.4912,-3.4539,-3.4032,-3.3558,-3.3,-3.2527,-3.1681,-3.1275,-3.119,-3.0878,-3.0393,-3.0185,-3.0064,-3.0161,-2.9966,-2.9888,-2.9776,-2.9906,-3.0137,-3.0412,-3.0332,-3.0455,-3.0967,-3.0992,-3.0909,-3.114,-3.119,-3.119,-3.132,-3.2053,-3.2388,-3.277,-3.3506,-3.3457,-3.3018,-3.2331,-3.1653,-3.0923,-3.02,-2.9836,-2.9877,-3.0142,-3.0398,-3.0417,-3.0487,-3.0543,-3.0597,-3.0979,-3.148,-3.2237,-3.2795,-3.3436,-3.3316,-3.3612,-3.3593,-3.3224,-3.2845,-3.2465,-3.1948,-3.0973,-3.0338,-2.965,-2.8709,-2.7829,-2.6828,-2.5812,-2.5256,-2.474,-2.42,-2.3731,-2.3321,-2.3231,-2.3055,-2.2853,-2.2693,-2.2893,-2.3865,-2.451,-2.5116,-2.5973,-2.6825,-2.7083,-2.7363,-2.761,-2.772,-2.749,-2.7181,-2.6317,-2.5609,-2.5132,-2.3888,-2.1957,-2.0414,-1.9016,-1.8011,-1.7112,-1.7284,-3.119,-3.119,-3.119,-3.1495,-3.2002,-3.2527,-3.2594,-3.2517,-3.3185,-3.294,-3.1571,-3.2114,-3.2544,-3.3203,-3.4083,-3.4269,-3.4252,-3.437,-3.432,-3.3947,-3.3389,-3.2882,-3.2611,-3.2205,-3.163,-3.1292,-3.1134,-3.0878,-3.0293,-2.9953,-2.9362,-2.8871,-2.851,-2.8516,-2.9231,-2.9101,-2.9262,-2.9634,-2.9587,-2.9993,-3.0622,-3.0561,-3.1001,-3.1158,-3.1422,-3.1411,-3.1665,-3.2243,-3.2582,-3.2866,-3.3257,-3.3519,-3.2957,-3.2266,-3.1532,-3.0748,-2.9981,-2.9457,-2.9532,-2.9861,-3.0182,-3.0241,-3.029,-3.0359,-3.0621,-3.1114,-3.1383,-3.2269,-3.2769,-3.3071,-3.3042,-3.3796,-3.3781,-3.3431,-3.2843,-3.2468,-3.2488,-3.1934,-3.1427,-3.0842,-2.9843,-2.8826,-2.6913,-2.5786,-2.4399,-2.3933,-2.3677,-2.3125,-2.2727,-2.2789,-2.3132,-2.286,-2.2615,-2.2977,-2.3447,-2.3973,-2.4593,-2.5997,-2.6665,-2.6865,-2.7129,-2.7327,-2.7342,-2.7063,-2.6711,-2.6314,-2.55,-2.4494,-2.2732,-2.0751,-1.9356,-1.7978,-1.7512,-1.6837,-1.7368,-3.119,-3.119,-3.119,-3.1224,-3.1292,-3.1258,-3.1647,-3.2138,-3.2347,-3.2364,-3.2188,-3.2324,-3.2391,-3.2814,-3.3947,-3.4117,-3.3728,-3.4049,-3.4049,-3.3525,-3.3,-3.278,-3.2493,-3.2053,-3.1579,-3.1292,-3.1016,-3.0694,-3.0178,-2.9101,-2.8283,-2.7551,-2.7153,-2.7347,-2.8942,-2.9001,-2.8975,-2.889,-2.8332,-2.8969,-2.9703,-2.9694,-3.0377,-3.1058,-3.153,-3.1526,-3.1709,-3.231,-3.2581,-3.257,-3.316,-3.3259,-3.27,-3.1818,-3.106,-3.0338,-2.9347,-2.887,-2.8842,-2.9382,-2.9674,-2.9893,-2.9964,-3.0112,-3.0309,-3.0597,-3.0936,-3.1705,-3.2462,-3.3461,-3.407,-3.4397,-3.3897,-3.3727,-3.316,-3.2882,-3.2941,-3.3012,-3.2512,-3.1897,-3.1121,-3.0051,-2.7689,-2.5647,-2.3833,-2.3031,-2.294,-2.2662,-2.2333,-2.2536,-2.3056,-2.2987,-2.2783,-2.2917,-2.3275,-2.3443,-2.4173,-2.5604,-2.6418,-2.6453,-2.675,-2.7011,-2.6893,-2.6663,-2.6477,-2.6243,-2.4984,-2.3635,-2.1668,-1.9807,-1.828,-1.7093,-1.667,-1.6782,-1.7436,-3.119,-3.119,-3.119,-3.119,-3.119,-3.119,-3.136,-3.1529,-3.1596,-3.1816,-3.2341,-3.2747,-3.3017,-3.3372,-3.3829,-3.41,-3.3525,-3.2882,-3.2865,-3.3288,-3.251,-3.2273,-3.2053,-3.1799,-3.1444,-3.1106,-3.0779,-3.0258,-2.9519,-2.8359,-2.7442,-2.6717,-2.6103,-2.6406,-2.7184,-2.7536,-2.7655,-2.8093,-2.8024,-2.8323,-2.9254,-2.9538,-2.9952,-3.0702,-3.1201,-3.1427,-3.1493,-3.2182,-3.2279,-3.2197,-3.2791,-3.2798,-3.2307,-3.1462,-3.0517,-2.9914,-2.9062,-2.8219,-2.821,-2.8481,-2.8782,-2.9195,-2.9597,-2.9732,-2.9912,-2.9927,-3.0328,-3.0841,-3.1535,-3.2352,-3.2765,-3.348,-3.3552,-3.4217,-3.4012,-3.3828,-3.3814,-3.3853,-3.358,-3.2841,-3.2108,-2.9938,-2.7652,-2.5853,-2.4086,-2.2994,-2.2898,-2.2896,-2.2639,-2.276,-2.3119,-2.3072,-2.3018,-2.3047,-2.315,-2.3359,-2.3653,-2.4694,-2.5453,-2.5713,-2.6078,-2.6365,-2.65,-2.6251,-2.6264,-2.6188,-2.4597,-2.2895,-2.0833,-1.8996,-1.8111,-1.7175,-1.6697,-1.7066,-1.7773,-3.119,-3.119,-3.119,-3.119,-3.119,-3.119,-3.119,-3.119,-3.1219,-3.1506,-3.207,-3.3076,-3.355,-3.3643,-3.4049,-3.4083,-3.3406,-3.2983,-3.2188,-3.2645,-3.1749,-3.1613,-3.1596,-3.1444,-3.1089,-3.0818,-3.0594,-3.0152,-2.9154,-2.7932,-2.6757,-2.5819,-2.5335,-2.5552,-2.6085,-2.6426,-2.6824,-2.7246,-2.7401,-2.7755,-2.844,-2.8969,-2.9563,-3.0292,-3.081,-3.115,-3.145,-3.174,-3.1938,-3.2002,-3.2161,-3.2343,-3.183,-3.1052,-3.0128,-2.9508,-2.8426,-2.7504,-2.7247,-2.7134,-2.7484,-2.8094,-2.8798,-2.9189,-2.9288,-2.9295,-2.9775,-3.0219,-3.0528,-3.1288,-3.2115,-3.2838,-3.3116,-3.3749,-3.3714,-3.3443,-3.4026,-3.4038,-3.4141,-3.3442,-3.2716,-3.0299,-2.7908,-2.6076,-2.4366,-2.3662,-2.2997,-2.291,-2.2847,-2.2932,-2.3053,-2.3053,-2.3053,-2.304,-2.315,-2.3359,-2.3653,-2.3961,-2.4341,-2.4694,-2.5003,-2.5202,-2.5551,-2.5854,-2.5648,-2.5171,-2.3914,-2.2255,-2.0887,-1.9864,-1.9131,-1.8117,-1.7015,-1.7205,-1.7814,-3.119,-3.119,-3.119,-3.119,-3.119,-3.119,-3.119,-3.1207,-3.12,-3.1257,-3.141,-3.3294,-3.3592,-3.3474,-3.4049,-3.388,-3.3254,-3.3119,-3.2476,-3.1749,-3.136,-3.1343,-3.1292,-3.1207,-3.0757,-3.0543,-3.0256,-2.9728,-2.8861,-2.7473,-2.6052,-2.4865,-2.4502,-2.4791,-2.5237,-2.5726,-2.6225,-2.6622,-2.6911,-2.7249,-2.7758,-2.7978,-2.8975,-2.9827,-3.0526,-3.1007,-3.1457,-3.1914,-3.1949,-3.2021,-3.2144,-3.191,-3.1391,-3.0596,-2.9867,-2.8776,-2.7295,-2.6793,-2.6343,-2.6274,-2.636,-2.7095,-2.7736,-2.8175,-2.8506,-2.864,-2.9098,-2.9752,-3.0244,-3.1092,-3.1952,-3.2014,-3.2065,-3.2269,-3.2331,-3.2773,-3.3617,-3.3932,-3.419,-3.3905,-3.3507,-3.1688,-2.9107,-2.7079,-2.4784,-2.3994,-2.3188,-2.2618,-2.2533,-2.264,-2.2774,-2.3053,-2.304,-2.2967,-2.3138,-2.3236,-2.315,-2.3273,-2.3191,-2.346,-2.3717,-2.4218,-2.4745,-2.4991,-2.4754,-2.4235,-2.3524,-2.2673,-2.1699,-2.0768,-1.9806,-1.8685,-1.7437,-1.7107,-1.7558,-3.119,-3.119,-3.119,-3.119,-3.119,-3.119,-3.119,-3.1207,-3.1219,-3.1438,-3.2019,-3.2551,-3.2872,-3.2645,-3.2831,-3.2814,-3.251,-3.2154,-3.2087,-3.1698,-3.136,-3.1241,-3.1173,-3.105,-3.0471,-2.9872,-2.9475,-2.9059,-2.7703,-2.6545,-2.5381,-2.4024,-2.4074,-2.4307,-2.4752,-2.5182,-2.5773,-2.6284,-2.6607,-2.6996,-2.7335,-2.7691,-2.8653,-2.9451,-3.0095,-3.0626,-3.1285,-3.1497,-3.1456,-3.1524,-3.1524,-3.1376,-3.1253,-3.0136,-2.8975,-2.7263,-2.6714,-2.6627,-2.6306,-2.6543,-2.6573,-2.633,-2.6962,-2.7415,-2.7726,-2.7998,-2.8338,-2.889,-2.951,-3.0224,-3.0435,-3.0483,-3.0557,-3.0663,-3.0819,-3.1474,-3.239,-3.3362,-3.3633,-3.3789,-3.3424,-3.1896,-2.9469,-2.7225,-2.5145,-2.4302,-2.3462,-2.275,-2.2234,-2.2278,-2.2531,-2.2823,-2.2832,-2.2735,-2.2832,-2.2942,-2.2735,-2.2571,-2.2486,-2.2427,-2.2748,-2.3291,-2.3932,-2.4287,-2.4332,-2.4089,-2.3599,-2.2803,-2.2019,-2.1051,-2.0116,-1.8981,-1.7995,-1.7692,-1.7518,-3.092,-3.1173,-3.119,-3.119,-3.119,-3.119,-3.119,-3.1207,-3.1179,-3.1466,-3.1884,-3.2317,-3.2384,-3.2374,-3.2628,-3.2645,-3.229,-3.2046,-3.181,-3.1512,-3.141,-3.1275,-3.1157,-3.0679,-2.9956,-2.9309,-2.8724,-2.8189,-2.6965,-2.6069,-2.5051,-2.443,-2.4225,-2.4389,-2.4847,-2.5362,-2.5901,-2.6457,-2.6889,-2.7246,-2.7636,-2.7995,-2.8655,-2.9228,-2.9724,-3.0184,-3.0909,-3.0948,-3.0903,-3.1123,-3.119,-3.0853,-3.0325,-2.8893,-2.7574,-2.6124,-2.6044,-2.6022,-2.5873,-2.5845,-2.5925,-2.5922,-2.6061,-2.5984,-2.6541,-2.6972,-2.7346,-2.7808,-2.8394,-2.8881,-2.8821,-2.8763,-2.8871,-2.8989,-2.9448,-2.9929,-3.1152,-3.2448,-3.2934,-3.326,-3.2486,-3.1144,-2.9215,-2.7116,-2.5422,-2.4517,-2.3586,-2.273,-2.215,-2.1845,-2.2161,-2.2518,-2.2518,-2.2431,-2.2552,-2.2708,-2.2421,-2.2196,-2.1949,-2.1902,-2.2056,-2.2428,-2.3152,-2.3677,-2.4115,-2.3837,-2.3551,-2.3009,-2.2236,-2.1368,-2.0666,-1.9852,-1.8924,-1.8219,-1.8142,-3.048,-3.119,-3.119,-3.119,-3.119,-3.119,-3.119,-3.1207,-3.1167,-3.1183,-3.1421,-3.2133,-3.2309,-3.2154,-3.2476,-3.2459,-3.2154,-3.1877,-3.159,-3.1207,-3.1241,-3.114,-3.0667,-3.0005,-2.9388,-2.8879,-2.831,-2.7668,-2.6786,-2.6052,-2.5561,-2.5205,-2.5105,-2.5067,-2.5121,-2.5616,-2.6176,-2.6858,-2.7554,-2.8121,-2.8628,-2.9009,-2.9302,-2.9695,-2.9621,-2.9563,-3.0364,-3.0533,-3.0335,-3.0735,-3.0757,-3.0182,-2.878,-2.7567,-2.6238,-2.5711,-2.5663,-2.5717,-2.5615,-2.5545,-2.5423,-2.5263,-2.4883,-2.4892,-2.5474,-2.6209,-2.6611,-2.6781,-2.7302,-2.7743,-2.7801,-2.7267,-2.709,-2.7248,-2.7598,-2.8133,-2.9074,-3.0706,-3.2267,-3.2461,-3.1884,-3.0685,-2.994,-2.7921,-2.5828,-2.4786,-2.3799,-2.2876,-2.2055,-2.1526,-2.1823,-2.2177,-2.2003,-2.2031,-2.2552,-2.2596,-2.2196,-2.1929,-2.1562,-2.1497,-2.1705,-2.2005,-2.236,-2.3123,-2.3881,-2.3776,-2.3492,-2.2862,-2.2322,-2.1942,-2.1248,-2.0723,-1.9883,-1.8783,-1.8389,-3.0023,-3.1173,-3.119,-3.119,-3.119,-3.119,-3.119,-3.119,-3.1185,-3.1145,-3.1258,-3.1438,-3.1573,-3.1647,-3.1765,-3.1715,-3.1613,-3.163,-3.1393,-3.1173,-3.1106,-3.0738,-3.0408,-2.9733,-2.897,-2.806,-2.7511,-2.73,-2.6514,-2.6068,-2.5762,-2.5297,-2.5297,-2.5373,-2.5373,-2.5856,-2.6438,-2.7201,-2.7968,-2.8515,-2.8843,-2.898,-2.9154,-2.9311,-2.9176,-2.8921,-2.9383,-2.9428,-2.9165,-2.9163,-2.9105,-2.8361,-2.715,-2.6538,-2.5748,-2.5118,-2.5512,-2.5592,-2.5588,-2.5502,-2.5501,-2.5324,-2.5053,-2.4791,-2.4929,-2.5476,-2.585,-2.5965,-2.622,-2.6607,-2.6701,-2.6028,-2.5543,-2.5728,-2.5962,-2.6596,-2.7209,-2.9249,-3.1402,-3.1343,-3.1031,-3.0469,-2.9858,-2.8546,-2.6645,-2.5163,-2.4023,-2.2942,-2.1874,-2.1253,-2.1448,-2.1709,-2.1424,-2.1561,-2.2226,-2.2409,-2.204,-2.163,-2.124,-2.1237,-2.143,-2.2076,-2.2774,-2.3187,-2.3611,-2.3492,-2.3111,-2.2483,-2.2044,-2.1829,-2.1111,-2.0246,-1.9707,-1.875,-1.8422,-3.0142,-3.114,-3.119,-3.119,-3.119,-3.119,-3.119,-3.1151,-3.0918,-3.0781,-3.0895,-3.1055,-3.119,-3.119,-3.119,-3.1151,-3.1151,-3.1207,-3.0954,-3.0801,-3.0641,-3.02,-2.9783,-2.913,-2.8444,-2.7534,-2.7242,-2.6891,-2.633,-2.628,-2.6123,-2.5872,-2.5819,-2.5819,-2.5872,-2.622,-2.6664,-2.7429,-2.8188,-2.8473,-2.8677,-2.8876,-2.9098,-2.9158,-2.8672,-2.8388,-2.8558,-2.8725,-2.8775,-2.8558,-2.8459,-2.7711,-2.6704,-2.5874,-2.5262,-2.4967,-2.5104,-2.5558,-2.5545,-2.5488,-2.5439,-2.5092,-2.4483,-2.3897,-2.3781,-2.4363,-2.4872,-2.5117,-2.5855,-2.629,-2.6309,-2.5826,-2.5523,-2.5443,-2.6015,-2.6663,-2.7472,-2.8789,-2.9973,-3.0142,-2.959,-2.8782,-2.8121,-2.7324,-2.5574,-2.4511,-2.3528,-2.2773,-2.1712,-2.1204,-2.1395,-2.1369,-2.1105,-2.1422,-2.2177,-2.2126,-2.1776,-2.1335,-2.1031,-2.1743,-2.2292,-2.2696,-2.3183,-2.3646,-2.3661,-2.3169,-2.2701,-2.2291,-2.1665,-2.1344,-2.047,-1.9543,-1.9086,-1.8644,-1.8126,-3.0176,-3.0886,-3.101,-3.1151,-3.119,-3.1112,-3.1055,-3.0958,-3.0559,-3.0267,-3.0251,-3.0699,-3.0958,-3.0958,-3.1055,-3.1015,-3.0914,-3.0639,-3.0398,-3.0154,-3.0026,-2.9367,-2.8568,-2.779,-2.7457,-2.7236,-2.6994,-2.686,-2.664,-2.659,-2.659,-2.6691,-2.6708,-2.6657,-2.6708,-2.6742,-2.6945,-2.7334,-2.7771,-2.7922,-2.8301,-2.8718,-2.882,-2.8502,-2.802,-2.7662,-2.7901,-2.8255,-2.8542,-2.8288,-2.7828,-2.7087,-2.6381,-2.5545,-2.5047,-2.476,-2.4882,-2.5097,-2.5085,-2.4805,-2.4592,-2.4168,-2.3458,-2.3185,-2.3125,-2.3446,-2.4,-2.4596,-2.5353,-2.579,-2.5794,-2.5595,-2.5324,-2.5027,-2.5624,-2.6346,-2.7227,-2.8115,-2.8491,-2.8765,-2.8081,-2.7286,-2.6686,-2.5954,-2.5048,-2.39,-2.307,-2.2265,-2.1674,-2.1549,-2.1524,-2.1322,-2.1014,-2.1457,-2.1925,-2.1888,-2.1492,-2.1471,-2.1374,-2.2334,-2.3139,-2.359,-2.3946,-2.4133,-2.4004,-2.3396,-2.285,-2.2431,-2.1777,-2.1072,-2.0233,-1.9412,-1.8679,-1.8189,-1.7615,-2.8721,-2.9499,-3.0182,-3.074,-3.1072,-3.0683,-3.0477,-3.0477,-3.0335,-3.0038,-2.9717,-2.9629,-2.9761,-2.9761,-3.0293,-3.0335,-3.0025,-2.9939,-2.9712,-2.9397,-2.9248,-2.846,-2.7698,-2.7102,-2.6759,-2.6654,-2.6673,-2.6725,-2.6708,-2.6708,-2.6708,-2.6708,-2.6742,-2.6725,-2.6708,-2.6759,-2.6911,-2.7182,-2.7331,-2.7534,-2.7441,-2.7666,-2.7639,-2.7432,-2.7206,-2.6704,-2.6625,-2.7134,-2.7241,-2.7128,-2.697,-2.6514,-2.598,-2.5433,-2.5018,-2.4621,-2.4728,-2.476,-2.4671,-2.4369,-2.4125,-2.4034,-2.3484,-2.3125,-2.3125,-2.3125,-2.3667,-2.4116,-2.4777,-2.5281,-2.5315,-2.4945,-2.4578,-2.3996,-2.4114,-2.5025,-2.5927,-2.6633,-2.7209,-2.7192,-2.6903,-2.6459,-2.627,-2.5588,-2.4928,-2.408,-2.383,-2.2968,-2.207,-2.1923,-2.1719,-2.1285,-2.0873,-2.0769,-2.0971,-2.1373,-2.1237,-2.1382,-2.1888,-2.2977,-2.3888,-2.4526,-2.4818,-2.4875,-2.4409,-2.3796,-2.3254,-2.2447,-2.183,-2.1097,-2.0228,-1.938,-1.859,-1.7886,-1.7385]}]]